Time,TemperatureF,DewpointF,PressureIn,WindDirection,WindDirectionDegrees,WindSpeedMPH,WindSpeedGustMPH,Humidity,HourlyPrecipIn,Conditions,Clouds,dailyrainin,SoftwareType,DateUTC
2013-11-09 00:00:00,42.6,34.9,30.00,NW,309,0.0,0.0,74,0.00,,---,0.00,VWS V14.01,2013-11-09 05:00:00,
2013-11-09 00:01:00,42.6,34.9,30.00,NW,309,0.0,0.0,74,0.00,,---,0.00,VWS V14.01,2013-11-09 05:01:00,
2013-11-09 00:02:00,42.6,34.9,30.00,NW,309,0.0,0.0,74,0.00,,---,0.00,VWS V14.01,2013-11-09 05:02:00,
2013-11-09 00:03:00,42.6,34.9,30.00,NW,309,0.0,0.0,74,0.00,,---,0.00,VWS V14.01,2013-11-09 05:03:00,
2013-11-09 00:04:00,42.7,35.0,30.00,NW,309,0.0,0.0,74,0.00,,---,0.00,VWS V14.01,2013-11-09 05:04:00,
2013-11-09 00:05:00,42.6,34.9,30.00,NW,309,0.0,0.0,74,0.00,,---,0.00,VWS V14.01,2013-11-09 05:05:00,
2013-11-09 00:06:00,42.6,34.6,30.00,NW,309,0.0,0.0,73,0.00,,---,0.00,VWS V14.01,2013-11-09 05:06:00,
2013-11-09 00:07:00,42.6,34.9,30.00,NW,309,0.0,0.0,74,0.00,,---,0.00,VWS V14.01,2013-11-09 05:07:00,
2013-11-09 00:08:00,42.6,34.9,30.00,NW,309,0.0,1.0,74,0.00,,---,0.00,VWS V14.01,2013-11-09 05:08:00,
2013-11-09 00:09:00,42.6,34.9,30.00,NW,309,0.0,1.0,74,0.00,,---,0.00,VWS V14.01,2013-11-09 05:09:00,
2013-11-09 00:10:00,42.7,34.7,30.00,NW,309,0.0,1.0,73,0.00,,---,0.00,VWS V14.01,2013-11-09 05:10:00,
2013-11-09 00:11:00,42.7,35.0,30.00,NW,309,0.0,0.0,74,0.00,,---,0.00,VWS V14.01,2013-11-09 05:11:00,
2013-11-09 00:12:00,42.7,34.7,30.00,NW,309,0.0,0.0,73,0.00,,---,0.00,VWS V14.01,2013-11-09 05:12:00,
2013-11-09 00:13:00,42.7,34.7,30.00,NW,309,0.0,0.0,73,0.00,,---,0.00,VWS V14.01,2013-11-09 05:13:00,
2013-11-09 00:14:00,42.7,34.7,30.00,NW,309,0.0,0.0,73,0.00,,---,0.00,VWS V14.01,2013-11-09 05:14:00,
2013-11-09 00:15:00,42.7,34.7,29.99,NW,309,0.0,0.0,73,0.00,,---,0.00,VWS V14.01,2013-11-09 05:15:00,
2013-11-09 00:16:00,42.7,34.7,29.99,NW,309,0.0,0.0,73,0.00,,---,0.00,VWS V14.01,2013-11-09 05:16:00,
2013-11-09 00:17:00,42.7,34.7,29.99,NW,309,0.0,0.0,73,0.00,,---,0.00,VWS V14.01,2013-11-09 05:17:00,
2013-11-09 00:18:00,42.7,34.7,29.99,NW,309,0.0,0.0,73,0.00,,---,0.00,VWS V14.01,2013-11-09 05:18:00,
2013-11-09 00:19:00,42.7,34.7,29.99,NW,309,0.0,0.0,73,0.00,,---,0.00,VWS V14.01,2013-11-09 05:19:00,
2013-11-09 00:20:00,42.7,34.7,29.99,NW,309,0.0,0.0,73,0.00,,---,0.00,VWS V14.01,2013-11-09 05:20:00,
2013-11-09 00:21:00,42.7,34.7,29.99,NW,309,0.0,0.0,73,0.00,,---,0.00,VWS V14.01,2013-11-09 05:21:00,
2013-11-09 00:22:00,42.7,34.7,29.99,NW,309,0.0,0.0,73,0.00,,---,0.00,VWS V14.01,2013-11-09 05:22:00,
2013-11-09 00:23:00,42.7,34.7,29.99,NW,309,0.0,0.0,73,0.00,,---,0.00,VWS V14.01,2013-11-09 05:23:00,
2013-11-09 00:24:00,42.7,34.7,29.99,NW,309,0.0,0.0,73,0.00,,---,0.00,VWS V14.01,2013-11-09 05:24:00,
2013-11-09 00:25:00,42.7,34.7,29.99,NW,309,0.0,0.0,73,0.00,,---,0.00,VWS V14.01,2013-11-09 05:25:00,
2013-11-09 00:26:00,42.7,34.7,29.99,NW,309,0.0,0.0,73,0.00,,---,0.00,VWS V14.01,2013-11-09 05:26:00,
2013-11-09 00:27:00,42.7,34.7,29.99,NW,309,0.0,0.0,73,0.00,,---,0.00,VWS V14.01,2013-11-09 05:27:00,
2013-11-09 00:28:00,42.7,34.7,29.99,NW,309,0.0,1.0,73,0.00,,---,0.00,VWS V14.01,2013-11-09 05:28:00,
2013-11-09 00:29:00,42.7,34.7,29.99,NW,309,0.0,1.0,73,0.00,,---,0.00,VWS V14.01,2013-11-09 05:29:00,
2013-11-09 00:30:00,42.8,34.8,29.99,NW,309,0.0,1.0,73,0.00,,---,0.00,VWS V14.01,2013-11-09 05:30:00,
2013-11-09 00:31:00,42.8,34.8,29.99,NW,309,0.0,0.0,73,0.00,,---,0.00,VWS V14.01,2013-11-09 05:31:00,
2013-11-09 00:32:00,42.7,34.3,29.99,NW,309,0.0,0.0,72,0.00,,---,0.00,VWS V14.01,2013-11-09 05:32:00,
2013-11-09 00:33:00,42.8,34.4,29.99,NW,309,0.0,0.0,72,0.00,,---,0.00,VWS V14.01,2013-11-09 05:33:00,
2013-11-09 00:34:00,42.8,34.4,29.99,NW,309,0.0,0.0,72,0.00,,---,0.00,VWS V14.01,2013-11-09 05:34:00,
2013-11-09 00:35:00,42.8,34.4,29.99,NW,309,0.0,0.0,72,0.00,,---,0.00,VWS V14.01,2013-11-09 05:35:00,
2013-11-09 00:36:00,42.8,34.4,29.99,NW,309,0.0,1.0,72,0.00,,---,0.00,VWS V14.01,2013-11-09 05:36:00,
2013-11-09 00:37:00,42.8,34.4,29.99,NW,309,0.0,1.0,72,0.00,,---,0.00,VWS V14.01,2013-11-09 05:37:00,
2013-11-09 00:38:00,42.8,34.8,29.99,NW,309,0.0,1.0,73,0.00,,---,0.00,VWS V14.01,2013-11-09 05:38:00,
2013-11-09 00:39:00,42.9,34.5,29.99,NW,309,0.0,1.0,72,0.00,,---,0.00,VWS V14.01,2013-11-09 05:39:00,
2013-11-09 00:40:00,42.9,34.5,29.99,NW,309,0.0,1.0,72,0.00,,---,0.00,VWS V14.01,2013-11-09 05:40:00,
2013-11-09 00:41:00,42.9,34.5,29.99,NW,309,0.0,0.0,72,0.00,,---,0.00,VWS V14.01,2013-11-09 05:41:00,
2013-11-09 00:42:00,42.9,34.5,29.99,NW,309,0.0,1.0,72,0.00,,---,0.00,VWS V14.01,2013-11-09 05:42:00,
2013-11-09 00:43:00,42.9,34.2,29.99,NW,309,0.0,1.0,71,0.00,,---,0.00,VWS V14.01,2013-11-09 05:43:00,
2013-11-09 00:44:00,42.9,34.5,29.99,NW,305,0.0,1.0,72,0.00,,---,0.00,VWS V14.01,2013-11-09 05:44:00,
2013-11-09 00:45:00,42.9,34.5,29.98,NW,305,0.0,1.0,72,0.00,,---,0.00,VWS V14.01,2013-11-09 05:45:00,
2013-11-09 00:46:00,43.0,34.6,29.98,NW,305,0.0,0.0,72,0.00,,---,0.00,VWS V14.01,2013-11-09 05:46:00,
2013-11-09 00:47:00,43.0,34.2,29.98,NW,305,0.0,0.0,71,0.00,,---,0.00,VWS V14.01,2013-11-09 05:47:00,
2013-11-09 00:48:00,43.0,34.6,29.98,NW,305,0.0,0.0,72,0.00,,---,0.00,VWS V14.01,2013-11-09 05:48:00,
2013-11-09 00:49:00,43.0,34.6,29.98,NW,305,0.0,0.0,72,0.00,,---,0.00,VWS V14.01,2013-11-09 05:49:00,
2013-11-09 00:50:00,43.0,34.2,29.98,NW,305,0.0,0.0,71,0.00,,---,0.00,VWS V14.01,2013-11-09 05:50:00,
2013-11-09 00:51:00,43.0,34.2,29.98,NW,305,0.0,0.0,71,0.00,,---,0.00,VWS V14.01,2013-11-09 05:51:00,
2013-11-09 00:52:00,43.0,34.6,29.98,NW,305,0.0,0.0,72,0.00,,---,0.00,VWS V14.01,2013-11-09 05:52:00,
2013-11-09 00:53:00,43.0,34.6,29.98,NW,305,0.0,0.0,72,0.00,,---,0.00,VWS V14.01,2013-11-09 05:53:00,
2013-11-09 00:54:00,43.1,34.3,29.98,NW,305,0.0,1.0,71,0.00,,---,0.00,VWS V14.01,2013-11-09 05:54:00,
2013-11-09 00:55:00,43.1,34.3,29.98,NW,305,0.0,1.0,71,0.00,,---,0.00,VWS V14.01,2013-11-09 05:55:00,
2013-11-09 00:56:00,43.1,34.7,29.98,NW,305,0.0,0.0,72,0.00,,---,0.00,VWS V14.01,2013-11-09 05:56:00,
2013-11-09 00:57:00,43.1,34.7,29.98,NW,305,0.0,0.0,72,0.00,,---,0.00,VWS V14.01,2013-11-09 05:57:00,
2013-11-09 00:58:00,43.1,34.7,29.98,NW,305,0.0,1.0,72,0.00,,---,0.00,VWS V14.01,2013-11-09 05:58:00,
2013-11-09 00:59:00,43.1,34.3,29.98,NW,305,0.0,1.0,71,0.00,,---,0.00,VWS V14.01,2013-11-09 05:59:00,
2013-11-09 01:00:00,43.1,34.7,29.97,NW,305,0.0,1.0,72,0.00,,---,0.00,VWS V14.01,2013-11-09 06:00:00,
2013-11-09 01:01:00,43.1,34.7,29.97,NW,305,0.0,0.0,72,0.00,,---,0.00,VWS V14.01,2013-11-09 06:01:00,
2013-11-09 01:02:00,43.1,34.7,29.97,NW,305,0.0,0.0,72,0.00,,---,0.00,VWS V14.01,2013-11-09 06:02:00,
2013-11-09 01:03:00,43.2,34.5,29.97,NW,305,0.0,0.0,71,0.00,,---,0.00,VWS V14.01,2013-11-09 06:03:00,
2013-11-09 01:04:00,43.2,34.5,29.97,ENE,58,0.0,3.0,71,0.00,,---,0.00,VWS V14.01,2013-11-09 06:04:00,
2013-11-09 01:05:00,43.2,34.5,29.97,ENE,59,0.0,3.0,71,0.00,,---,0.00,VWS V14.01,2013-11-09 06:05:00,
2013-11-09 01:06:00,43.2,34.5,29.97,ENE,59,0.0,0.0,71,0.00,,---,0.00,VWS V14.01,2013-11-09 06:06:00,
2013-11-09 01:07:00,43.2,34.5,29.97,ENE,59,0.0,0.0,71,0.00,,---,0.00,VWS V14.01,2013-11-09 06:07:00,
2013-11-09 01:08:00,43.2,34.5,29.97,ENE,78,0.0,3.0,71,0.00,,---,0.00,VWS V14.01,2013-11-09 06:08:00,
2013-11-09 01:09:00,43.2,34.5,29.97,East,79,0.0,3.0,71,0.00,,---,0.00,VWS V14.01,2013-11-09 06:09:00,
2013-11-09 01:10:00,43.2,34.5,29.97,East,79,0.0,3.0,71,0.00,,---,0.00,VWS V14.01,2013-11-09 06:10:00,
2013-11-09 01:11:00,43.3,34.2,29.97,East,79,0.0,0.0,70,0.00,,---,0.00,VWS V14.01,2013-11-09 06:11:00,
2013-11-09 01:12:00,43.3,34.2,29.97,East,79,0.0,0.0,70,0.00,,---,0.00,VWS V14.01,2013-11-09 06:12:00,
2013-11-09 01:13:00,43.3,34.2,29.97,East,79,0.0,0.0,70,0.00,,---,0.00,VWS V14.01,2013-11-09 06:13:00,
2013-11-09 01:14:00,43.3,34.2,29.97,East,79,0.0,0.0,70,0.00,,---,0.00,VWS V14.01,2013-11-09 06:14:00,
2013-11-09 01:15:00,43.3,34.2,29.96,East,79,0.0,0.0,70,0.00,,---,0.00,VWS V14.01,2013-11-09 06:15:00,
2013-11-09 01:16:00,43.3,34.5,29.96,NNE,15,0.0,2.0,71,0.00,,---,0.00,VWS V14.01,2013-11-09 06:16:00,
2013-11-09 01:17:00,43.3,34.2,29.96,NNE,15,0.0,2.0,70,0.00,,---,0.00,VWS V14.01,2013-11-09 06:17:00,
2013-11-09 01:18:00,43.3,34.2,29.96,NNE,15,0.0,2.0,70,0.00,,---,0.00,VWS V14.01,2013-11-09 06:18:00,
2013-11-09 01:19:00,43.3,34.5,29.96,NNE,15,0.0,2.0,71,0.00,,---,0.00,VWS V14.01,2013-11-09 06:19:00,
2013-11-09 01:20:00,43.3,34.2,29.96,NNE,15,0.0,2.0,70,0.00,,---,0.00,VWS V14.01,2013-11-09 06:20:00,
2013-11-09 01:21:00,43.3,34.2,29.96,NNE,16,0.0,0.0,70,0.00,,---,0.00,VWS V14.01,2013-11-09 06:21:00,
2013-11-09 01:22:00,43.3,34.2,29.96,NNE,16,0.0,0.0,70,0.00,,---,0.00,VWS V14.01,2013-11-09 06:22:00,
2013-11-09 01:23:00,43.3,34.2,29.96,NNE,16,0.0,0.0,70,0.00,,---,0.00,VWS V14.01,2013-11-09 06:23:00,
2013-11-09 01:24:00,43.3,34.2,29.96,NNE,16,0.0,0.0,70,0.00,,---,0.00,VWS V14.01,2013-11-09 06:24:00,
2013-11-09 01:25:00,43.3,34.2,29.96,NNE,16,0.0,0.0,70,0.00,,---,0.00,VWS V14.01,2013-11-09 06:25:00,
2013-11-09 01:26:00,43.3,34.2,29.96,NNE,13,2.0,2.0,70,0.00,,---,0.00,VWS V14.01,2013-11-09 06:26:00,
2013-11-09 01:27:00,43.4,34.3,29.96,NNE,13,0.0,2.0,70,0.00,,---,0.00,VWS V14.01,2013-11-09 06:27:00,
2013-11-09 01:28:00,43.4,34.3,29.96,NNE,13,0.0,2.0,70,0.00,,---,0.00,VWS V14.01,2013-11-09 06:28:00,
2013-11-09 01:29:00,43.4,34.3,29.96,NNE,13,0.0,2.0,70,0.00,,---,0.00,VWS V14.01,2013-11-09 06:29:00,
2013-11-09 01:30:00,43.4,34.3,29.95,NNE,13,0.0,2.0,70,0.00,,---,0.00,VWS V14.01,2013-11-09 06:30:00,
2013-11-09 01:31:00,43.4,34.3,29.95,ENE,77,0.0,0.0,70,0.00,,---,0.00,VWS V14.01,2013-11-09 06:31:00,
2013-11-09 01:32:00,43.4,34.3,29.95,ENE,77,0.0,0.0,70,0.00,,---,0.00,VWS V14.01,2013-11-09 06:32:00,
2013-11-09 01:33:00,43.4,34.3,29.95,NNE,17,2.0,2.0,70,0.00,,---,0.00,VWS V14.01,2013-11-09 06:33:00,
2013-11-09 01:34:00,43.4,34.3,29.95,NNE,17,0.0,2.0,70,0.00,,---,0.00,VWS V14.01,2013-11-09 06:34:00,
2013-11-09 01:35:00,43.5,34.4,29.95,NNE,17,0.0,2.0,70,0.00,,---,0.00,VWS V14.01,2013-11-09 06:35:00,
2013-11-09 01:36:00,43.5,34.4,29.95,NNE,17,0.0,1.0,70,0.00,,---,0.00,VWS V14.01,2013-11-09 06:36:00,
2013-11-09 01:37:00,43.5,34.4,29.95,NNE,17,0.0,1.0,70,0.00,,---,0.00,VWS V14.01,2013-11-09 06:37:00,
2013-11-09 01:38:00,43.5,34.4,29.95,NNE,17,0.0,1.0,70,0.00,,---,0.00,VWS V14.01,2013-11-09 06:38:00,
2013-11-09 01:39:00,43.5,34.4,29.95,NNE,17,0.0,1.0,70,0.00,,---,0.00,VWS V14.01,2013-11-09 06:39:00,
2013-11-09 01:40:00,43.5,34.0,29.95,NNE,17,0.0,1.0,69,0.00,,---,0.00,VWS V14.01,2013-11-09 06:40:00,
2013-11-09 01:41:00,43.5,34.0,29.95,NNE,17,0.0,0.0,69,0.00,,---,0.00,VWS V14.01,2013-11-09 06:41:00,
2013-11-09 01:42:00,43.5,34.0,29.95,NNE,17,0.0,0.0,69,0.00,,---,0.00,VWS V14.01,2013-11-09 06:42:00,
2013-11-09 01:43:00,43.5,34.4,29.95,North,0,0.0,0.0,70,0.00,,---,0.00,VWS V14.01,2013-11-09 06:43:00,
2013-11-09 01:44:00,43.5,34.0,29.95,North,0,0.0,0.0,69,0.00,,---,0.00,VWS V14.01,2013-11-09 06:44:00,
2013-11-09 01:45:00,43.6,34.1,29.95,North,0,0.0,0.0,69,0.00,,---,0.00,VWS V14.01,2013-11-09 06:45:00,
2013-11-09 01:46:00,43.6,34.5,29.95,ENE,60,0.0,1.0,70,0.00,,---,0.00,VWS V14.01,2013-11-09 06:46:00,
2013-11-09 01:47:00,43.6,34.5,29.95,ENE,60,0.0,1.0,70,0.00,,---,0.00,VWS V14.01,2013-11-09 06:47:00,
2013-11-09 01:48:00,43.6,34.1,29.95,ENE,63,1.0,1.0,69,0.00,,---,0.00,VWS V14.01,2013-11-09 06:48:00,
2013-11-09 01:49:00,43.6,34.1,29.95,ENE,63,0.0,1.0,69,0.00,,---,0.00,VWS V14.01,2013-11-09 06:49:00,
2013-11-09 01:50:00,43.6,34.1,29.95,ENE,63,0.0,1.0,69,0.00,,---,0.00,VWS V14.01,2013-11-09 06:50:00,
2013-11-09 01:51:00,43.6,34.1,29.95,ENE,63,0.0,0.0,69,0.00,,---,0.00,VWS V14.01,2013-11-09 06:51:00,
2013-11-09 01:52:00,43.6,34.1,29.95,ENE,63,0.0,0.0,69,0.00,,---,0.00,VWS V14.01,2013-11-09 06:52:00,
2013-11-09 01:53:00,43.7,34.2,29.95,ENE,63,0.0,0.0,69,0.00,,---,0.00,VWS V14.01,2013-11-09 06:53:00,
2013-11-09 01:54:00,43.7,34.2,29.95,ENE,63,0.0,0.0,69,0.00,,---,0.00,VWS V14.01,2013-11-09 06:54:00,
2013-11-09 01:55:00,43.7,34.2,29.95,NE,34,0.0,0.0,69,0.00,,---,0.00,VWS V14.01,2013-11-09 06:55:00,
2013-11-09 01:56:00,43.7,34.2,29.95,NE,53,0.0,0.0,69,0.00,,---,0.00,VWS V14.01,2013-11-09 06:56:00,
2013-11-09 01:57:00,43.7,34.2,29.95,NE,44,0.0,2.0,69,0.00,,---,0.00,VWS V14.01,2013-11-09 06:57:00,
2013-11-09 01:58:00,43.7,34.2,29.95,NE,44,0.0,2.0,69,0.00,,---,0.00,VWS V14.01,2013-11-09 06:58:00,
2013-11-09 01:59:00,43.7,34.2,29.95,NE,44,0.0,2.0,69,0.00,,---,0.00,VWS V14.01,2013-11-09 06:59:00,
2013-11-09 02:00:00,43.7,34.2,29.94,SE,133,1.0,6.0,69,0.00,,---,0.00,VWS V14.01,2013-11-09 07:00:00,
2013-11-09 02:01:00,43.7,33.8,29.94,SE,146,0.0,2.0,68,0.00,,---,0.00,VWS V14.01,2013-11-09 07:01:00,
2013-11-09 02:02:00,43.7,33.8,29.94,SE,146,0.0,2.0,68,0.00,,---,0.00,VWS V14.01,2013-11-09 07:02:00,
2013-11-09 02:03:00,43.7,33.8,29.94,SE,146,0.0,2.0,68,0.00,,---,0.00,VWS V14.01,2013-11-09 07:03:00,
2013-11-09 02:04:00,43.8,33.9,29.94,SSE,152,0.0,2.0,68,0.00,,---,0.00,VWS V14.01,2013-11-09 07:04:00,
2013-11-09 02:05:00,43.8,33.9,29.94,SSE,152,0.0,2.0,68,0.00,,---,0.00,VWS V14.01,2013-11-09 07:05:00,
2013-11-09 02:06:00,43.8,33.9,29.94,SSE,152,0.0,0.0,68,0.00,,---,0.00,VWS V14.01,2013-11-09 07:06:00,
2013-11-09 02:07:00,43.8,33.9,29.94,SSE,152,0.0,0.0,68,0.00,,---,0.00,VWS V14.01,2013-11-09 07:07:00,
2013-11-09 02:08:00,43.8,33.9,29.94,SW,225,0.0,2.0,68,0.00,,---,0.00,VWS V14.01,2013-11-09 07:08:00,
2013-11-09 02:09:00,43.8,33.9,29.94,SW,225,0.0,2.0,68,0.00,,---,0.00,VWS V14.01,2013-11-09 07:09:00,
2013-11-09 02:10:00,43.8,33.9,29.94,SSW,203,1.0,2.0,68,0.00,,---,0.00,VWS V14.01,2013-11-09 07:10:00,
2013-11-09 02:11:00,43.8,33.9,29.94,South,184,0.0,1.0,68,0.00,,---,0.00,VWS V14.01,2013-11-09 07:11:00,
2013-11-09 02:12:00,43.8,33.9,29.94,SW,214,0.0,1.0,68,0.00,,---,0.00,VWS V14.01,2013-11-09 07:12:00,
2013-11-09 02:13:00,43.8,33.6,29.94,SW,214,0.0,1.0,67,0.00,,---,0.00,VWS V14.01,2013-11-09 07:13:00,
2013-11-09 02:14:00,43.8,33.6,29.94,WNW,287,0.0,1.0,67,0.00,,---,0.00,VWS V14.01,2013-11-09 07:14:00,
2013-11-09 02:15:00,43.9,34.0,29.94,WSW,245,0.0,1.0,68,0.00,,---,0.00,VWS V14.01,2013-11-09 07:15:00,
2013-11-09 02:16:00,43.9,34.0,29.94,WSW,245,0.0,0.0,68,0.00,,---,0.00,VWS V14.01,2013-11-09 07:16:00,
2013-11-09 02:17:00,43.9,34.0,29.94,WSW,245,0.0,0.0,68,0.00,,---,0.00,VWS V14.01,2013-11-09 07:17:00,
2013-11-09 02:18:00,43.9,34.4,29.94,NW,310,0.0,2.0,69,0.00,,---,0.00,VWS V14.01,2013-11-09 07:18:00,
2013-11-09 02:19:00,43.9,34.4,29.94,NW,310,0.0,2.0,69,0.00,,---,0.00,VWS V14.01,2013-11-09 07:19:00,
2013-11-09 02:20:00,43.9,34.4,29.94,NW,310,0.0,2.0,69,0.00,,---,0.00,VWS V14.01,2013-11-09 07:20:00,
2013-11-09 02:21:00,43.9,34.4,29.94,NW,310,0.0,0.0,69,0.00,,---,0.00,VWS V14.01,2013-11-09 07:21:00,
2013-11-09 02:22:00,43.9,34.4,29.94,NW,310,0.0,0.0,69,0.00,,---,0.00,VWS V14.01,2013-11-09 07:22:00,
2013-11-09 02:23:00,43.9,34.0,29.94,NW,310,0.0,0.0,68,0.00,,---,0.00,VWS V14.01,2013-11-09 07:23:00,
2013-11-09 02:24:00,43.9,34.0,29.94,NW,310,0.0,0.0,68,0.00,,---,0.00,VWS V14.01,2013-11-09 07:24:00,
2013-11-09 02:25:00,43.9,34.0,29.94,NW,310,0.0,0.0,68,0.00,,---,0.00,VWS V14.01,2013-11-09 07:25:00,
2013-11-09 02:26:00,43.9,34.4,29.94,NW,310,0.0,0.0,69,0.00,,---,0.00,VWS V14.01,2013-11-09 07:26:00,
2013-11-09 02:27:00,43.9,34.4,29.94,NW,310,0.0,0.0,69,0.00,,---,0.00,VWS V14.01,2013-11-09 07:27:00,
2013-11-09 02:28:00,43.9,34.0,29.94,WSW,244,1.0,1.0,68,0.00,,---,0.00,VWS V14.01,2013-11-09 07:28:00,
2013-11-09 02:29:00,43.9,34.0,29.94,WSW,244,0.0,1.0,68,0.00,,---,0.00,VWS V14.01,2013-11-09 07:29:00,
2013-11-09 02:30:00,43.9,34.0,29.92,WSW,244,0.0,1.0,68,0.00,,---,0.00,VWS V14.01,2013-11-09 07:30:00,
2013-11-09 02:31:00,43.9,34.0,29.92,WSW,245,0.0,0.0,68,0.00,,---,0.00,VWS V14.01,2013-11-09 07:31:00,
2013-11-09 02:32:00,43.9,34.4,29.92,West,272,0.0,0.0,69,0.00,,---,0.00,VWS V14.01,2013-11-09 07:32:00,
2013-11-09 02:33:00,43.9,34.4,29.92,NE,51,0.0,1.0,69,0.00,,---,0.00,VWS V14.01,2013-11-09 07:33:00,
2013-11-09 02:34:00,43.9,34.0,29.92,NE,46,0.0,1.0,68,0.00,,---,0.00,VWS V14.01,2013-11-09 07:34:00,
2013-11-09 02:35:00,43.9,34.4,29.92,NE,46,0.0,1.0,69,0.00,,---,0.00,VWS V14.01,2013-11-09 07:35:00,
2013-11-09 02:36:00,43.9,34.4,29.92,NE,47,0.0,0.0,69,0.00,,---,0.00,VWS V14.01,2013-11-09 07:36:00,
2013-11-09 02:37:00,43.9,34.0,29.92,NE,47,0.0,0.0,68,0.00,,---,0.00,VWS V14.01,2013-11-09 07:37:00,
2013-11-09 02:38:00,43.9,34.0,29.92,NE,47,0.0,1.0,68,0.00,,---,0.00,VWS V14.01,2013-11-09 07:38:00,
2013-11-09 02:39:00,43.9,34.0,29.92,NE,47,0.0,1.0,68,0.00,,---,0.00,VWS V14.01,2013-11-09 07:39:00,
2013-11-09 02:40:00,43.9,34.4,29.92,NE,48,0.0,1.0,69,0.00,,---,0.00,VWS V14.01,2013-11-09 07:40:00,
2013-11-09 02:41:00,43.8,34.3,29.92,NE,48,0.0,0.0,69,0.00,,---,0.00,VWS V14.01,2013-11-09 07:41:00,
2013-11-09 02:42:00,43.8,34.3,29.92,NE,48,0.0,0.0,69,0.00,,---,0.00,VWS V14.01,2013-11-09 07:42:00,
2013-11-09 02:43:00,43.8,34.3,29.92,NE,48,0.0,0.0,69,0.00,,---,0.00,VWS V14.01,2013-11-09 07:43:00,
2013-11-09 02:44:00,43.9,34.4,29.92,NE,42,0.0,1.0,69,0.00,,---,0.00,VWS V14.01,2013-11-09 07:44:00,
2013-11-09 02:45:00,43.9,34.0,29.91,SE,139,1.0,2.0,68,0.00,,---,0.00,VWS V14.01,2013-11-09 07:45:00,
2013-11-09 02:46:00,43.8,33.9,29.91,SE,140,0.0,1.0,68,0.00,,---,0.00,VWS V14.01,2013-11-09 07:46:00,
2013-11-09 02:47:00,43.8,33.9,29.91,SE,140,0.0,1.0,68,0.00,,---,0.00,VWS V14.01,2013-11-09 07:47:00,
2013-11-09 02:48:00,43.8,33.9,29.91,SE,140,0.0,1.0,68,0.00,,---,0.00,VWS V14.01,2013-11-09 07:48:00,
2013-11-09 02:49:00,43.8,33.9,29.91,SE,140,0.0,1.0,68,0.00,,---,0.00,VWS V14.01,2013-11-09 07:49:00,
2013-11-09 02:50:00,43.8,33.9,29.91,SE,140,0.0,1.0,68,0.00,,---,0.00,VWS V14.01,2013-11-09 07:50:00,
2013-11-09 02:51:00,43.8,33.9,29.91,East,93,0.0,1.0,68,0.00,,---,0.00,VWS V14.01,2013-11-09 07:51:00,
2013-11-09 02:52:00,43.8,34.3,29.91,East,98,0.0,1.0,69,0.00,,---,0.00,VWS V14.01,2013-11-09 07:52:00,
2013-11-09 02:53:00,43.8,33.9,29.91,East,98,0.0,1.0,68,0.00,,---,0.00,VWS V14.01,2013-11-09 07:53:00,
2013-11-09 02:54:00,43.8,33.9,29.91,East,98,0.0,1.0,68,0.00,,---,0.00,VWS V14.01,2013-11-09 07:54:00,
2013-11-09 02:55:00,43.8,34.3,29.91,East,94,0.0,1.0,69,0.00,,---,0.00,VWS V14.01,2013-11-09 07:55:00,
2013-11-09 02:56:00,43.8,34.3,29.91,East,94,0.0,0.0,69,0.00,,---,0.00,VWS V14.01,2013-11-09 07:56:00,
2013-11-09 02:57:00,43.8,33.9,29.91,East,94,0.0,0.0,68,0.00,,---,0.00,VWS V14.01,2013-11-09 07:57:00,
2013-11-09 02:58:00,43.8,33.9,29.91,WNW,291,1.0,1.0,68,0.00,,---,0.00,VWS V14.01,2013-11-09 07:58:00,
2013-11-09 02:59:00,43.8,33.9,29.91,WNW,291,0.0,1.0,68,0.00,,---,0.00,VWS V14.01,2013-11-09 07:59:00,
2013-11-09 03:00:00,43.8,33.9,29.91,WNW,291,0.0,1.0,68,0.00,,---,0.00,VWS V14.01,2013-11-09 08:00:00,
2013-11-09 03:01:00,43.8,33.9,29.91,WNW,291,0.0,0.0,68,0.00,,---,0.00,VWS V14.01,2013-11-09 08:01:00,
2013-11-09 03:02:00,43.8,33.9,29.91,WNW,291,0.0,0.0,68,0.00,,---,0.00,VWS V14.01,2013-11-09 08:02:00,
2013-11-09 03:03:00,43.7,33.8,29.91,WNW,291,0.0,0.0,68,0.00,,---,0.00,VWS V14.01,2013-11-09 08:03:00,
2013-11-09 03:04:00,43.7,33.8,29.91,WNW,291,0.0,0.0,68,0.00,,---,0.00,VWS V14.01,2013-11-09 08:04:00,
2013-11-09 03:05:00,43.7,34.2,29.91,SW,229,0.0,1.0,69,0.00,,---,0.00,VWS V14.01,2013-11-09 08:05:00,
2013-11-09 03:06:00,43.7,33.8,29.91,SSW,200,0.0,1.0,68,0.00,,---,0.00,VWS V14.01,2013-11-09 08:06:00,
2013-11-09 03:07:00,43.7,33.8,29.91,SSW,200,0.0,1.0,68,0.00,,---,0.00,VWS V14.01,2013-11-09 08:07:00,
2013-11-09 03:08:00,43.7,34.2,29.91,SSW,200,0.0,1.0,69,0.00,,---,0.00,VWS V14.01,2013-11-09 08:08:00,
2013-11-09 03:09:00,43.7,34.2,29.91,WNW,288,0.0,1.0,69,0.00,,---,0.00,VWS V14.01,2013-11-09 08:09:00,
2013-11-09 03:10:00,43.7,34.2,29.91,ENE,63,0.0,4.0,69,0.00,,---,0.00,VWS V14.01,2013-11-09 08:10:00,
2013-11-09 03:11:00,43.7,33.8,29.91,ENE,63,0.0,0.0,68,0.00,,---,0.00,VWS V14.01,2013-11-09 08:11:00,
2013-11-09 03:12:00,43.7,33.8,29.91,ENE,72,0.0,0.0,68,0.00,,---,0.00,VWS V14.01,2013-11-09 08:12:00,
2013-11-09 03:13:00,43.7,33.8,29.91,ENE,72,0.0,0.0,68,0.00,,---,0.00,VWS V14.01,2013-11-09 08:13:00,
2013-11-09 03:14:00,43.7,34.2,29.91,ENE,77,1.0,1.0,69,0.00,,---,0.00,VWS V14.01,2013-11-09 08:14:00,
2013-11-09 03:15:00,43.7,33.8,29.89,East,81,0.0,1.0,68,0.00,,---,0.00,VWS V14.01,2013-11-09 08:15:00,
2013-11-09 03:16:00,43.7,33.8,29.89,East,81,0.0,0.0,68,0.00,,---,0.00,VWS V14.01,2013-11-09 08:16:00,
2013-11-09 03:17:00,43.7,33.8,29.89,SE,143,0.0,0.0,68,0.00,,---,0.00,VWS V14.01,2013-11-09 08:17:00,
2013-11-09 03:18:00,43.7,33.8,29.89,SSE,167,0.0,4.0,68,0.00,,---,0.00,VWS V14.01,2013-11-09 08:18:00,
2013-11-09 03:19:00,43.7,33.8,29.89,North,354,0.0,4.0,68,0.00,,---,0.00,VWS V14.01,2013-11-09 08:19:00,
2013-11-09 03:20:00,43.7,33.8,29.89,North,354,0.0,4.0,68,0.00,,---,0.00,VWS V14.01,2013-11-09 08:20:00,
2013-11-09 03:21:00,43.7,34.2,29.89,North,350,0.0,0.0,69,0.00,,---,0.00,VWS V14.01,2013-11-09 08:21:00,
2013-11-09 03:22:00,43.7,33.8,29.89,North,352,0.0,0.0,68,0.00,,---,0.00,VWS V14.01,2013-11-09 08:22:00,
2013-11-09 03:23:00,43.7,34.2,29.89,North,352,0.0,0.0,69,0.00,,---,0.00,VWS V14.01,2013-11-09 08:23:00,
2013-11-09 03:24:00,43.7,34.2,29.89,ESE,111,0.0,2.0,69,0.00,,---,0.00,VWS V14.01,2013-11-09 08:24:00,
2013-11-09 03:25:00,43.7,34.2,29.89,ESE,110,0.0,2.0,69,0.00,,---,0.00,VWS V14.01,2013-11-09 08:25:00,
2013-11-09 03:26:00,43.8,34.3,29.89,ESE,110,0.0,0.0,69,0.00,,---,0.00,VWS V14.01,2013-11-09 08:26:00,
2013-11-09 03:27:00,43.8,34.3,29.89,ESE,105,0.0,0.0,69,0.00,,---,0.00,VWS V14.01,2013-11-09 08:27:00,
2013-11-09 03:28:00,43.7,34.2,29.89,ESE,105,0.0,0.0,69,0.00,,---,0.00,VWS V14.01,2013-11-09 08:28:00,
2013-11-09 03:29:00,43.7,34.2,29.89,ESE,105,0.0,0.0,69,0.00,,---,0.00,VWS V14.01,2013-11-09 08:29:00,
2013-11-09 03:30:00,43.7,34.2,29.89,ESE,105,0.0,0.0,69,0.00,,---,0.00,VWS V14.01,2013-11-09 08:30:00,
2013-11-09 03:31:00,43.7,34.2,29.89,ESE,105,0.0,0.0,69,0.00,,---,0.00,VWS V14.01,2013-11-09 08:31:00,
2013-11-09 03:32:00,43.7,34.2,29.89,ESE,105,0.0,0.0,69,0.00,,---,0.00,VWS V14.01,2013-11-09 08:32:00,
2013-11-09 03:33:00,43.7,34.2,29.89,ESE,105,0.0,0.0,69,0.00,,---,0.00,VWS V14.01,2013-11-09 08:33:00,
2013-11-09 03:34:00,43.7,34.2,29.89,ESE,105,0.0,0.0,69,0.00,,---,0.00,VWS V14.01,2013-11-09 08:34:00,
2013-11-09 03:35:00,43.7,34.2,29.89,ESE,105,0.0,0.0,69,0.00,,---,0.00,VWS V14.01,2013-11-09 08:35:00,
2013-11-09 03:36:00,43.8,34.3,29.89,ESE,105,0.0,1.0,69,0.00,,---,0.00,VWS V14.01,2013-11-09 08:36:00,
2013-11-09 03:37:00,43.8,34.3,29.89,East,88,1.0,1.0,69,0.00,,---,0.00,VWS V14.01,2013-11-09 08:37:00,
2013-11-09 03:38:00,43.7,34.2,29.89,ENE,70,0.0,1.0,69,0.00,,---,0.00,VWS V14.01,2013-11-09 08:38:00,
2013-11-09 03:39:00,43.7,34.2,29.89,ENE,70,0.0,1.0,69,0.00,,---,0.00,VWS V14.01,2013-11-09 08:39:00,
2013-11-09 03:40:00,43.7,34.2,29.89,ENE,70,0.0,1.0,69,0.00,,---,0.00,VWS V14.01,2013-11-09 08:40:00,
2013-11-09 03:41:00,43.7,34.2,29.89,ENE,70,0.0,0.0,69,0.00,,---,0.00,VWS V14.01,2013-11-09 08:41:00,
2013-11-09 03:42:00,43.7,34.2,29.89,ENE,70,0.0,1.0,69,0.00,,---,0.00,VWS V14.01,2013-11-09 08:42:00,
2013-11-09 03:43:00,43.7,34.2,29.89,ENE,71,0.0,1.0,69,0.00,,---,0.00,VWS V14.01,2013-11-09 08:43:00,
2013-11-09 03:44:00,43.7,34.2,29.89,ENE,69,0.0,1.0,69,0.00,,---,0.00,VWS V14.01,2013-11-09 08:44:00,
2013-11-09 03:45:00,43.7,34.2,29.88,ENE,69,0.0,1.0,69,0.00,,---,0.00,VWS V14.01,2013-11-09 08:45:00,
2013-11-09 03:46:00,43.7,34.2,29.88,ENE,69,0.0,0.0,69,0.00,,---,0.00,VWS V14.01,2013-11-09 08:46:00,
2013-11-09 03:47:00,43.7,34.2,29.88,ESE,117,0.0,2.0,69,0.00,,---,0.00,VWS V14.01,2013-11-09 08:47:00,
2013-11-09 03:48:00,43.8,34.3,29.88,ESE,117,0.0,2.0,69,0.00,,---,0.00,VWS V14.01,2013-11-09 08:48:00,
2013-11-09 03:49:00,43.7,34.2,29.88,ESE,117,0.0,2.0,69,0.00,,---,0.00,VWS V14.01,2013-11-09 08:49:00,
2013-11-09 03:50:00,43.8,33.9,29.88,ESE,117,0.0,2.0,68,0.00,,---,0.00,VWS V14.01,2013-11-09 08:50:00,
2013-11-09 03:51:00,43.7,34.2,29.88,ESE,117,0.0,0.0,69,0.00,,---,0.00,VWS V14.01,2013-11-09 08:51:00,
2013-11-09 03:52:00,43.7,34.2,29.88,ESE,117,0.0,0.0,69,0.00,,---,0.00,VWS V14.01,2013-11-09 08:52:00,
2013-11-09 03:53:00,43.7,34.2,29.88,ESE,117,0.0,0.0,69,0.00,,---,0.00,VWS V14.01,2013-11-09 08:53:00,
2013-11-09 03:54:00,43.7,34.2,29.88,ESE,117,0.0,0.0,69,0.00,,---,0.00,VWS V14.01,2013-11-09 08:54:00,
2013-11-09 03:55:00,43.7,34.2,29.88,ESE,117,0.0,0.0,69,0.00,,---,0.00,VWS V14.01,2013-11-09 08:55:00,
2013-11-09 03:56:00,43.8,34.3,29.88,ESE,117,0.0,0.0,69,0.00,,---,0.00,VWS V14.01,2013-11-09 08:56:00,
2013-11-09 03:57:00,43.8,34.3,29.88,ESE,117,0.0,0.0,69,0.00,,---,0.00,VWS V14.01,2013-11-09 08:57:00,
2013-11-09 03:58:00,43.7,34.2,29.88,ESE,117,0.0,0.0,69,0.00,,---,0.00,VWS V14.01,2013-11-09 08:58:00,
2013-11-09 03:59:00,43.7,34.2,29.88,ESE,117,0.0,0.0,69,0.00,,---,0.00,VWS V14.01,2013-11-09 08:59:00,
2013-11-09 04:00:00,43.7,34.2,29.88,ESE,123,0.0,1.0,69,0.00,,---,0.00,VWS V14.01,2013-11-09 09:00:00,
2013-11-09 04:01:00,43.7,34.2,29.88,ESE,123,0.0,0.0,69,0.00,,---,0.00,VWS V14.01,2013-11-09 09:01:00,
2013-11-09 04:02:00,43.7,34.2,29.88,ESE,123,0.0,0.0,69,0.00,,---,0.00,VWS V14.01,2013-11-09 09:02:00,
2013-11-09 04:03:00,43.7,34.2,29.88,ESE,123,0.0,0.0,69,0.00,,---,0.00,VWS V14.01,2013-11-09 09:03:00,
2013-11-09 04:04:00,43.8,34.3,29.88,ESE,123,0.0,0.0,69,0.00,,---,0.00,VWS V14.01,2013-11-09 09:04:00,
2013-11-09 04:05:00,43.8,34.3,29.88,ESE,123,0.0,0.0,69,0.00,,---,0.00,VWS V14.01,2013-11-09 09:05:00,
2013-11-09 04:06:00,43.8,33.9,29.88,ESE,123,0.0,1.0,68,0.00,,---,0.00,VWS V14.01,2013-11-09 09:06:00,
2013-11-09 04:07:00,43.8,34.3,29.88,SE,124,0.0,1.0,69,0.00,,---,0.00,VWS V14.01,2013-11-09 09:07:00,
2013-11-09 04:08:00,43.8,34.3,29.88,ESE,123,0.0,1.0,69,0.00,,---,0.00,VWS V14.01,2013-11-09 09:08:00,
2013-11-09 04:09:00,43.8,34.3,29.88,ESE,113,0.0,1.0,69,0.00,,---,0.00,VWS V14.01,2013-11-09 09:09:00,
2013-11-09 04:10:00,43.8,33.9,29.88,ESE,114,0.0,1.0,68,0.00,,---,0.00,VWS V14.01,2013-11-09 09:10:00,
2013-11-09 04:11:00,43.8,33.9,29.88,ESE,114,0.0,1.0,68,0.00,,---,0.00,VWS V14.01,2013-11-09 09:11:00,
2013-11-09 04:12:00,43.8,33.9,29.88,ESE,114,0.0,1.0,68,0.00,,---,0.00,VWS V14.01,2013-11-09 09:12:00,
2013-11-09 04:13:00,43.8,33.9,29.88,ESE,114,0.0,1.0,68,0.00,,---,0.00,VWS V14.01,2013-11-09 09:13:00,
2013-11-09 04:14:00,43.8,33.9,29.88,SE,127,0.0,1.0,68,0.00,,---,0.00,VWS V14.01,2013-11-09 09:14:00,
2013-11-09 04:15:00,43.8,33.9,29.87,East,85,0.0,1.0,68,0.00,,---,0.00,VWS V14.01,2013-11-09 09:15:00,
2013-11-09 04:16:00,43.8,33.6,29.87,East,85,0.0,0.0,67,0.00,,---,0.00,VWS V14.01,2013-11-09 09:16:00,
2013-11-09 04:17:00,43.8,33.9,29.87,East,85,0.0,0.0,68,0.00,,---,0.00,VWS V14.01,2013-11-09 09:17:00,
2013-11-09 04:18:00,43.8,33.9,29.87,East,85,0.0,0.0,68,0.00,,---,0.00,VWS V14.01,2013-11-09 09:18:00,
2013-11-09 04:19:00,43.8,33.9,29.87,SSW,201,0.0,0.0,68,0.00,,---,0.00,VWS V14.01,2013-11-09 09:19:00,
2013-11-09 04:20:00,43.8,33.9,29.87,SSW,205,0.0,0.0,68,0.00,,---,0.00,VWS V14.01,2013-11-09 09:20:00,
2013-11-09 04:21:00,43.8,33.9,29.87,SSW,203,0.0,1.0,68,0.00,,---,0.00,VWS V14.01,2013-11-09 09:21:00,
2013-11-09 04:22:00,43.8,34.3,29.87,SSW,203,0.0,1.0,69,0.00,,---,0.00,VWS V14.01,2013-11-09 09:22:00,
2013-11-09 04:23:00,43.8,33.9,29.87,SSW,208,0.0,1.0,68,0.00,,---,0.00,VWS V14.01,2013-11-09 09:23:00,
2013-11-09 04:24:00,43.8,34.3,29.87,SSW,208,0.0,1.0,69,0.00,,---,0.00,VWS V14.01,2013-11-09 09:24:00,
2013-11-09 04:25:00,43.8,34.3,29.87,SSW,208,1.0,1.0,69,0.00,,---,0.00,VWS V14.01,2013-11-09 09:25:00,
2013-11-09 04:26:00,43.8,34.3,29.87,SSW,208,0.0,0.0,69,0.00,,---,0.00,VWS V14.01,2013-11-09 09:26:00,
2013-11-09 04:27:00,43.8,33.9,29.87,SSW,208,0.0,0.0,68,0.00,,---,0.00,VWS V14.01,2013-11-09 09:27:00,
2013-11-09 04:28:00,43.8,34.3,29.87,SSW,208,0.0,0.0,69,0.00,,---,0.00,VWS V14.01,2013-11-09 09:28:00,
2013-11-09 04:29:00,43.8,33.9,29.87,SSW,208,0.0,0.0,68,0.00,,---,0.00,VWS V14.01,2013-11-09 09:29:00,
2013-11-09 04:30:00,43.8,33.9,29.87,SSW,208,0.0,0.0,68,0.00,,---,0.00,VWS V14.01,2013-11-09 09:30:00,
2013-11-09 04:31:00,43.8,33.9,29.87,SSW,208,0.0,1.0,68,0.00,,---,0.00,VWS V14.01,2013-11-09 09:31:00,
2013-11-09 04:32:00,43.7,33.8,29.87,SSW,208,0.0,1.0,68,0.00,,---,0.00,VWS V14.01,2013-11-09 09:32:00,
2013-11-09 04:33:00,43.8,34.3,29.87,SSW,208,0.0,1.0,69,0.00,,---,0.00,VWS V14.01,2013-11-09 09:33:00,
2013-11-09 04:34:00,43.8,34.3,29.87,SSW,205,0.0,1.0,69,0.00,,---,0.00,VWS V14.01,2013-11-09 09:34:00,
2013-11-09 04:35:00,43.7,33.8,29.87,SSW,205,0.0,1.0,68,0.00,,---,0.00,VWS V14.01,2013-11-09 09:35:00,
2013-11-09 04:36:00,43.7,33.8,29.87,South,189,0.0,0.0,68,0.00,,---,0.00,VWS V14.01,2013-11-09 09:36:00,
2013-11-09 04:37:00,43.7,34.2,29.87,South,189,0.0,1.0,69,0.00,,---,0.00,VWS V14.01,2013-11-09 09:37:00,
2013-11-09 04:38:00,43.7,33.8,29.87,South,189,0.0,1.0,68,0.00,,---,0.00,VWS V14.01,2013-11-09 09:38:00,
2013-11-09 04:39:00,43.7,33.8,29.87,South,189,0.0,1.0,68,0.00,,---,0.00,VWS V14.01,2013-11-09 09:39:00,
2013-11-09 04:40:00,43.7,33.8,29.87,South,189,0.0,1.0,68,0.00,,---,0.00,VWS V14.01,2013-11-09 09:40:00,
2013-11-09 04:41:00,43.7,34.2,29.87,South,189,0.0,0.0,69,0.00,,---,0.00,VWS V14.01,2013-11-09 09:41:00,
2013-11-09 04:42:00,43.7,34.2,29.87,NE,34,1.0,4.0,69,0.00,,---,0.00,VWS V14.01,2013-11-09 09:42:00,
2013-11-09 04:43:00,43.7,33.8,29.87,SE,126,0.0,4.0,68,0.00,,---,0.00,VWS V14.01,2013-11-09 09:43:00,
2013-11-09 04:44:00,43.6,33.8,29.87,SE,126,0.0,4.0,68,0.00,,---,0.00,VWS V14.01,2013-11-09 09:44:00,
2013-11-09 04:45:00,43.7,34.2,29.86,SE,126,0.0,4.0,69,0.00,,---,0.00,VWS V14.01,2013-11-09 09:45:00,
2013-11-09 04:46:00,43.7,34.2,29.86,SE,126,0.0,0.0,69,0.00,,---,0.00,VWS V14.01,2013-11-09 09:46:00,
2013-11-09 04:47:00,43.6,34.1,29.86,NE,48,1.0,1.0,69,0.00,,---,0.00,VWS V14.01,2013-11-09 09:47:00,
2013-11-09 04:48:00,43.6,34.1,29.86,NE,41,0.0,1.0,69,0.00,,---,0.00,VWS V14.01,2013-11-09 09:48:00,
2013-11-09 04:49:00,43.6,34.1,29.86,NE,41,0.0,1.0,69,0.00,,---,0.00,VWS V14.01,2013-11-09 09:49:00,
2013-11-09 04:50:00,43.6,34.1,29.86,NE,41,0.0,1.0,69,0.00,,---,0.00,VWS V14.01,2013-11-09 09:50:00,
2013-11-09 04:51:00,43.6,34.1,29.86,NE,41,0.0,0.0,69,0.00,,---,0.00,VWS V14.01,2013-11-09 09:51:00,
2013-11-09 04:52:00,43.6,34.1,29.86,NE,41,0.0,1.0,69,0.00,,---,0.00,VWS V14.01,2013-11-09 09:52:00,
2013-11-09 04:53:00,43.6,34.1,29.86,NE,41,0.0,1.0,69,0.00,,---,0.00,VWS V14.01,2013-11-09 09:53:00,
2013-11-09 04:54:00,43.6,34.5,29.86,NE,41,0.0,1.0,70,0.00,,---,0.00,VWS V14.01,2013-11-09 09:54:00,
2013-11-09 04:55:00,43.6,34.1,29.86,SE,143,0.0,2.0,69,0.00,,---,0.00,VWS V14.01,2013-11-09 09:55:00,
2013-11-09 04:56:00,43.6,34.1,29.86,SE,143,0.0,0.0,69,0.00,,---,0.00,VWS V14.01,2013-11-09 09:56:00,
2013-11-09 04:57:00,43.6,34.1,29.86,SE,143,0.0,1.0,69,0.00,,---,0.00,VWS V14.01,2013-11-09 09:57:00,
2013-11-09 04:58:00,43.6,34.1,29.86,SE,143,0.0,1.0,69,0.00,,---,0.00,VWS V14.01,2013-11-09 09:58:00,
2013-11-09 04:59:00,43.6,34.1,29.86,SE,143,0.0,1.0,69,0.00,,---,0.00,VWS V14.01,2013-11-09 09:59:00,
2013-11-09 05:00:00,43.6,34.1,29.86,SE,143,0.0,1.0,69,0.00,,---,0.00,VWS V14.01,2013-11-09 10:00:00,
2013-11-09 05:01:00,43.6,34.1,29.86,SE,143,1.0,1.0,69,0.00,,---,0.00,VWS V14.01,2013-11-09 10:01:00,
2013-11-09 05:02:00,43.6,34.1,29.86,SE,143,0.0,1.0,69,0.00,,---,0.00,VWS V14.01,2013-11-09 10:02:00,
2013-11-09 05:03:00,43.6,34.1,29.86,SE,143,0.0,1.0,69,0.00,,---,0.00,VWS V14.01,2013-11-09 10:03:00,
2013-11-09 05:04:00,43.6,34.1,29.86,SE,143,0.0,1.0,69,0.00,,---,0.00,VWS V14.01,2013-11-09 10:04:00,
2013-11-09 05:05:00,43.6,34.1,29.86,SE,143,0.0,1.0,69,0.00,,---,0.00,VWS V14.01,2013-11-09 10:05:00,
2013-11-09 05:06:00,43.6,34.1,29.86,ESE,110,0.0,0.0,69,0.00,,---,0.00,VWS V14.01,2013-11-09 10:06:00,
2013-11-09 05:07:00,43.6,34.5,29.86,ESE,110,0.0,0.0,70,0.00,,---,0.00,VWS V14.01,2013-11-09 10:07:00,
2013-11-09 05:08:00,43.6,34.5,29.86,ESE,110,0.0,0.0,70,0.00,,---,0.00,VWS V14.01,2013-11-09 10:08:00,
2013-11-09 05:09:00,43.6,34.5,29.86,ESE,110,0.0,0.0,70,0.00,,---,0.00,VWS V14.01,2013-11-09 10:09:00,
2013-11-09 05:10:00,43.6,34.5,29.86,ESE,110,0.0,0.0,70,0.00,,---,0.00,VWS V14.01,2013-11-09 10:10:00,
2013-11-09 05:11:00,43.6,34.5,29.86,ESE,110,0.0,1.0,70,0.00,,---,0.00,VWS V14.01,2013-11-09 10:11:00,
2013-11-09 05:12:00,43.5,34.4,29.86,ESE,110,0.0,1.0,70,0.00,,---,0.00,VWS V14.01,2013-11-09 10:12:00,
2013-11-09 05:13:00,43.5,34.4,29.86,ESE,110,0.0,1.0,70,0.00,,---,0.00,VWS V14.01,2013-11-09 10:13:00,
2013-11-09 05:14:00,43.5,34.4,29.86,ESE,110,0.0,1.0,70,0.00,,---,0.00,VWS V14.01,2013-11-09 10:14:00,
2013-11-09 05:15:00,43.5,34.4,29.86,ESE,110,0.0,1.0,70,0.00,,---,0.00,VWS V14.01,2013-11-09 10:15:00,
2013-11-09 05:16:00,43.5,34.4,29.86,ESE,109,0.0,0.0,70,0.00,,---,0.00,VWS V14.01,2013-11-09 10:16:00,
2013-11-09 05:17:00,43.5,34.4,29.86,ESE,109,0.0,1.0,70,0.00,,---,0.00,VWS V14.01,2013-11-09 10:17:00,
2013-11-09 05:18:00,43.5,34.4,29.86,ESE,109,0.0,1.0,70,0.00,,---,0.00,VWS V14.01,2013-11-09 10:18:00,
2013-11-09 05:19:00,43.5,34.4,29.86,SE,131,0.0,1.0,70,0.00,,---,0.00,VWS V14.01,2013-11-09 10:19:00,
2013-11-09 05:20:00,43.5,34.4,29.86,SW,226,0.0,1.0,70,0.00,,---,0.00,VWS V14.01,2013-11-09 10:20:00,
2013-11-09 05:21:00,43.4,34.3,29.86,SW,226,0.0,0.0,70,0.00,,---,0.00,VWS V14.01,2013-11-09 10:21:00,
2013-11-09 05:22:00,43.4,34.3,29.86,SW,226,0.0,0.0,70,0.00,,---,0.00,VWS V14.01,2013-11-09 10:22:00,
2013-11-09 05:23:00,43.4,34.3,29.86,SW,226,0.0,0.0,70,0.00,,---,0.00,VWS V14.01,2013-11-09 10:23:00,
2013-11-09 05:24:00,43.4,34.3,29.86,SW,223,0.0,0.0,70,0.00,,---,0.00,VWS V14.01,2013-11-09 10:24:00,
2013-11-09 05:25:00,43.4,34.3,29.86,SW,223,0.0,1.0,70,0.00,,---,0.00,VWS V14.01,2013-11-09 10:25:00,
2013-11-09 05:26:00,43.4,34.3,29.86,SW,223,0.0,0.0,70,0.00,,---,0.00,VWS V14.01,2013-11-09 10:26:00,
2013-11-09 05:27:00,43.4,34.3,29.86,SW,223,0.0,0.0,70,0.00,,---,0.00,VWS V14.01,2013-11-09 10:27:00,
2013-11-09 05:28:00,43.4,34.3,29.86,SW,223,0.0,0.0,70,0.00,,---,0.00,VWS V14.01,2013-11-09 10:28:00,
2013-11-09 05:29:00,43.4,34.6,29.86,SW,223,0.0,0.0,71,0.00,,---,0.00,VWS V14.01,2013-11-09 10:29:00,
2013-11-09 05:30:00,43.4,34.3,29.85,SW,223,0.0,0.0,70,0.00,,---,0.00,VWS V14.01,2013-11-09 10:30:00,
2013-11-09 05:31:00,43.4,34.6,29.85,SW,223,0.0,0.0,71,0.00,,---,0.00,VWS V14.01,2013-11-09 10:31:00,
2013-11-09 05:32:00,43.4,34.6,29.85,SW,222,0.0,1.0,71,0.00,,---,0.00,VWS V14.01,2013-11-09 10:32:00,
2013-11-09 05:33:00,43.4,34.6,29.85,SW,222,0.0,1.0,71,0.00,,---,0.00,VWS V14.01,2013-11-09 10:33:00,
2013-11-09 05:34:00,43.4,34.6,29.85,SW,221,0.0,1.0,71,0.00,,---,0.00,VWS V14.01,2013-11-09 10:34:00,
2013-11-09 05:35:00,43.4,34.6,29.85,SW,221,0.0,1.0,71,0.00,,---,0.00,VWS V14.01,2013-11-09 10:35:00,
2013-11-09 05:36:00,43.4,34.6,29.85,SW,221,0.0,0.0,71,0.00,,---,0.00,VWS V14.01,2013-11-09 10:36:00,
2013-11-09 05:37:00,43.4,34.3,29.85,SW,221,0.0,0.0,70,0.00,,---,0.00,VWS V14.01,2013-11-09 10:37:00,
2013-11-09 05:38:00,43.4,34.3,29.85,SW,221,0.0,0.0,70,0.00,,---,0.00,VWS V14.01,2013-11-09 10:38:00,
2013-11-09 05:39:00,43.4,34.6,29.85,SW,221,0.0,0.0,71,0.00,,---,0.00,VWS V14.01,2013-11-09 10:39:00,
2013-11-09 05:40:00,43.4,34.3,29.85,SW,221,0.0,0.0,70,0.00,,---,0.00,VWS V14.01,2013-11-09 10:40:00,
2013-11-09 05:41:00,43.4,34.6,29.85,SW,221,0.0,0.0,71,0.00,,---,0.00,VWS V14.01,2013-11-09 10:41:00,
2013-11-09 05:42:00,43.4,34.6,29.85,NW,308,0.0,1.0,71,0.00,,---,0.00,VWS V14.01,2013-11-09 10:42:00,
2013-11-09 05:43:00,43.4,34.6,29.85,NW,308,0.0,1.0,71,0.00,,---,0.00,VWS V14.01,2013-11-09 10:43:00,
2013-11-09 05:44:00,43.4,34.6,29.85,NW,308,0.0,1.0,71,0.00,,---,0.00,VWS V14.01,2013-11-09 10:44:00,
2013-11-09 05:45:00,43.4,34.6,29.84,NW,308,0.0,1.0,71,0.00,,---,0.00,VWS V14.01,2013-11-09 10:45:00,
2013-11-09 05:46:00,43.4,34.6,29.84,NNW,342,0.0,1.0,71,0.00,,---,0.00,VWS V14.01,2013-11-09 10:46:00,
2013-11-09 05:47:00,43.4,34.6,29.84,NNW,342,0.0,1.0,71,0.00,,---,0.00,VWS V14.01,2013-11-09 10:47:00,
2013-11-09 05:48:00,43.4,34.6,29.84,NNW,342,0.0,1.0,71,0.00,,---,0.00,VWS V14.01,2013-11-09 10:48:00,
2013-11-09 05:49:00,43.3,34.5,29.84,NNW,342,0.0,1.0,71,0.00,,---,0.00,VWS V14.01,2013-11-09 10:49:00,
2013-11-09 05:50:00,43.4,34.6,29.84,NNW,342,0.0,1.0,71,0.00,,---,0.00,VWS V14.01,2013-11-09 10:50:00,
2013-11-09 05:51:00,43.4,34.6,29.84,NNW,342,0.0,0.0,71,0.00,,---,0.00,VWS V14.01,2013-11-09 10:51:00,
2013-11-09 05:52:00,43.4,34.6,29.84,NNW,342,0.0,0.0,71,0.00,,---,0.00,VWS V14.01,2013-11-09 10:52:00,
2013-11-09 05:53:00,43.4,34.6,29.84,NNW,342,0.0,0.0,71,0.00,,---,0.00,VWS V14.01,2013-11-09 10:53:00,
2013-11-09 05:54:00,43.4,34.6,29.84,NNW,342,0.0,0.0,71,0.00,,---,0.00,VWS V14.01,2013-11-09 10:54:00,
2013-11-09 05:55:00,43.3,34.5,29.84,NNW,342,0.0,0.0,71,0.00,,---,0.00,VWS V14.01,2013-11-09 10:55:00,
2013-11-09 05:56:00,43.3,34.5,29.84,NNW,342,0.0,0.0,71,0.00,,---,0.00,VWS V14.01,2013-11-09 10:56:00,
2013-11-09 05:57:00,43.3,34.5,29.84,NNW,342,0.0,0.0,71,0.00,,---,0.00,VWS V14.01,2013-11-09 10:57:00,
2013-11-09 05:58:00,43.3,34.9,29.84,NNW,342,0.0,0.0,72,0.00,,---,0.00,VWS V14.01,2013-11-09 10:58:00,
2013-11-09 05:59:00,43.3,34.9,29.84,NNW,342,0.0,0.0,72,0.00,,---,0.00,VWS V14.01,2013-11-09 10:59:00,
2013-11-09 06:00:00,43.3,34.9,29.84,NNW,342,0.0,0.0,72,0.00,,---,0.00,VWS V14.01,2013-11-09 11:00:00,
2013-11-09 06:01:00,43.3,34.9,29.84,NNW,342,0.0,0.0,72,0.00,,---,0.00,VWS V14.01,2013-11-09 11:01:00,
2013-11-09 06:02:00,43.3,34.9,29.84,NNW,342,0.0,0.0,72,0.00,,---,0.00,VWS V14.01,2013-11-09 11:02:00,
2013-11-09 06:03:00,43.3,34.9,29.84,NNW,342,0.0,0.0,72,0.00,,---,0.00,VWS V14.01,2013-11-09 11:03:00,
2013-11-09 06:04:00,43.3,34.9,29.84,NNW,342,0.0,0.0,72,0.00,,---,0.00,VWS V14.01,2013-11-09 11:04:00,
2013-11-09 06:05:00,43.3,34.9,29.84,NNW,342,0.0,0.0,72,0.00,,---,0.00,VWS V14.01,2013-11-09 11:05:00,
2013-11-09 06:06:00,43.3,34.9,29.84,NNW,342,0.0,0.0,72,0.00,,---,0.00,VWS V14.01,2013-11-09 11:06:00,
2013-11-09 06:07:00,43.3,34.9,29.84,NNW,342,0.0,0.0,72,0.00,,---,0.00,VWS V14.01,2013-11-09 11:07:00,
2013-11-09 06:08:00,43.3,34.9,29.84,NNW,342,0.0,0.0,72,0.00,,---,0.00,VWS V14.01,2013-11-09 11:08:00,
2013-11-09 06:09:00,43.3,34.9,29.84,NNW,342,0.0,0.0,72,0.00,,---,0.00,VWS V14.01,2013-11-09 11:09:00,
2013-11-09 06:10:00,43.3,34.9,29.84,NNW,342,0.0,0.0,72,0.00,,---,0.00,VWS V14.01,2013-11-09 11:10:00,
2013-11-09 06:11:00,43.3,34.9,29.84,NNW,342,0.0,0.0,72,0.00,,---,0.00,VWS V14.01,2013-11-09 11:11:00,
2013-11-09 06:12:00,43.3,34.9,29.84,NNW,342,0.0,0.0,72,0.00,,---,0.00,VWS V14.01,2013-11-09 11:12:00,
2013-11-09 06:13:00,43.3,34.9,29.84,NNW,342,0.0,0.0,72,0.00,,---,0.00,VWS V14.01,2013-11-09 11:13:00,
2013-11-09 06:14:00,43.3,34.9,29.84,NNW,342,0.0,0.0,72,0.00,,---,0.00,VWS V14.01,2013-11-09 11:14:00,
2013-11-09 06:15:00,43.3,34.9,29.85,NNW,342,0.0,0.0,72,0.00,,---,0.00,VWS V14.01,2013-11-09 11:15:00,
2013-11-09 06:16:00,43.3,34.9,29.85,NNW,342,0.0,0.0,72,0.00,,---,0.00,VWS V14.01,2013-11-09 11:16:00,
2013-11-09 06:17:00,43.3,34.9,29.85,NNW,342,0.0,0.0,72,0.00,,---,0.00,VWS V14.01,2013-11-09 11:17:00,
2013-11-09 06:18:00,43.3,34.9,29.85,NNW,342,0.0,0.0,72,0.00,,---,0.00,VWS V14.01,2013-11-09 11:18:00,
2013-11-09 06:19:00,43.2,34.8,29.85,NNW,342,0.0,0.0,72,0.00,,---,0.00,VWS V14.01,2013-11-09 11:19:00,
2013-11-09 06:20:00,43.3,34.9,29.85,NNW,342,0.0,0.0,72,0.00,,---,0.00,VWS V14.01,2013-11-09 11:20:00,
2013-11-09 06:21:00,43.2,34.8,29.85,NNW,342,0.0,0.0,72,0.00,,---,0.00,VWS V14.01,2013-11-09 11:21:00,
2013-11-09 06:22:00,43.2,34.8,29.85,North,359,0.0,1.0,72,0.00,,---,0.00,VWS V14.01,2013-11-09 11:22:00,
2013-11-09 06:23:00,43.2,34.8,29.85,North,359,0.0,1.0,72,0.00,,---,0.00,VWS V14.01,2013-11-09 11:23:00,
2013-11-09 06:24:00,43.2,34.8,29.85,North,359,0.0,1.0,72,0.00,,---,0.00,VWS V14.01,2013-11-09 11:24:00,
2013-11-09 06:25:00,43.2,34.8,29.85,North,359,0.0,1.0,72,0.00,,---,0.00,VWS V14.01,2013-11-09 11:25:00,
2013-11-09 06:26:00,43.2,34.8,29.85,North,359,0.0,0.0,72,0.00,,---,0.00,VWS V14.01,2013-11-09 11:26:00,
2013-11-09 06:27:00,43.2,34.8,29.85,North,359,0.0,1.0,72,0.00,,---,0.00,VWS V14.01,2013-11-09 11:27:00,
2013-11-09 06:28:00,43.2,34.8,29.85,North,359,0.0,1.0,72,0.00,,---,0.00,VWS V14.01,2013-11-09 11:28:00,
2013-11-09 06:29:00,43.2,34.8,29.85,North,359,0.0,1.0,72,0.00,,---,0.00,VWS V14.01,2013-11-09 11:29:00,
2013-11-09 06:30:00,43.2,34.8,29.85,North,359,0.0,1.0,72,0.00,,---,0.00,VWS V14.01,2013-11-09 11:30:00,
2013-11-09 06:31:00,43.2,34.8,29.85,North,359,1.0,1.0,72,0.00,,---,0.00,VWS V14.01,2013-11-09 11:31:00,
2013-11-09 06:32:00,43.2,34.8,29.85,WNW,282,0.0,1.0,72,0.00,,---,0.00,VWS V14.01,2013-11-09 11:32:00,
2013-11-09 06:33:00,43.2,35.1,29.85,WNW,282,0.0,1.0,73,0.00,,---,0.00,VWS V14.01,2013-11-09 11:33:00,
2013-11-09 06:34:00,43.2,35.1,29.85,WNW,282,0.0,1.0,73,0.00,,---,0.00,VWS V14.01,2013-11-09 11:34:00,
2013-11-09 06:35:00,43.2,35.1,29.85,WNW,282,0.0,1.0,73,0.00,,---,0.00,VWS V14.01,2013-11-09 11:35:00,
2013-11-09 06:36:00,43.2,35.1,29.85,WNW,282,0.0,0.0,73,0.00,,---,0.00,VWS V14.01,2013-11-09 11:36:00,
2013-11-09 06:37:00,43.2,35.1,29.85,West,281,0.0,0.0,73,0.00,,---,0.00,VWS V14.01,2013-11-09 11:37:00,
2013-11-09 06:38:00,43.2,35.1,29.85,West,281,0.0,0.0,73,0.00,,---,0.00,VWS V14.01,2013-11-09 11:38:00,
2013-11-09 06:39:00,43.2,35.1,29.85,West,281,0.0,0.0,73,0.00,,---,0.00,VWS V14.01,2013-11-09 11:39:00,
2013-11-09 06:40:00,43.2,35.1,29.85,West,281,0.0,0.0,73,0.00,,---,0.00,VWS V14.01,2013-11-09 11:40:00,
2013-11-09 06:41:00,43.2,35.1,29.85,West,281,0.0,0.0,73,0.00,,---,0.00,VWS V14.01,2013-11-09 11:41:00,
2013-11-09 06:42:00,43.2,35.1,29.85,West,281,0.0,0.0,73,0.00,,---,0.00,VWS V14.01,2013-11-09 11:42:00,
2013-11-09 06:43:00,43.2,35.1,29.85,West,281,0.0,0.0,73,0.00,,---,0.00,VWS V14.01,2013-11-09 11:43:00,
2013-11-09 06:44:00,43.2,35.1,29.85,West,281,0.0,0.0,73,0.00,,---,0.00,VWS V14.01,2013-11-09 11:44:00,
2013-11-09 06:45:00,43.2,35.1,29.84,West,281,0.0,0.0,73,0.00,,---,0.00,VWS V14.01,2013-11-09 11:45:00,
2013-11-09 06:46:00,43.2,35.1,29.84,West,281,0.0,0.0,73,0.00,,---,0.00,VWS V14.01,2013-11-09 11:46:00,
2013-11-09 06:47:00,43.2,35.1,29.84,West,281,0.0,0.0,73,0.00,,---,0.00,VWS V14.01,2013-11-09 11:47:00,
2013-11-09 06:48:00,43.2,35.1,29.84,West,281,0.0,0.0,73,0.00,,---,0.00,VWS V14.01,2013-11-09 11:48:00,
2013-11-09 06:49:00,43.2,35.1,29.84,West,281,0.0,0.0,73,0.00,,---,0.00,VWS V14.01,2013-11-09 11:49:00,
2013-11-09 06:50:00,43.2,35.1,29.84,West,281,0.0,0.0,73,0.00,,---,0.00,VWS V14.01,2013-11-09 11:50:00,
2013-11-09 06:51:00,43.2,35.1,29.84,West,281,0.0,0.0,73,0.00,,---,0.00,VWS V14.01,2013-11-09 11:51:00,
2013-11-09 06:52:00,43.2,35.1,29.84,West,281,0.0,0.0,73,0.00,,---,0.00,VWS V14.01,2013-11-09 11:52:00,
2013-11-09 06:53:00,43.2,35.1,29.84,West,281,0.0,0.0,73,0.00,,---,0.00,VWS V14.01,2013-11-09 11:53:00,
2013-11-09 06:54:00,43.2,35.1,29.84,West,281,0.0,0.0,73,0.00,,---,0.00,VWS V14.01,2013-11-09 11:54:00,
2013-11-09 06:55:00,43.2,35.1,29.84,West,281,0.0,0.0,73,0.00,,---,0.00,VWS V14.01,2013-11-09 11:55:00,
2013-11-09 06:56:00,43.2,35.1,29.84,West,281,0.0,0.0,73,0.00,,---,0.00,VWS V14.01,2013-11-09 11:56:00,
2013-11-09 06:57:00,43.2,35.1,29.84,West,281,0.0,0.0,73,0.00,,---,0.00,VWS V14.01,2013-11-09 11:57:00,
2013-11-09 06:58:00,43.2,35.1,29.84,West,281,0.0,0.0,73,0.00,,---,0.00,VWS V14.01,2013-11-09 11:58:00,
2013-11-09 06:59:00,43.2,35.1,29.84,West,281,0.0,0.0,73,0.00,,---,0.00,VWS V14.01,2013-11-09 11:59:00,
2013-11-09 07:00:00,43.2,35.1,29.84,WNW,282,0.0,2.0,73,0.00,,---,0.00,VWS V14.01,2013-11-09 12:00:00,
2013-11-09 07:01:00,43.2,35.5,29.84,NW,307,0.0,0.0,74,0.00,,---,0.00,VWS V14.01,2013-11-09 12:01:00,
2013-11-09 07:02:00,43.2,35.1,29.84,NW,307,0.0,0.0,73,0.00,,---,0.00,VWS V14.01,2013-11-09 12:02:00,
2013-11-09 07:03:00,43.2,35.1,29.84,NW,307,0.0,0.0,73,0.00,,---,0.00,VWS V14.01,2013-11-09 12:03:00,
2013-11-09 07:04:00,43.2,35.1,29.84,NW,307,0.0,0.0,73,0.00,,---,0.00,VWS V14.01,2013-11-09 12:04:00,
2013-11-09 07:05:00,43.2,35.1,29.84,NW,307,0.0,0.0,73,0.00,,---,0.00,VWS V14.01,2013-11-09 12:05:00,
2013-11-09 07:06:00,43.2,35.1,29.84,NW,307,0.0,0.0,73,0.00,,---,0.00,VWS V14.01,2013-11-09 12:06:00,
2013-11-09 07:07:00,43.2,35.1,29.84,NW,307,0.0,0.0,73,0.00,,---,0.00,VWS V14.01,2013-11-09 12:07:00,
2013-11-09 07:08:00,43.2,35.5,29.84,NW,307,0.0,0.0,74,0.00,,---,0.00,VWS V14.01,2013-11-09 12:08:00,
2013-11-09 07:09:00,43.2,35.5,29.84,NW,307,0.0,0.0,74,0.00,,---,0.00,VWS V14.01,2013-11-09 12:09:00,
2013-11-09 07:10:00,43.2,35.5,29.84,NW,307,0.0,0.0,74,0.00,,---,0.00,VWS V14.01,2013-11-09 12:10:00,
2013-11-09 07:11:00,43.2,35.5,29.84,NW,307,0.0,0.0,74,0.00,,---,0.00,VWS V14.01,2013-11-09 12:11:00,
2013-11-09 07:12:00,43.2,35.5,29.84,NW,307,0.0,0.0,74,0.00,,---,0.00,VWS V14.01,2013-11-09 12:12:00,
2013-11-09 07:13:00,43.2,35.5,29.84,NW,307,0.0,0.0,74,0.00,,---,0.00,VWS V14.01,2013-11-09 12:13:00,
2013-11-09 07:14:00,43.2,35.5,29.84,NW,307,0.0,0.0,74,0.00,,---,0.00,VWS V14.01,2013-11-09 12:14:00,
2013-11-09 07:15:00,43.2,35.5,29.84,NW,307,0.0,0.0,74,0.00,,---,0.00,VWS V14.01,2013-11-09 12:15:00,
2013-11-09 07:16:00,43.2,35.5,29.84,NW,307,0.0,0.0,74,0.00,,---,0.00,VWS V14.01,2013-11-09 12:16:00,
2013-11-09 07:17:00,43.2,35.5,29.84,NW,307,0.0,0.0,74,0.00,,---,0.00,VWS V14.01,2013-11-09 12:17:00,
2013-11-09 07:18:00,43.2,35.5,29.84,NW,307,0.0,0.0,74,0.00,,---,0.00,VWS V14.01,2013-11-09 12:18:00,
2013-11-09 07:19:00,43.2,35.5,29.84,NW,307,0.0,1.0,74,0.00,,---,0.00,VWS V14.01,2013-11-09 12:19:00,
2013-11-09 07:20:00,43.2,35.5,29.84,NW,307,0.0,1.0,74,0.00,,---,0.00,VWS V14.01,2013-11-09 12:20:00,
2013-11-09 07:21:00,43.3,35.6,29.84,NW,307,0.0,0.0,74,0.00,,---,0.00,VWS V14.01,2013-11-09 12:21:00,
2013-11-09 07:22:00,43.3,35.6,29.84,NW,307,0.0,0.0,74,0.00,,---,0.00,VWS V14.01,2013-11-09 12:22:00,
2013-11-09 07:23:00,43.3,35.6,29.84,NW,307,0.0,0.0,74,0.00,,---,0.00,VWS V14.01,2013-11-09 12:23:00,
2013-11-09 07:24:00,43.3,35.6,29.84,NW,307,0.0,0.0,74,0.00,,---,0.00,VWS V14.01,2013-11-09 12:24:00,
2013-11-09 07:25:00,43.4,35.7,29.84,WSW,237,1.0,9.0,74,0.00,,---,0.00,VWS V14.01,2013-11-09 12:25:00,
2013-11-09 07:26:00,43.4,35.7,29.84,WSW,237,0.0,1.0,74,0.00,,---,0.00,VWS V14.01,2013-11-09 12:26:00,
2013-11-09 07:27:00,43.4,35.7,29.84,WSW,237,0.0,1.0,74,0.00,,---,0.00,VWS V14.01,2013-11-09 12:27:00,
2013-11-09 07:28:00,43.5,35.8,29.84,WNW,290,0.0,1.0,74,0.00,,---,0.00,VWS V14.01,2013-11-09 12:28:00,
2013-11-09 07:29:00,43.5,35.8,29.84,WNW,288,0.0,1.0,74,0.00,,---,0.00,VWS V14.01,2013-11-09 12:29:00,
2013-11-09 07:30:00,43.6,35.9,29.84,WSW,256,0.0,1.0,74,0.00,,---,0.00,VWS V14.01,2013-11-09 12:30:00,
2013-11-09 07:31:00,43.6,35.9,29.84,WSW,256,0.0,0.0,74,0.00,,---,0.00,VWS V14.01,2013-11-09 12:31:00,
2013-11-09 07:32:00,43.7,35.6,29.84,WSW,256,0.0,0.0,73,0.00,,---,0.00,VWS V14.01,2013-11-09 12:32:00,
2013-11-09 07:33:00,43.7,35.6,29.84,WSW,256,0.0,0.0,73,0.00,,---,0.00,VWS V14.01,2013-11-09 12:33:00,
2013-11-09 07:34:00,43.8,35.7,29.84,West,277,0.0,1.0,73,0.00,,---,0.00,VWS V14.01,2013-11-09 12:34:00,
2013-11-09 07:35:00,43.8,35.7,29.84,WNW,300,0.0,1.0,73,0.00,,---,0.00,VWS V14.01,2013-11-09 12:35:00,
2013-11-09 07:36:00,43.8,35.7,29.84,WNW,300,0.0,0.0,73,0.00,,---,0.00,VWS V14.01,2013-11-09 12:36:00,
2013-11-09 07:37:00,43.9,35.8,29.84,WNW,300,0.0,0.0,73,0.00,,---,0.00,VWS V14.01,2013-11-09 12:37:00,
2013-11-09 07:38:00,43.9,35.8,29.84,WNW,300,0.0,0.0,73,0.00,,---,0.00,VWS V14.01,2013-11-09 12:38:00,
2013-11-09 07:39:00,44.0,35.9,29.84,WNW,300,0.0,0.0,73,0.00,,---,0.00,VWS V14.01,2013-11-09 12:39:00,
2013-11-09 07:40:00,44.0,35.9,29.84,WNW,300,0.0,0.0,73,0.00,,---,0.00,VWS V14.01,2013-11-09 12:40:00,
2013-11-09 07:41:00,44.0,35.9,29.84,WNW,300,0.0,0.0,73,0.00,,---,0.00,VWS V14.01,2013-11-09 12:41:00,
2013-11-09 07:42:00,44.0,35.9,29.84,WNW,300,0.0,0.0,73,0.00,,---,0.00,VWS V14.01,2013-11-09 12:42:00,
2013-11-09 07:43:00,44.1,36.0,29.84,SSW,202,0.0,0.0,73,0.00,,---,0.00,VWS V14.01,2013-11-09 12:43:00,
2013-11-09 07:44:00,44.1,36.0,29.84,SSW,205,0.0,0.0,73,0.00,,---,0.00,VWS V14.01,2013-11-09 12:44:00,
2013-11-09 07:45:00,44.1,36.0,29.84,SSW,205,0.0,0.0,73,0.00,,---,0.00,VWS V14.01,2013-11-09 12:45:00,
2013-11-09 07:46:00,44.2,36.1,29.84,SSW,205,0.0,0.0,73,0.00,,---,0.00,VWS V14.01,2013-11-09 12:46:00,
2013-11-09 07:47:00,44.2,36.1,29.84,SSW,205,0.0,0.0,73,0.00,,---,0.00,VWS V14.01,2013-11-09 12:47:00,
2013-11-09 07:48:00,44.2,36.1,29.84,SSW,205,0.0,0.0,73,0.00,,---,0.00,VWS V14.01,2013-11-09 12:48:00,
2013-11-09 07:49:00,44.3,35.9,29.84,NNE,20,0.0,2.0,72,0.00,,---,0.00,VWS V14.01,2013-11-09 12:49:00,
2013-11-09 07:50:00,44.3,35.9,29.84,NNE,20,0.0,2.0,72,0.00,,---,0.00,VWS V14.01,2013-11-09 12:50:00,
2013-11-09 07:51:00,44.3,36.2,29.84,WNW,302,0.0,1.0,73,0.00,,---,0.00,VWS V14.01,2013-11-09 12:51:00,
2013-11-09 07:52:00,44.4,36.3,29.84,WNW,300,0.0,1.0,73,0.00,,---,0.00,VWS V14.01,2013-11-09 12:52:00,
2013-11-09 07:53:00,44.4,36.3,29.84,WNW,300,0.0,1.0,73,0.00,,---,0.00,VWS V14.01,2013-11-09 12:53:00,
2013-11-09 07:54:00,44.4,36.3,29.84,ENE,74,1.0,1.0,73,0.00,,---,0.00,VWS V14.01,2013-11-09 12:54:00,
2013-11-09 07:55:00,44.5,36.4,29.84,East,79,0.0,1.0,73,0.00,,---,0.00,VWS V14.01,2013-11-09 12:55:00,
2013-11-09 07:56:00,44.5,36.4,29.84,East,79,0.0,0.0,73,0.00,,---,0.00,VWS V14.01,2013-11-09 12:56:00,
2013-11-09 07:57:00,44.5,36.4,29.84,East,79,0.0,0.0,73,0.00,,---,0.00,VWS V14.01,2013-11-09 12:57:00,
2013-11-09 07:58:00,44.6,36.5,29.84,East,91,0.0,0.0,73,0.00,,---,0.00,VWS V14.01,2013-11-09 12:58:00,
2013-11-09 07:59:00,44.6,36.2,29.84,East,91,0.0,0.0,72,0.00,,---,0.00,VWS V14.01,2013-11-09 12:59:00,
2013-11-09 08:00:00,44.6,36.5,29.84,East,91,0.0,0.0,73,0.00,,---,0.00,VWS V14.01,2013-11-09 13:00:00,
2013-11-09 08:01:00,44.6,36.2,29.84,ESE,115,0.0,1.0,72,0.00,,---,0.00,VWS V14.01,2013-11-09 13:01:00,
2013-11-09 08:02:00,44.7,36.2,29.84,ESE,111,0.0,1.0,72,0.00,,---,0.00,VWS V14.01,2013-11-09 13:02:00,
2013-11-09 08:03:00,44.7,36.6,29.84,ESE,113,0.0,1.0,73,0.00,,---,0.00,VWS V14.01,2013-11-09 13:03:00,
2013-11-09 08:04:00,44.7,36.6,29.84,ESE,114,0.0,1.0,73,0.00,,---,0.00,VWS V14.01,2013-11-09 13:04:00,
2013-11-09 08:05:00,44.7,36.6,29.84,ESE,114,0.0,1.0,73,0.00,,---,0.00,VWS V14.01,2013-11-09 13:05:00,
2013-11-09 08:06:00,44.8,36.7,29.84,ESE,115,0.0,0.0,73,0.00,,---,0.00,VWS V14.01,2013-11-09 13:06:00,
2013-11-09 08:07:00,44.9,36.4,29.84,ESE,115,0.0,0.0,72,0.00,,---,0.00,VWS V14.01,2013-11-09 13:07:00,
2013-11-09 08:08:00,44.9,36.4,29.84,ESE,115,0.0,0.0,72,0.00,,---,0.00,VWS V14.01,2013-11-09 13:08:00,
2013-11-09 08:09:00,44.9,36.4,29.84,ESE,115,0.0,0.0,72,0.00,,---,0.00,VWS V14.01,2013-11-09 13:09:00,
2013-11-09 08:10:00,44.9,36.4,29.84,ESE,115,0.0,0.0,72,0.00,,---,0.00,VWS V14.01,2013-11-09 13:10:00,
2013-11-09 08:11:00,45.0,36.5,29.84,ESE,115,0.0,0.0,72,0.00,,---,0.00,VWS V14.01,2013-11-09 13:11:00,
2013-11-09 08:12:00,45.0,36.5,29.84,ESE,115,0.0,0.0,72,0.00,,---,0.00,VWS V14.01,2013-11-09 13:12:00,
2013-11-09 08:13:00,45.0,36.9,29.84,ESE,115,0.0,0.0,73,0.00,,---,0.00,VWS V14.01,2013-11-09 13:13:00,
2013-11-09 08:14:00,45.0,36.9,29.84,ESE,117,0.0,1.0,73,0.00,,---,0.00,VWS V14.01,2013-11-09 13:14:00,
2013-11-09 08:15:00,45.0,36.5,29.84,SSW,210,0.0,1.0,72,0.00,,---,0.00,VWS V14.01,2013-11-09 13:15:00,
2013-11-09 08:16:00,45.0,36.5,29.84,ESE,119,0.0,1.0,72,0.00,,---,0.00,VWS V14.01,2013-11-09 13:16:00,
2013-11-09 08:17:00,45.1,37.0,29.84,ESE,119,0.0,1.0,73,0.00,,---,0.00,VWS V14.01,2013-11-09 13:17:00,
2013-11-09 08:18:00,45.1,37.0,29.84,SE,143,0.0,1.0,73,0.00,,---,0.00,VWS V14.01,2013-11-09 13:18:00,
2013-11-09 08:19:00,45.1,37.0,29.84,SE,143,0.0,1.0,73,0.00,,---,0.00,VWS V14.01,2013-11-09 13:19:00,
2013-11-09 08:20:00,45.1,37.0,29.84,SE,143,0.0,1.0,73,0.00,,---,0.00,VWS V14.01,2013-11-09 13:20:00,
2013-11-09 08:21:00,45.1,37.0,29.84,SE,134,0.0,0.0,73,0.00,,---,0.00,VWS V14.01,2013-11-09 13:21:00,
2013-11-09 08:22:00,45.2,37.1,29.84,SE,134,1.0,1.0,73,0.00,,---,0.00,VWS V14.01,2013-11-09 13:22:00,
2013-11-09 08:23:00,45.2,37.1,29.84,SE,134,0.0,1.0,73,0.00,,---,0.00,VWS V14.01,2013-11-09 13:23:00,
2013-11-09 08:24:00,45.2,37.1,29.84,SW,217,0.0,2.0,73,0.00,,---,0.00,VWS V14.01,2013-11-09 13:24:00,
2013-11-09 08:25:00,45.2,37.1,29.84,SSW,200,0.0,2.0,73,0.00,,---,0.00,VWS V14.01,2013-11-09 13:25:00,
2013-11-09 08:26:00,45.3,37.2,29.84,WSW,238,0.0,0.0,73,0.00,,---,0.00,VWS V14.01,2013-11-09 13:26:00,
2013-11-09 08:27:00,45.3,37.5,29.84,WSW,238,0.0,0.0,74,0.00,,---,0.00,VWS V14.01,2013-11-09 13:27:00,
2013-11-09 08:28:00,45.3,37.2,29.84,WSW,238,0.0,0.0,73,0.00,,---,0.00,VWS V14.01,2013-11-09 13:28:00,
2013-11-09 08:29:00,45.4,37.3,29.84,WSW,238,0.0,0.0,73,0.00,,---,0.00,VWS V14.01,2013-11-09 13:29:00,
2013-11-09 08:30:00,45.4,37.3,29.83,WSW,238,0.0,0.0,73,0.00,,---,0.00,VWS V14.01,2013-11-09 13:30:00,
2013-11-09 08:31:00,45.4,37.3,29.83,SW,230,0.0,1.0,73,0.00,,---,0.00,VWS V14.01,2013-11-09 13:31:00,
2013-11-09 08:32:00,45.4,37.3,29.83,North,349,3.0,3.0,73,0.00,,---,0.00,VWS V14.01,2013-11-09 13:32:00,
2013-11-09 08:33:00,45.5,37.4,29.83,WNW,290,0.0,4.0,73,0.00,,---,0.00,VWS V14.01,2013-11-09 13:33:00,
2013-11-09 08:34:00,45.5,37.4,29.83,WSW,248,0.0,4.0,73,0.00,,---,0.00,VWS V14.01,2013-11-09 13:34:00,
2013-11-09 08:35:00,45.5,37.4,29.83,WSW,247,0.0,4.0,73,0.00,,---,0.00,VWS V14.01,2013-11-09 13:35:00,
2013-11-09 08:36:00,45.6,37.5,29.83,WSW,247,0.0,0.0,73,0.00,,---,0.00,VWS V14.01,2013-11-09 13:36:00,
2013-11-09 08:37:00,45.6,37.5,29.83,WSW,247,0.0,0.0,73,0.00,,---,0.00,VWS V14.01,2013-11-09 13:37:00,
2013-11-09 08:38:00,45.7,37.5,29.83,West,265,0.0,2.0,73,0.00,,---,0.00,VWS V14.01,2013-11-09 13:38:00,
2013-11-09 08:39:00,45.8,37.7,29.83,West,268,2.0,4.0,73,0.00,,---,0.00,VWS V14.01,2013-11-09 13:39:00,
2013-11-09 08:40:00,45.8,37.7,29.83,WNW,295,0.0,4.0,73,0.00,,---,0.00,VWS V14.01,2013-11-09 13:40:00,
2013-11-09 08:41:00,45.9,37.8,29.83,West,272,0.0,1.0,73,0.00,,---,0.00,VWS V14.01,2013-11-09 13:41:00,
2013-11-09 08:42:00,46.0,37.8,29.83,South,187,0.0,1.0,73,0.00,,---,0.00,VWS V14.01,2013-11-09 13:42:00,
2013-11-09 08:43:00,46.0,37.8,29.83,SW,224,0.0,2.0,73,0.00,,---,0.00,VWS V14.01,2013-11-09 13:43:00,
2013-11-09 08:44:00,46.1,37.9,29.83,SW,217,0.0,2.0,73,0.00,,---,0.00,VWS V14.01,2013-11-09 13:44:00,
2013-11-09 08:45:00,46.1,37.9,29.83,SW,231,0.0,2.0,73,0.00,,---,0.00,VWS V14.01,2013-11-09 13:45:00,
2013-11-09 08:46:00,46.2,38.0,29.83,SW,236,0.0,3.0,73,0.00,,---,0.00,VWS V14.01,2013-11-09 13:46:00,
2013-11-09 08:47:00,46.3,38.1,29.83,SW,236,0.0,3.0,73,0.00,,---,0.00,VWS V14.01,2013-11-09 13:47:00,
2013-11-09 08:48:00,46.4,38.2,29.83,SW,236,0.0,3.0,73,0.00,,---,0.00,VWS V14.01,2013-11-09 13:48:00,
2013-11-09 08:49:00,46.4,38.2,29.83,WSW,238,0.0,3.0,73,0.00,,---,0.00,VWS V14.01,2013-11-09 13:49:00,
2013-11-09 08:50:00,46.5,38.3,29.83,WSW,238,0.0,3.0,73,0.00,,---,0.00,VWS V14.01,2013-11-09 13:50:00,
2013-11-09 08:51:00,46.5,38.3,29.83,SW,231,0.0,1.0,73,0.00,,---,0.00,VWS V14.01,2013-11-09 13:51:00,
2013-11-09 08:52:00,46.5,38.3,29.83,SW,231,0.0,1.0,73,0.00,,---,0.00,VWS V14.01,2013-11-09 13:52:00,
2013-11-09 08:53:00,46.6,38.4,29.83,SW,224,1.0,1.0,73,0.00,,---,0.00,VWS V14.01,2013-11-09 13:53:00,
2013-11-09 08:54:00,46.7,38.2,29.83,NNW,327,0.0,9.0,72,0.00,,---,0.00,VWS V14.01,2013-11-09 13:54:00,
2013-11-09 08:55:00,46.7,38.2,29.83,SSW,202,0.0,9.0,72,0.00,,---,0.00,VWS V14.01,2013-11-09 13:55:00,
2013-11-09 08:56:00,46.8,38.3,29.83,SSW,209,0.0,2.0,72,0.00,,---,0.00,VWS V14.01,2013-11-09 13:56:00,
2013-11-09 08:57:00,46.8,38.3,29.83,SSW,209,0.0,2.0,72,0.00,,---,0.00,VWS V14.01,2013-11-09 13:57:00,
2013-11-09 08:58:00,46.9,38.4,29.83,SSW,210,0.0,2.0,72,0.00,,---,0.00,VWS V14.01,2013-11-09 13:58:00,
2013-11-09 08:59:00,47.0,38.5,29.83,SSW,210,0.0,2.0,72,0.00,,---,0.00,VWS V14.01,2013-11-09 13:59:00,
2013-11-09 09:00:00,47.0,38.5,29.83,SSW,210,0.0,2.0,72,0.00,,---,0.00,VWS V14.01,2013-11-09 14:00:00,
2013-11-09 09:01:00,47.0,38.5,29.83,SSW,210,0.0,0.0,72,0.00,,---,0.00,VWS V14.01,2013-11-09 14:01:00,
2013-11-09 09:02:00,47.0,38.5,29.83,SSW,210,0.0,0.0,72,0.00,,---,0.00,VWS V14.01,2013-11-09 14:02:00,
2013-11-09 09:03:00,47.2,38.7,29.83,SSW,208,0.0,1.0,72,0.00,,---,0.00,VWS V14.01,2013-11-09 14:03:00,
2013-11-09 09:04:00,47.2,38.7,29.83,SSE,155,1.0,1.0,72,0.00,,---,0.00,VWS V14.01,2013-11-09 14:04:00,
2013-11-09 09:05:00,47.3,38.7,29.83,SW,220,0.0,3.0,72,0.00,,---,0.00,VWS V14.01,2013-11-09 14:05:00,
2013-11-09 09:06:00,47.3,38.7,29.83,SW,219,0.0,1.0,72,0.00,,---,0.00,VWS V14.01,2013-11-09 14:06:00,
2013-11-09 09:07:00,47.4,38.8,29.83,South,188,0.0,1.0,72,0.00,,---,0.00,VWS V14.01,2013-11-09 14:07:00,
2013-11-09 09:08:00,47.4,38.8,29.83,SSW,195,0.0,1.0,72,0.00,,---,0.00,VWS V14.01,2013-11-09 14:08:00,
2013-11-09 09:09:00,47.5,38.9,29.83,SSW,195,0.0,1.0,72,0.00,,---,0.00,VWS V14.01,2013-11-09 14:09:00,
2013-11-09 09:10:00,47.5,38.9,29.83,SSW,192,0.0,1.0,72,0.00,,---,0.00,VWS V14.01,2013-11-09 14:10:00,
2013-11-09 09:11:00,47.6,39.0,29.83,SSW,195,0.0,2.0,72,0.00,,---,0.00,VWS V14.01,2013-11-09 14:11:00,
2013-11-09 09:12:00,47.6,39.0,29.83,SSE,161,0.0,3.0,72,0.00,,---,0.00,VWS V14.01,2013-11-09 14:12:00,
2013-11-09 09:13:00,47.7,38.8,29.83,SW,219,0.0,3.0,71,0.00,,---,0.00,VWS V14.01,2013-11-09 14:13:00,
2013-11-09 09:14:00,47.7,38.8,29.83,West,261,0.0,5.0,71,0.00,,---,0.00,VWS V14.01,2013-11-09 14:14:00,
2013-11-09 09:15:00,47.8,38.9,29.83,SSE,154,1.0,5.0,71,0.00,,---,0.00,VWS V14.01,2013-11-09 14:15:00,
2013-11-09 09:16:00,47.8,38.9,29.83,SSW,193,0.0,2.0,71,0.00,,---,0.00,VWS V14.01,2013-11-09 14:16:00,
2013-11-09 09:17:00,47.9,39.0,29.83,WSW,255,1.0,6.0,71,0.00,,---,0.00,VWS V14.01,2013-11-09 14:17:00,
2013-11-09 09:18:00,48.0,39.1,29.83,West,275,0.0,6.0,71,0.00,,---,0.00,VWS V14.01,2013-11-09 14:18:00,
2013-11-09 09:19:00,48.0,39.1,29.83,SW,229,2.0,6.0,71,0.00,,---,0.00,VWS V14.01,2013-11-09 14:19:00,
2013-11-09 09:20:00,48.1,39.2,29.83,SW,236,0.0,6.0,71,0.00,,---,0.00,VWS V14.01,2013-11-09 14:20:00,
2013-11-09 09:21:00,48.1,39.2,29.83,SW,236,0.0,0.0,71,0.00,,---,0.00,VWS V14.01,2013-11-09 14:21:00,
2013-11-09 09:22:00,48.2,39.2,29.83,SW,232,1.0,3.0,71,0.00,,---,0.00,VWS V14.01,2013-11-09 14:22:00,
2013-11-09 09:23:00,48.2,39.2,29.83,SSW,212,0.0,5.0,71,0.00,,---,0.00,VWS V14.01,2013-11-09 14:23:00,
2013-11-09 09:24:00,48.3,39.3,29.83,ESE,109,0.0,5.0,71,0.00,,---,0.00,VWS V14.01,2013-11-09 14:24:00,
2013-11-09 09:25:00,48.3,39.3,29.83,SW,222,2.0,5.0,71,0.00,,---,0.00,VWS V14.01,2013-11-09 14:25:00,
2013-11-09 09:26:00,48.3,39.3,29.83,WSW,244,0.0,2.0,71,0.00,,---,0.00,VWS V14.01,2013-11-09 14:26:00,
2013-11-09 09:27:00,48.4,39.4,29.83,SW,222,0.0,4.0,71,0.00,,---,0.00,VWS V14.01,2013-11-09 14:27:00,
2013-11-09 09:28:00,48.5,39.5,29.83,SE,145,0.0,5.0,71,0.00,,---,0.00,VWS V14.01,2013-11-09 14:28:00,
2013-11-09 09:29:00,48.5,39.5,29.83,SW,219,0.0,5.0,71,0.00,,---,0.00,VWS V14.01,2013-11-09 14:29:00,
2013-11-09 09:30:00,48.6,39.6,29.82,West,264,0.0,7.0,71,0.00,,---,0.00,VWS V14.01,2013-11-09 14:30:00,
2013-11-09 09:31:00,48.6,39.6,29.82,WSW,238,3.0,3.0,71,0.00,,---,0.00,VWS V14.01,2013-11-09 14:31:00,
2013-11-09 09:32:00,48.6,39.6,29.82,SW,236,0.0,4.0,71,0.00,,---,0.00,VWS V14.01,2013-11-09 14:32:00,
2013-11-09 09:33:00,48.7,39.7,29.82,SW,236,2.0,4.0,71,0.00,,---,0.00,VWS V14.01,2013-11-09 14:33:00,
2013-11-09 09:34:00,48.7,39.7,29.82,West,278,2.0,4.0,71,0.00,,---,0.00,VWS V14.01,2013-11-09 14:34:00,
2013-11-09 09:35:00,48.7,39.7,29.82,SW,226,0.0,4.0,71,0.00,,---,0.00,VWS V14.01,2013-11-09 14:35:00,
2013-11-09 09:36:00,48.8,39.8,29.82,SW,231,0.0,2.0,71,0.00,,---,0.00,VWS V14.01,2013-11-09 14:36:00,
2013-11-09 09:37:00,48.8,39.8,29.82,SW,231,1.0,2.0,71,0.00,,---,0.00,VWS V14.01,2013-11-09 14:37:00,
2013-11-09 09:38:00,48.8,39.8,29.82,WSW,237,0.0,2.0,71,0.00,,---,0.00,VWS V14.01,2013-11-09 14:38:00,
2013-11-09 09:39:00,48.9,39.9,29.82,West,259,3.0,5.0,71,0.00,,---,0.00,VWS V14.01,2013-11-09 14:39:00,
2013-11-09 09:40:00,49.0,40.0,29.82,WSW,238,0.0,5.0,71,0.00,,---,0.00,VWS V14.01,2013-11-09 14:40:00,
2013-11-09 09:41:00,49.0,40.0,29.82,West,278,4.0,4.0,71,0.00,,---,0.00,VWS V14.01,2013-11-09 14:41:00,
2013-11-09 09:42:00,49.1,40.1,29.82,South,179,0.0,5.0,71,0.00,,---,0.00,VWS V14.01,2013-11-09 14:42:00,
2013-11-09 09:43:00,49.1,40.1,29.82,SW,230,0.0,5.0,71,0.00,,---,0.00,VWS V14.01,2013-11-09 14:43:00,
2013-11-09 09:44:00,49.1,40.1,29.82,WSW,242,1.0,6.0,71,0.00,,---,0.00,VWS V14.01,2013-11-09 14:44:00,
2013-11-09 09:45:00,49.1,40.1,29.81,WNW,302,2.0,6.0,71,0.00,,---,0.00,VWS V14.01,2013-11-09 14:45:00,
2013-11-09 09:46:00,49.2,40.2,29.81,WSW,239,1.0,3.0,71,0.00,,---,0.00,VWS V14.01,2013-11-09 14:46:00,
2013-11-09 09:47:00,49.2,40.2,29.81,WSW,239,0.0,3.0,71,0.00,,---,0.00,VWS V14.01,2013-11-09 14:47:00,
2013-11-09 09:48:00,49.2,39.8,29.81,WSW,238,0.0,3.0,70,0.00,,---,0.00,VWS V14.01,2013-11-09 14:48:00,
2013-11-09 09:49:00,49.2,39.8,29.81,WSW,238,3.0,3.0,70,0.00,,---,0.00,VWS V14.01,2013-11-09 14:49:00,
2013-11-09 09:50:00,49.2,39.8,29.81,South,176,0.0,3.0,70,0.00,,---,0.00,VWS V14.01,2013-11-09 14:50:00,
2013-11-09 09:51:00,49.3,40.3,29.81,SW,220,0.0,2.0,71,0.00,,---,0.00,VWS V14.01,2013-11-09 14:51:00,
2013-11-09 09:52:00,49.3,40.3,29.81,SW,229,0.0,3.0,71,0.00,,---,0.00,VWS V14.01,2013-11-09 14:52:00,
2013-11-09 09:53:00,49.3,40.3,29.81,SW,229,0.0,3.0,71,0.00,,---,0.00,VWS V14.01,2013-11-09 14:53:00,
2013-11-09 09:54:00,49.3,39.9,29.81,WSW,238,0.0,5.0,70,0.00,,---,0.00,VWS V14.01,2013-11-09 14:54:00,
2013-11-09 09:55:00,49.4,40.0,29.81,WNW,290,0.0,7.0,70,0.00,,---,0.00,VWS V14.01,2013-11-09 14:55:00,
2013-11-09 09:56:00,49.4,40.4,29.81,SSW,203,0.0,4.0,71,0.00,,---,0.00,VWS V14.01,2013-11-09 14:56:00,
2013-11-09 09:57:00,49.4,40.4,29.81,WSW,240,0.0,5.0,71,0.00,,---,0.00,VWS V14.01,2013-11-09 14:57:00,
2013-11-09 09:58:00,49.5,40.1,29.81,WSW,243,3.0,5.0,70,0.00,,---,0.00,VWS V14.01,2013-11-09 14:58:00,
2013-11-09 09:59:00,49.5,40.1,29.81,SW,224,0.0,5.0,70,0.00,,---,0.00,VWS V14.01,2013-11-09 14:59:00,
2013-11-09 10:00:00,49.5,40.1,29.80,WSW,249,0.0,5.0,70,0.00,,---,0.00,VWS V14.01,2013-11-09 15:00:00,
2013-11-09 10:01:00,49.5,40.5,29.80,WSW,255,0.0,2.0,71,0.00,,---,0.00,VWS V14.01,2013-11-09 15:01:00,
2013-11-09 10:02:00,49.6,40.6,29.80,WSW,250,0.0,3.0,71,0.00,,---,0.00,VWS V14.01,2013-11-09 15:02:00,
2013-11-09 10:03:00,49.6,40.6,29.80,NW,304,0.0,3.0,71,0.00,,---,0.00,VWS V14.01,2013-11-09 15:03:00,
2013-11-09 10:04:00,49.6,40.6,29.80,WNW,285,1.0,11.0,71,0.00,,---,0.00,VWS V14.01,2013-11-09 15:04:00,
2013-11-09 10:05:00,49.7,40.7,29.80,SW,229,2.0,11.0,71,0.00,,---,0.00,VWS V14.01,2013-11-09 15:05:00,
2013-11-09 10:06:00,49.7,40.7,29.80,WSW,254,7.0,7.0,71,0.00,,---,0.00,VWS V14.01,2013-11-09 15:06:00,
2013-11-09 10:07:00,49.8,40.8,29.80,West,268,1.0,7.0,71,0.00,,---,0.00,VWS V14.01,2013-11-09 15:07:00,
2013-11-09 10:08:00,49.8,40.8,29.80,WSW,238,0.0,7.0,71,0.00,,---,0.00,VWS V14.01,2013-11-09 15:08:00,
2013-11-09 10:09:00,49.9,40.5,29.80,WSW,243,0.0,7.0,70,0.00,,---,0.00,VWS V14.01,2013-11-09 15:09:00,
2013-11-09 10:10:00,49.9,40.9,29.80,SW,234,2.0,7.0,71,0.00,,---,0.00,VWS V14.01,2013-11-09 15:10:00,
2013-11-09 10:11:00,49.9,40.5,29.80,SSE,147,0.0,2.0,70,0.00,,---,0.00,VWS V14.01,2013-11-09 15:11:00,
2013-11-09 10:12:00,49.9,40.5,29.80,SW,219,1.0,2.0,70,0.00,,---,0.00,VWS V14.01,2013-11-09 15:12:00,
2013-11-09 10:13:00,50.0,40.6,29.80,West,263,0.0,3.0,70,0.00,,---,0.00,VWS V14.01,2013-11-09 15:13:00,
2013-11-09 10:14:00,50.0,41.0,29.80,West,272,0.0,3.0,71,0.00,,---,0.00,VWS V14.01,2013-11-09 15:14:00,
2013-11-09 10:15:00,50.1,41.1,29.80,West,268,3.0,3.0,71,0.00,,---,0.00,VWS V14.01,2013-11-09 15:15:00,
2013-11-09 10:16:00,50.1,40.7,29.80,West,269,0.0,13.0,70,0.00,,---,0.00,VWS V14.01,2013-11-09 15:16:00,
2013-11-09 10:17:00,50.2,40.8,29.80,SW,223,2.0,13.0,70,0.00,,---,0.00,VWS V14.01,2013-11-09 15:17:00,
2013-11-09 10:18:00,50.2,40.8,29.80,WNW,283,4.0,13.0,70,0.00,,---,0.00,VWS V14.01,2013-11-09 15:18:00,
2013-11-09 10:19:00,50.3,40.9,29.80,WSW,255,0.0,13.0,70,0.00,,---,0.00,VWS V14.01,2013-11-09 15:19:00,
2013-11-09 10:20:00,50.3,41.3,29.80,WSW,252,0.0,13.0,71,0.00,,---,0.00,VWS V14.01,2013-11-09 15:20:00,
2013-11-09 10:21:00,50.4,41.4,29.80,WSW,258,0.0,4.0,71,0.00,,---,0.00,VWS V14.01,2013-11-09 15:21:00,
2013-11-09 10:22:00,50.4,41.4,29.80,WSW,255,0.0,4.0,71,0.00,,---,0.00,VWS V14.01,2013-11-09 15:22:00,
2013-11-09 10:23:00,50.4,41.0,29.80,WSW,240,0.0,4.0,70,0.00,,---,0.00,VWS V14.01,2013-11-09 15:23:00,
2013-11-09 10:24:00,50.5,41.1,29.80,WSW,240,0.0,4.0,70,0.00,,---,0.00,VWS V14.01,2013-11-09 15:24:00,
2013-11-09 10:25:00,50.5,41.1,29.80,West,276,3.0,6.0,70,0.00,,---,0.00,VWS V14.01,2013-11-09 15:25:00,
2013-11-09 10:26:00,50.6,41.2,29.80,WSW,240,1.0,7.0,70,0.00,,---,0.00,VWS V14.01,2013-11-09 15:26:00,
2013-11-09 10:27:00,50.6,41.2,29.80,SW,231,0.0,7.0,70,0.00,,---,0.00,VWS V14.01,2013-11-09 15:27:00,
2013-11-09 10:28:00,50.7,41.3,29.80,SW,231,1.0,7.0,70,0.00,,---,0.00,VWS V14.01,2013-11-09 15:28:00,
2013-11-09 10:29:00,50.7,41.3,29.80,West,276,1.0,7.0,70,0.00,,---,0.00,VWS V14.01,2013-11-09 15:29:00,
2013-11-09 10:30:00,50.7,41.3,29.80,WSW,245,0.0,7.0,70,0.00,,---,0.00,VWS V14.01,2013-11-09 15:30:00,
2013-11-09 10:31:00,50.8,41.4,29.80,SW,226,4.0,4.0,70,0.00,,---,0.00,VWS V14.01,2013-11-09 15:31:00,
2013-11-09 10:32:00,50.8,41.4,29.80,WSW,256,3.0,12.0,70,0.00,,---,0.00,VWS V14.01,2013-11-09 15:32:00,
2013-11-09 10:33:00,50.9,41.1,29.80,SW,228,1.0,12.0,69,0.00,,---,0.00,VWS V14.01,2013-11-09 15:33:00,
2013-11-09 10:34:00,50.9,41.1,29.80,SW,218,2.0,12.0,69,0.00,,---,0.00,VWS V14.01,2013-11-09 15:34:00,
2013-11-09 10:35:00,51.0,41.2,29.80,SW,219,3.0,12.0,69,0.00,,---,0.00,VWS V14.01,2013-11-09 15:35:00,
2013-11-09 10:36:00,51.0,41.6,29.80,WSW,237,0.0,3.0,70,0.00,,---,0.00,VWS V14.01,2013-11-09 15:36:00,
2013-11-09 10:37:00,51.0,41.6,29.80,WSW,240,0.0,9.0,70,0.00,,---,0.00,VWS V14.01,2013-11-09 15:37:00,
2013-11-09 10:38:00,51.1,41.3,29.80,SSW,198,0.0,9.0,69,0.00,,---,0.00,VWS V14.01,2013-11-09 15:38:00,
2013-11-09 10:39:00,51.1,41.3,29.80,WSW,251,1.0,9.0,69,0.00,,---,0.00,VWS V14.01,2013-11-09 15:39:00,
2013-11-09 10:40:00,51.1,41.3,29.80,SW,231,0.0,9.0,69,0.00,,---,0.00,VWS V14.01,2013-11-09 15:40:00,
2013-11-09 10:41:00,51.2,41.4,29.80,WSW,250,0.0,4.0,69,0.00,,---,0.00,VWS V14.01,2013-11-09 15:41:00,
2013-11-09 10:42:00,51.2,41.8,29.80,WSW,249,6.0,7.0,70,0.00,,---,0.00,VWS V14.01,2013-11-09 15:42:00,
2013-11-09 10:43:00,51.2,41.4,29.80,WSW,245,2.0,7.0,69,0.00,,---,0.00,VWS V14.01,2013-11-09 15:43:00,
2013-11-09 10:44:00,51.3,41.5,29.80,SE,133,0.0,7.0,69,0.00,,---,0.00,VWS V14.01,2013-11-09 15:44:00,
2013-11-09 10:45:00,51.3,41.5,29.80,WSW,252,3.0,7.0,69,0.00,,---,0.00,VWS V14.01,2013-11-09 15:45:00,
2013-11-09 10:46:00,51.3,41.5,29.80,SE,139,1.0,8.0,69,0.00,,---,0.00,VWS V14.01,2013-11-09 15:46:00,
2013-11-09 10:47:00,51.4,41.6,29.80,ESE,112,0.0,8.0,69,0.00,,---,0.00,VWS V14.01,2013-11-09 15:47:00,
2013-11-09 10:48:00,51.4,41.2,29.80,SW,234,0.0,8.0,68,0.00,,---,0.00,VWS V14.01,2013-11-09 15:48:00,
2013-11-09 10:49:00,51.4,41.6,29.80,WSW,242,2.0,8.0,69,0.00,,---,0.00,VWS V14.01,2013-11-09 15:49:00,
2013-11-09 10:50:00,51.4,41.6,29.80,North,11,1.0,8.0,69,0.00,,---,0.00,VWS V14.01,2013-11-09 15:50:00,
2013-11-09 10:51:00,51.5,41.7,29.80,WSW,245,3.0,7.0,69,0.00,,---,0.00,VWS V14.01,2013-11-09 15:51:00,
2013-11-09 10:52:00,51.5,41.7,29.80,WSW,253,4.0,7.0,69,0.00,,---,0.00,VWS V14.01,2013-11-09 15:52:00,
2013-11-09 10:53:00,51.5,42.0,29.80,WSW,249,3.0,7.0,70,0.00,,---,0.00,VWS V14.01,2013-11-09 15:53:00,
2013-11-09 10:54:00,51.6,42.2,29.80,WNW,282,1.0,7.0,70,0.00,,---,0.00,VWS V14.01,2013-11-09 15:54:00,
2013-11-09 10:55:00,51.6,42.2,29.80,SW,229,2.0,7.0,70,0.00,,---,0.00,VWS V14.01,2013-11-09 15:55:00,
2013-11-09 10:56:00,51.7,41.9,29.80,WSW,250,4.0,6.0,69,0.00,,---,0.00,VWS V14.01,2013-11-09 15:56:00,
2013-11-09 10:57:00,51.7,41.9,29.80,WSW,239,3.0,6.0,69,0.00,,---,0.00,VWS V14.01,2013-11-09 15:57:00,
2013-11-09 10:58:00,51.7,41.9,29.80,WSW,249,1.0,6.0,69,0.00,,---,0.00,VWS V14.01,2013-11-09 15:58:00,
2013-11-09 10:59:00,51.7,41.9,29.80,WSW,248,4.0,6.0,69,0.00,,---,0.00,VWS V14.01,2013-11-09 15:59:00,
2013-11-09 11:00:00,51.7,41.9,29.80,West,276,1.0,6.0,69,0.00,,---,0.00,VWS V14.01,2013-11-09 16:00:00,
2013-11-09 11:01:00,51.7,41.9,29.80,SW,231,1.0,4.0,69,0.00,,---,0.00,VWS V14.01,2013-11-09 16:01:00,
2013-11-09 11:02:00,51.8,42.0,29.80,SSW,213,3.0,5.0,69,0.00,,---,0.00,VWS V14.01,2013-11-09 16:02:00,
2013-11-09 11:03:00,51.8,42.0,29.80,WSW,252,0.0,5.0,69,0.00,,---,0.00,VWS V14.01,2013-11-09 16:03:00,
2013-11-09 11:04:00,51.8,42.0,29.80,WSW,248,0.0,5.0,69,0.00,,---,0.00,VWS V14.01,2013-11-09 16:04:00,
2013-11-09 11:05:00,51.8,42.0,29.80,West,278,3.0,5.0,69,0.00,,---,0.00,VWS V14.01,2013-11-09 16:05:00,
2013-11-09 11:06:00,51.8,42.0,29.80,WSW,247,0.0,5.0,69,0.00,,---,0.00,VWS V14.01,2013-11-09 16:06:00,
2013-11-09 11:07:00,51.9,42.1,29.80,West,275,5.0,5.0,69,0.00,,---,0.00,VWS V14.01,2013-11-09 16:07:00,
2013-11-09 11:08:00,51.9,42.1,29.80,NNW,329,2.0,10.0,69,0.00,,---,0.00,VWS V14.01,2013-11-09 16:08:00,
2013-11-09 11:09:00,51.9,42.1,29.80,West,268,0.0,10.0,69,0.00,,---,0.00,VWS V14.01,2013-11-09 16:09:00,
2013-11-09 11:10:00,51.9,42.1,29.80,WSW,250,4.0,10.0,69,0.00,,---,0.00,VWS V14.01,2013-11-09 16:10:00,
2013-11-09 11:11:00,51.9,42.1,29.80,SW,224,2.0,3.0,69,0.00,,---,0.00,VWS V14.01,2013-11-09 16:11:00,
2013-11-09 11:12:00,52.0,42.2,29.80,West,264,2.0,6.0,69,0.00,,---,0.00,VWS V14.01,2013-11-09 16:12:00,
2013-11-09 11:13:00,52.1,42.2,29.80,West,263,0.0,6.0,69,0.00,,---,0.00,VWS V14.01,2013-11-09 16:13:00,
2013-11-09 11:14:00,52.1,42.6,29.80,WNW,295,5.0,6.0,70,0.00,,---,0.00,VWS V14.01,2013-11-09 16:14:00,
2013-11-09 11:15:00,52.1,42.2,29.80,WSW,250,4.0,6.0,69,0.00,,---,0.00,VWS V14.01,2013-11-09 16:15:00,
2013-11-09 11:16:00,52.2,42.3,29.80,WNW,296,10.0,10.0,69,0.00,,---,0.00,VWS V14.01,2013-11-09 16:16:00,
2013-11-09 11:17:00,52.2,42.3,29.80,SE,133,1.0,10.0,69,0.00,,---,0.00,VWS V14.01,2013-11-09 16:17:00,
2013-11-09 11:18:00,52.3,42.1,29.80,WSW,249,4.0,10.0,68,0.00,,---,0.00,VWS V14.01,2013-11-09 16:18:00,
2013-11-09 11:19:00,52.3,42.1,29.80,SW,222,1.0,10.0,68,0.00,,---,0.00,VWS V14.01,2013-11-09 16:19:00,
2013-11-09 11:20:00,52.4,42.5,29.80,East,90,1.0,10.0,69,0.00,,---,0.00,VWS V14.01,2013-11-09 16:20:00,
2013-11-09 11:21:00,52.4,42.5,29.80,SSE,161,0.0,3.0,69,0.00,,---,0.00,VWS V14.01,2013-11-09 16:21:00,
2013-11-09 11:22:00,52.5,42.6,29.80,WSW,246,7.0,7.0,69,0.00,,---,0.00,VWS V14.01,2013-11-09 16:22:00,
2013-11-09 11:23:00,52.5,42.6,29.80,WNW,287,4.0,7.0,69,0.00,,---,0.00,VWS V14.01,2013-11-09 16:23:00,
2013-11-09 11:24:00,52.6,42.7,29.80,WNW,285,1.0,7.0,69,0.00,,---,0.00,VWS V14.01,2013-11-09 16:24:00,
2013-11-09 11:25:00,52.6,42.7,29.80,NW,321,3.0,7.0,69,0.00,,---,0.00,VWS V14.01,2013-11-09 16:25:00,
2013-11-09 11:26:00,52.7,42.8,29.80,WNW,288,1.0,5.0,69,0.00,,---,0.00,VWS V14.01,2013-11-09 16:26:00,
2013-11-09 11:27:00,52.7,42.8,29.80,West,272,1.0,5.0,69,0.00,,---,0.00,VWS V14.01,2013-11-09 16:27:00,
2013-11-09 11:28:00,52.8,42.9,29.80,SSE,158,0.0,5.0,69,0.00,,---,0.00,VWS V14.01,2013-11-09 16:28:00,
2013-11-09 11:29:00,52.8,42.9,29.80,WSW,246,1.0,5.0,69,0.00,,---,0.00,VWS V14.01,2013-11-09 16:29:00,
2013-11-09 11:30:00,52.9,43.0,29.79,West,280,0.0,5.0,69,0.00,,---,0.00,VWS V14.01,2013-11-09 16:30:00,
2013-11-09 11:31:00,52.9,43.0,29.79,WSW,245,0.0,1.0,69,0.00,,---,0.00,VWS V14.01,2013-11-09 16:31:00,
2013-11-09 11:32:00,53.0,43.1,29.79,WSW,256,7.0,7.0,69,0.00,,---,0.00,VWS V14.01,2013-11-09 16:32:00,
2013-11-09 11:33:00,53.0,42.7,29.79,WSW,250,1.0,7.0,68,0.00,,---,0.00,VWS V14.01,2013-11-09 16:33:00,
2013-11-09 11:34:00,53.1,42.8,29.79,WSW,255,1.0,7.0,68,0.00,,---,0.00,VWS V14.01,2013-11-09 16:34:00,
2013-11-09 11:35:00,53.2,42.9,29.79,WSW,256,4.0,11.0,68,0.00,,---,0.00,VWS V14.01,2013-11-09 16:35:00,
2013-11-09 11:36:00,53.3,43.0,29.79,SSW,207,0.0,4.0,68,0.00,,---,0.00,VWS V14.01,2013-11-09 16:36:00,
2013-11-09 11:37:00,53.3,43.0,29.79,SSE,168,0.0,4.0,68,0.00,,---,0.00,VWS V14.01,2013-11-09 16:37:00,
2013-11-09 11:38:00,53.3,43.0,29.79,SW,231,0.0,6.0,68,0.00,,---,0.00,VWS V14.01,2013-11-09 16:38:00,
2013-11-09 11:39:00,53.4,42.7,29.79,WSW,245,2.0,6.0,67,0.00,,---,0.00,VWS V14.01,2013-11-09 16:39:00,
2013-11-09 11:40:00,53.5,42.8,29.79,SSE,166,1.0,6.0,67,0.00,,---,0.00,VWS V14.01,2013-11-09 16:40:00,
2013-11-09 11:41:00,53.5,42.8,29.79,SSE,157,0.0,2.0,67,0.00,,---,0.00,VWS V14.01,2013-11-09 16:41:00,
2013-11-09 11:42:00,53.5,42.8,29.79,NNE,19,0.0,5.0,67,0.00,,---,0.00,VWS V14.01,2013-11-09 16:42:00,
2013-11-09 11:43:00,53.6,42.9,29.79,WSW,244,3.0,5.0,67,0.00,,---,0.00,VWS V14.01,2013-11-09 16:43:00,
2013-11-09 11:44:00,53.6,42.9,29.79,North,359,0.0,5.0,67,0.00,,---,0.00,VWS V14.01,2013-11-09 16:44:00,
2013-11-09 11:45:00,53.7,43.0,29.79,West,262,1.0,5.0,67,0.00,,---,0.00,VWS V14.01,2013-11-09 16:45:00,
2013-11-09 11:46:00,53.7,43.0,29.79,West,277,0.0,5.0,67,0.00,,---,0.00,VWS V14.01,2013-11-09 16:46:00,
2013-11-09 11:47:00,53.8,43.1,29.79,WSW,247,5.0,5.0,67,0.00,,---,0.00,VWS V14.01,2013-11-09 16:47:00,
2013-11-09 11:48:00,53.9,43.2,29.79,WNW,303,5.0,5.0,67,0.00,,---,0.00,VWS V14.01,2013-11-09 16:48:00,
2013-11-09 11:49:00,54.0,43.7,29.79,WSW,251,2.0,5.0,68,0.00,,---,0.00,VWS V14.01,2013-11-09 16:49:00,
2013-11-09 11:50:00,54.1,43.4,29.79,SW,221,3.0,5.0,67,0.00,,---,0.00,VWS V14.01,2013-11-09 16:50:00,
2013-11-09 11:51:00,54.2,43.1,29.79,SW,221,5.0,5.0,66,0.00,,---,0.00,VWS V14.01,2013-11-09 16:51:00,
2013-11-09 11:52:00,54.2,43.1,29.79,NE,46,0.0,5.0,66,0.00,,---,0.00,VWS V14.01,2013-11-09 16:52:00,
2013-11-09 11:53:00,54.3,43.2,29.79,West,260,2.0,9.0,66,0.00,,---,0.00,VWS V14.01,2013-11-09 16:53:00,
2013-11-09 11:54:00,54.3,43.2,29.79,South,169,2.0,9.0,66,0.00,,---,0.00,VWS V14.01,2013-11-09 16:54:00,
2013-11-09 11:55:00,54.4,43.7,29.79,SSW,209,1.0,9.0,67,0.00,,---,0.00,VWS V14.01,2013-11-09 16:55:00,
2013-11-09 11:56:00,54.5,43.4,29.79,SW,226,3.0,3.0,66,0.00,,---,0.00,VWS V14.01,2013-11-09 16:56:00,
2013-11-09 11:57:00,54.5,43.4,29.79,West,281,0.0,3.0,66,0.00,,---,0.00,VWS V14.01,2013-11-09 16:57:00,
2013-11-09 11:58:00,54.5,43.4,29.79,West,262,5.0,6.0,66,0.00,,---,0.00,VWS V14.01,2013-11-09 16:58:00,
2013-11-09 11:59:00,54.6,43.5,29.79,West,264,2.0,7.0,66,0.00,,---,0.00,VWS V14.01,2013-11-09 16:59:00,
2013-11-09 12:00:00,54.6,43.5,29.78,WSW,238,1.0,7.0,66,0.00,,---,0.00,VWS V14.01,2013-11-09 17:00:00,
2013-11-09 12:01:00,54.7,43.2,29.78,SW,228,1.0,4.0,65,0.00,,---,0.00,VWS V14.01,2013-11-09 17:01:00,
2013-11-09 12:02:00,54.8,43.3,29.78,WSW,238,3.0,8.0,65,0.00,,---,0.00,VWS V14.01,2013-11-09 17:02:00,
2013-11-09 12:03:00,54.8,43.3,29.78,SW,234,1.0,8.0,65,0.00,,---,0.00,VWS V14.01,2013-11-09 17:03:00,
2013-11-09 12:04:00,54.9,43.4,29.78,SW,229,4.0,8.0,65,0.00,,---,0.00,VWS V14.01,2013-11-09 17:04:00,
2013-11-09 12:05:00,54.9,43.4,29.78,SW,220,1.0,8.0,65,0.00,,---,0.00,VWS V14.01,2013-11-09 17:05:00,
2013-11-09 12:06:00,55.0,43.5,29.78,SW,221,0.0,2.0,65,0.00,,---,0.00,VWS V14.01,2013-11-09 17:06:00,
2013-11-09 12:07:00,55.1,43.6,29.78,West,266,0.0,4.0,65,0.00,,---,0.00,VWS V14.01,2013-11-09 17:07:00,
2013-11-09 12:08:00,55.1,43.6,29.78,SW,218,2.0,4.0,65,0.00,,---,0.00,VWS V14.01,2013-11-09 17:08:00,
2013-11-09 12:09:00,55.1,43.2,29.78,SW,225,4.0,5.0,64,0.00,,---,0.00,VWS V14.01,2013-11-09 17:09:00,
2013-11-09 12:10:00,55.1,43.2,29.78,WSW,245,0.0,7.0,64,0.00,,---,0.00,VWS V14.01,2013-11-09 17:10:00,
2013-11-09 12:11:00,55.1,43.6,29.78,West,268,3.0,3.0,65,0.00,,---,0.00,VWS V14.01,2013-11-09 17:11:00,
2013-11-09 12:12:00,55.1,44.0,29.78,WSW,252,0.0,6.0,66,0.00,,---,0.00,VWS V14.01,2013-11-09 17:12:00,
2013-11-09 12:13:00,55.2,43.7,29.78,WSW,240,1.0,6.0,65,0.00,,---,0.00,VWS V14.01,2013-11-09 17:13:00,
2013-11-09 12:14:00,55.2,43.7,29.78,West,259,6.0,7.0,65,0.00,,---,0.00,VWS V14.01,2013-11-09 17:14:00,
2013-11-09 12:15:00,55.2,43.7,29.78,WSW,244,5.0,7.0,65,0.00,,---,0.00,VWS V14.01,2013-11-09 17:15:00,
2013-11-09 12:16:00,55.2,43.7,29.78,SW,229,0.0,5.0,65,0.00,,---,0.00,VWS V14.01,2013-11-09 17:16:00,
2013-11-09 12:17:00,55.3,43.8,29.78,WSW,250,4.0,6.0,65,0.00,,---,0.00,VWS V14.01,2013-11-09 17:17:00,
2013-11-09 12:18:00,55.3,43.8,29.78,SSE,155,0.0,6.0,65,0.00,,---,0.00,VWS V14.01,2013-11-09 17:18:00,
2013-11-09 12:19:00,55.3,43.3,29.78,WSW,240,0.0,6.0,64,0.00,,---,0.00,VWS V14.01,2013-11-09 17:19:00,
2013-11-09 12:20:00,55.4,43.8,29.78,SW,236,0.0,7.0,65,0.00,,---,0.00,VWS V14.01,2013-11-09 17:20:00,
2013-11-09 12:21:00,55.6,44.0,29.78,SW,219,0.0,3.0,65,0.00,,---,0.00,VWS V14.01,2013-11-09 17:21:00,
2013-11-09 12:22:00,55.7,44.1,29.78,SW,227,2.0,3.0,65,0.00,,---,0.00,VWS V14.01,2013-11-09 17:22:00,
2013-11-09 12:23:00,55.7,44.1,29.78,SW,227,0.0,3.0,65,0.00,,---,0.00,VWS V14.01,2013-11-09 17:23:00,
2013-11-09 12:24:00,55.8,44.2,29.78,WSW,248,0.0,3.0,65,0.00,,---,0.00,VWS V14.01,2013-11-09 17:24:00,
2013-11-09 12:25:00,55.8,44.2,29.78,NNE,13,0.0,3.0,65,0.00,,---,0.00,VWS V14.01,2013-11-09 17:25:00,
2013-11-09 12:26:00,55.9,43.9,29.78,WSW,245,0.0,5.0,64,0.00,,---,0.00,VWS V14.01,2013-11-09 17:26:00,
2013-11-09 12:27:00,55.9,43.9,29.78,SW,232,2.0,5.0,64,0.00,,---,0.00,VWS V14.01,2013-11-09 17:27:00,
2013-11-09 12:28:00,55.9,43.9,29.78,WSW,255,3.0,7.0,64,0.00,,---,0.00,VWS V14.01,2013-11-09 17:28:00,
2013-11-09 12:29:00,55.9,43.9,29.78,SSE,155,0.0,7.0,64,0.00,,---,0.00,VWS V14.01,2013-11-09 17:29:00,
2013-11-09 12:30:00,55.9,43.9,29.77,West,276,0.0,7.0,64,0.00,,---,0.00,VWS V14.01,2013-11-09 17:30:00,
2013-11-09 12:31:00,55.9,43.9,29.77,WSW,245,0.0,4.0,64,0.00,,---,0.00,VWS V14.01,2013-11-09 17:31:00,
2013-11-09 12:32:00,55.9,43.9,29.77,SSE,157,4.0,4.0,64,0.00,,---,0.00,VWS V14.01,2013-11-09 17:32:00,
2013-11-09 12:33:00,55.9,43.5,29.77,SSW,200,1.0,5.0,63,0.00,,---,0.00,VWS V14.01,2013-11-09 17:33:00,
2013-11-09 12:34:00,55.9,43.9,29.77,SW,231,2.0,5.0,64,0.00,,---,0.00,VWS V14.01,2013-11-09 17:34:00,
2013-11-09 12:35:00,55.9,43.5,29.77,WNW,287,4.0,12.0,63,0.00,,---,0.00,VWS V14.01,2013-11-09 17:35:00,
2013-11-09 12:36:00,55.9,43.9,29.77,WSW,252,1.0,5.0,64,0.00,,---,0.00,VWS V14.01,2013-11-09 17:36:00,
2013-11-09 12:37:00,55.9,43.9,29.77,West,280,4.0,5.0,64,0.00,,---,0.00,VWS V14.01,2013-11-09 17:37:00,
2013-11-09 12:38:00,56.0,44.0,29.77,WSW,257,0.0,5.0,64,0.00,,---,0.00,VWS V14.01,2013-11-09 17:38:00,
2013-11-09 12:39:00,56.0,44.0,29.77,WSW,241,0.0,5.0,64,0.00,,---,0.00,VWS V14.01,2013-11-09 17:39:00,
2013-11-09 12:40:00,56.1,44.1,29.77,WSW,240,0.0,5.0,64,0.00,,---,0.00,VWS V14.01,2013-11-09 17:40:00,
2013-11-09 12:41:00,56.2,44.2,29.77,WSW,245,1.0,3.0,64,0.00,,---,0.00,VWS V14.01,2013-11-09 17:41:00,
2013-11-09 12:42:00,56.2,44.2,29.77,West,274,3.0,3.0,64,0.00,,---,0.00,VWS V14.01,2013-11-09 17:42:00,
2013-11-09 12:43:00,56.3,43.9,29.77,West,261,1.0,5.0,63,0.00,,---,0.00,VWS V14.01,2013-11-09 17:43:00,
2013-11-09 12:44:00,56.4,44.0,29.77,SE,143,0.0,5.0,63,0.00,,---,0.00,VWS V14.01,2013-11-09 17:44:00,
2013-11-09 12:45:00,56.4,44.0,29.77,WSW,250,3.0,5.0,63,0.00,,---,0.00,VWS V14.01,2013-11-09 17:45:00,
2013-11-09 12:46:00,56.5,44.1,29.77,SSE,156,0.0,5.0,63,0.00,,---,0.00,VWS V14.01,2013-11-09 17:46:00,
2013-11-09 12:47:00,56.6,44.2,29.77,SSW,195,0.0,5.0,63,0.00,,---,0.00,VWS V14.01,2013-11-09 17:47:00,
2013-11-09 12:48:00,56.6,43.8,29.77,West,264,2.0,5.0,62,0.00,,---,0.00,VWS V14.01,2013-11-09 17:48:00,
2013-11-09 12:49:00,56.6,43.8,29.77,WSW,240,1.0,5.0,62,0.00,,---,0.00,VWS V14.01,2013-11-09 17:49:00,
2013-11-09 12:50:00,56.7,44.3,29.77,SSW,209,0.0,5.0,63,0.00,,---,0.00,VWS V14.01,2013-11-09 17:50:00,
2013-11-09 12:51:00,56.7,44.3,29.77,WSW,239,3.0,3.0,63,0.00,,---,0.00,VWS V14.01,2013-11-09 17:51:00,
2013-11-09 12:52:00,56.8,43.9,29.77,SE,143,1.0,4.0,62,0.00,,---,0.00,VWS V14.01,2013-11-09 17:52:00,
2013-11-09 12:53:00,56.8,43.9,29.77,SE,143,4.0,5.0,62,0.00,,---,0.00,VWS V14.01,2013-11-09 17:53:00,
2013-11-09 12:54:00,56.8,43.9,29.77,WSW,238,1.0,6.0,62,0.00,,---,0.00,VWS V14.01,2013-11-09 17:54:00,
2013-11-09 12:55:00,56.9,44.0,29.77,West,276,0.0,6.0,62,0.00,,---,0.00,VWS V14.01,2013-11-09 17:55:00,
2013-11-09 12:56:00,56.9,44.0,29.77,West,260,0.0,7.0,62,0.00,,---,0.00,VWS V14.01,2013-11-09 17:56:00,
2013-11-09 12:57:00,56.9,44.0,29.77,WNW,290,3.0,7.0,62,0.00,,---,0.00,VWS V14.01,2013-11-09 17:57:00,
2013-11-09 12:58:00,57.0,44.1,29.77,SW,228,2.0,7.0,62,0.00,,---,0.00,VWS V14.01,2013-11-09 17:58:00,
2013-11-09 12:59:00,57.0,44.1,29.77,WSW,257,4.0,7.0,62,0.00,,---,0.00,VWS V14.01,2013-11-09 17:59:00,
2013-11-09 13:00:00,57.0,43.7,29.77,SSW,209,2.0,7.0,61,0.00,,---,0.00,VWS V14.01,2013-11-09 18:00:00,
2013-11-09 13:01:00,56.9,43.6,29.77,WSW,238,0.0,10.0,61,0.00,,---,0.00,VWS V14.01,2013-11-09 18:01:00,
2013-11-09 13:02:00,56.9,44.0,29.77,WSW,253,0.0,10.0,62,0.00,,---,0.00,VWS V14.01,2013-11-09 18:02:00,
2013-11-09 13:03:00,56.8,44.3,29.77,WNW,291,0.0,10.0,63,0.00,,---,0.00,VWS V14.01,2013-11-09 18:03:00,
2013-11-09 13:04:00,56.8,44.3,29.77,South,190,0.0,10.0,63,0.00,,---,0.00,VWS V14.01,2013-11-09 18:04:00,
2013-11-09 13:05:00,56.8,43.5,29.77,WSW,240,0.0,10.0,61,0.00,,---,0.00,VWS V14.01,2013-11-09 18:05:00,
2013-11-09 13:06:00,56.7,43.4,29.77,ESE,106,6.0,6.0,61,0.00,,---,0.00,VWS V14.01,2013-11-09 18:06:00,
2013-11-09 13:07:00,56.7,43.8,29.77,WNW,300,9.0,9.0,62,0.00,,---,0.00,VWS V14.01,2013-11-09 18:07:00,
2013-11-09 13:08:00,56.6,43.8,29.77,WSW,245,4.0,9.0,62,0.00,,---,0.00,VWS V14.01,2013-11-09 18:08:00,
2013-11-09 13:09:00,56.6,43.3,29.77,SW,233,2.0,9.0,61,0.00,,---,0.00,VWS V14.01,2013-11-09 18:09:00,
2013-11-09 13:10:00,56.7,43.8,29.77,WSW,249,2.0,9.0,62,0.00,,---,0.00,VWS V14.01,2013-11-09 18:10:00,
2013-11-09 13:11:00,56.7,43.4,29.77,SE,128,3.0,3.0,61,0.00,,---,0.00,VWS V14.01,2013-11-09 18:11:00,
2013-11-09 13:12:00,56.7,43.0,29.77,SSE,166,4.0,4.0,60,0.00,,---,0.00,VWS V14.01,2013-11-09 18:12:00,
2013-11-09 13:13:00,56.8,43.5,29.77,WSW,247,0.0,4.0,61,0.00,,---,0.00,VWS V14.01,2013-11-09 18:13:00,
2013-11-09 13:14:00,56.9,43.6,29.77,NW,308,3.0,4.0,61,0.00,,---,0.00,VWS V14.01,2013-11-09 18:14:00,
2013-11-09 13:15:00,57.0,43.3,29.78,West,278,0.0,4.0,60,0.00,,---,0.00,VWS V14.01,2013-11-09 18:15:00,
2013-11-09 13:16:00,57.0,43.7,29.78,SW,231,0.0,3.0,61,0.00,,---,0.00,VWS V14.01,2013-11-09 18:16:00,
2013-11-09 13:17:00,57.1,43.8,29.78,West,261,3.0,3.0,61,0.00,,---,0.00,VWS V14.01,2013-11-09 18:17:00,
2013-11-09 13:18:00,57.2,43.9,29.78,WSW,250,0.0,5.0,61,0.00,,---,0.00,VWS V14.01,2013-11-09 18:18:00,
2013-11-09 13:19:00,57.2,43.5,29.78,WSW,245,3.0,5.0,60,0.00,,---,0.00,VWS V14.01,2013-11-09 18:19:00,
2013-11-09 13:20:00,57.1,43.4,29.78,WNW,290,0.0,5.0,60,0.00,,---,0.00,VWS V14.01,2013-11-09 18:20:00,
2013-11-09 13:21:00,57.1,43.8,29.78,WNW,292,3.0,3.0,61,0.00,,---,0.00,VWS V14.01,2013-11-09 18:21:00,
2013-11-09 13:22:00,57.2,44.3,29.78,NW,322,3.0,4.0,62,0.00,,---,0.00,VWS V14.01,2013-11-09 18:22:00,
2013-11-09 13:23:00,57.2,43.9,29.78,WSW,240,1.0,6.0,61,0.00,,---,0.00,VWS V14.01,2013-11-09 18:23:00,
2013-11-09 13:24:00,57.2,43.5,29.78,WSW,249,4.0,6.0,60,0.00,,---,0.00,VWS V14.01,2013-11-09 18:24:00,
2013-11-09 13:25:00,57.1,43.4,29.78,South,179,0.0,6.0,60,0.00,,---,0.00,VWS V14.01,2013-11-09 18:25:00,
2013-11-09 13:26:00,57.1,43.4,29.78,SW,236,1.0,1.0,60,0.00,,---,0.00,VWS V14.01,2013-11-09 18:26:00,
2013-11-09 13:27:00,57.2,43.9,29.78,West,276,0.0,4.0,61,0.00,,---,0.00,VWS V14.01,2013-11-09 18:27:00,
2013-11-09 13:28:00,57.3,43.5,29.78,West,269,1.0,4.0,60,0.00,,---,0.00,VWS V14.01,2013-11-09 18:28:00,
2013-11-09 13:29:00,57.4,44.1,29.78,WNW,288,0.0,4.0,61,0.00,,---,0.00,VWS V14.01,2013-11-09 18:29:00,
2013-11-09 13:30:00,57.5,44.6,29.77,WSW,241,0.0,4.0,62,0.00,,---,0.00,VWS V14.01,2013-11-09 18:30:00,
2013-11-09 13:31:00,57.6,44.3,29.77,WSW,238,1.0,2.0,61,0.00,,---,0.00,VWS V14.01,2013-11-09 18:31:00,
2013-11-09 13:32:00,57.7,44.4,29.77,SW,233,3.0,3.0,61,0.00,,---,0.00,VWS V14.01,2013-11-09 18:32:00,
2013-11-09 13:33:00,57.7,43.5,29.77,WSW,237,0.0,5.0,59,0.00,,---,0.00,VWS V14.01,2013-11-09 18:33:00,
2013-11-09 13:34:00,57.7,43.5,29.77,SE,124,1.0,8.0,59,0.00,,---,0.00,VWS V14.01,2013-11-09 18:34:00,
2013-11-09 13:35:00,57.6,43.4,29.77,SW,236,5.0,8.0,59,0.00,,---,0.00,VWS V14.01,2013-11-09 18:35:00,
2013-11-09 13:36:00,57.6,43.8,29.77,West,274,5.0,6.0,60,0.00,,---,0.00,VWS V14.01,2013-11-09 18:36:00,
2013-11-09 13:37:00,57.5,43.3,29.77,South,182,0.0,6.0,59,0.00,,---,0.00,VWS V14.01,2013-11-09 18:37:00,
2013-11-09 13:38:00,57.4,43.2,29.77,SW,231,1.0,9.0,59,0.00,,---,0.00,VWS V14.01,2013-11-09 18:38:00,
2013-11-09 13:39:00,57.4,43.2,29.77,West,259,6.0,9.0,59,0.00,,---,0.00,VWS V14.01,2013-11-09 18:39:00,
2013-11-09 13:40:00,57.4,43.2,29.77,WSW,244,0.0,9.0,59,0.00,,---,0.00,VWS V14.01,2013-11-09 18:40:00,
2013-11-09 13:41:00,57.4,43.6,29.77,West,278,0.0,1.0,60,0.00,,---,0.00,VWS V14.01,2013-11-09 18:41:00,
2013-11-09 13:42:00,57.5,43.3,29.77,SE,142,1.0,4.0,59,0.00,,---,0.00,VWS V14.01,2013-11-09 18:42:00,
2013-11-09 13:43:00,57.6,43.4,29.77,SW,221,0.0,4.0,59,0.00,,---,0.00,VWS V14.01,2013-11-09 18:43:00,
2013-11-09 13:44:00,57.6,43.0,29.77,WSW,250,4.0,5.0,58,0.00,,---,0.00,VWS V14.01,2013-11-09 18:44:00,
2013-11-09 13:45:00,57.6,43.4,29.77,SSW,207,0.0,6.0,59,0.00,,---,0.00,VWS V14.01,2013-11-09 18:45:00,
2013-11-09 13:46:00,57.6,43.4,29.77,SW,236,3.0,5.0,59,0.00,,---,0.00,VWS V14.01,2013-11-09 18:46:00,
2013-11-09 13:47:00,57.6,43.8,29.77,WSW,240,5.0,5.0,60,0.00,,---,0.00,VWS V14.01,2013-11-09 18:47:00,
2013-11-09 13:48:00,57.6,43.4,29.77,WSW,243,3.0,5.0,59,0.00,,---,0.00,VWS V14.01,2013-11-09 18:48:00,
2013-11-09 13:49:00,57.6,43.4,29.77,WSW,245,5.0,7.0,59,0.00,,---,0.00,VWS V14.01,2013-11-09 18:49:00,
2013-11-09 13:50:00,57.6,43.4,29.77,SSW,207,1.0,7.0,59,0.00,,---,0.00,VWS V14.01,2013-11-09 18:50:00,
2013-11-09 13:51:00,57.6,43.4,29.77,SSW,213,0.0,2.0,59,0.00,,---,0.00,VWS V14.01,2013-11-09 18:51:00,
2013-11-09 13:52:00,57.5,43.3,29.77,NNW,331,3.0,6.0,59,0.00,,---,0.00,VWS V14.01,2013-11-09 18:52:00,
2013-11-09 13:53:00,57.5,43.3,29.77,West,263,4.0,6.0,59,0.00,,---,0.00,VWS V14.01,2013-11-09 18:53:00,
2013-11-09 13:54:00,57.5,43.3,29.77,WSW,250,1.0,6.0,59,0.00,,---,0.00,VWS V14.01,2013-11-09 18:54:00,
2013-11-09 13:55:00,57.5,43.7,29.77,WSW,242,0.0,6.0,60,0.00,,---,0.00,VWS V14.01,2013-11-09 18:55:00,
2013-11-09 13:56:00,57.4,43.6,29.77,WSW,243,0.0,5.0,60,0.00,,---,0.00,VWS V14.01,2013-11-09 18:56:00,
2013-11-09 13:57:00,57.4,43.2,29.77,West,259,4.0,5.0,59,0.00,,---,0.00,VWS V14.01,2013-11-09 18:57:00,
2013-11-09 13:58:00,57.4,43.2,29.77,SW,222,2.0,5.0,59,0.00,,---,0.00,VWS V14.01,2013-11-09 18:58:00,
2013-11-09 13:59:00,57.3,43.1,29.77,South,174,0.0,9.0,59,0.00,,---,0.00,VWS V14.01,2013-11-09 18:59:00,
2013-11-09 14:00:00,57.3,43.1,29.77,SW,236,5.0,9.0,59,0.00,,---,0.00,VWS V14.01,2013-11-09 19:00:00,
2013-11-09 14:01:00,57.3,43.1,29.77,South,169,1.0,5.0,59,0.00,,---,0.00,VWS V14.01,2013-11-09 19:01:00,
2013-11-09 14:02:00,57.2,43.0,29.77,SW,220,1.0,5.0,59,0.00,,---,0.00,VWS V14.01,2013-11-09 19:02:00,
2013-11-09 14:03:00,57.2,43.0,29.77,SW,231,1.0,5.0,59,0.00,,---,0.00,VWS V14.01,2013-11-09 19:03:00,
2013-11-09 14:04:00,57.2,43.0,29.77,SW,226,2.0,5.0,59,0.00,,---,0.00,VWS V14.01,2013-11-09 19:04:00,
2013-11-09 14:05:00,57.2,43.0,29.77,West,262,3.0,5.0,59,0.00,,---,0.00,VWS V14.01,2013-11-09 19:05:00,
2013-11-09 14:06:00,57.2,43.0,29.77,WSW,247,0.0,3.0,59,0.00,,---,0.00,VWS V14.01,2013-11-09 19:06:00,
2013-11-09 14:07:00,57.2,43.0,29.77,SW,233,0.0,3.0,59,0.00,,---,0.00,VWS V14.01,2013-11-09 19:07:00,
2013-11-09 14:08:00,57.2,43.0,29.77,West,273,2.0,3.0,59,0.00,,---,0.00,VWS V14.01,2013-11-09 19:08:00,
2013-11-09 14:09:00,57.2,43.0,29.77,West,273,2.0,3.0,59,0.00,,---,0.00,VWS V14.01,2013-11-09 19:09:00,
2013-11-09 14:10:00,57.3,43.5,29.77,West,276,2.0,4.0,60,0.00,,---,0.00,VWS V14.01,2013-11-09 19:10:00,
2013-11-09 14:11:00,57.3,43.5,29.77,WNW,295,1.0,5.0,60,0.00,,---,0.00,VWS V14.01,2013-11-09 19:11:00,
2013-11-09 14:12:00,57.3,43.1,29.77,East,84,2.0,6.0,59,0.00,,---,0.00,VWS V14.01,2013-11-09 19:12:00,
2013-11-09 14:13:00,57.3,43.1,29.77,East,79,0.0,6.0,59,0.00,,---,0.00,VWS V14.01,2013-11-09 19:13:00,
2013-11-09 14:14:00,57.4,43.2,29.77,East,94,0.0,6.0,59,0.00,,---,0.00,VWS V14.01,2013-11-09 19:14:00,
2013-11-09 14:15:00,57.4,43.2,29.77,SW,217,2.0,6.0,59,0.00,,---,0.00,VWS V14.01,2013-11-09 19:15:00,
2013-11-09 14:16:00,57.4,43.2,29.77,West,261,1.0,2.0,59,0.00,,---,0.00,VWS V14.01,2013-11-09 19:16:00,
2013-11-09 14:17:00,57.5,43.7,29.77,WSW,255,2.0,3.0,60,0.00,,---,0.00,VWS V14.01,2013-11-09 19:17:00,
2013-11-09 14:18:00,57.6,43.8,29.77,WNW,284,2.0,6.0,60,0.00,,---,0.00,VWS V14.01,2013-11-09 19:18:00,
2013-11-09 14:19:00,57.7,44.4,29.77,West,279,0.0,6.0,61,0.00,,---,0.00,VWS V14.01,2013-11-09 19:19:00,
2013-11-09 14:20:00,57.8,44.5,29.77,WNW,290,2.0,6.0,61,0.00,,---,0.00,VWS V14.01,2013-11-09 19:20:00,
2013-11-09 14:21:00,57.9,43.2,29.77,WSW,258,0.0,3.0,58,0.00,,---,0.00,VWS V14.01,2013-11-09 19:21:00,
2013-11-09 14:22:00,58.0,43.3,29.77,SW,219,1.0,3.0,58,0.00,,---,0.00,VWS V14.01,2013-11-09 19:22:00,
2013-11-09 14:23:00,58.0,43.3,29.77,SSE,157,1.0,3.0,58,0.00,,---,0.00,VWS V14.01,2013-11-09 19:23:00,
2013-11-09 14:24:00,58.1,43.4,29.77,WSW,244,1.0,3.0,58,0.00,,---,0.00,VWS V14.01,2013-11-09 19:24:00,
2013-11-09 14:25:00,58.1,43.4,29.77,SSW,212,0.0,3.0,58,0.00,,---,0.00,VWS V14.01,2013-11-09 19:25:00,
2013-11-09 14:26:00,58.1,43.4,29.77,South,173,0.0,4.0,58,0.00,,---,0.00,VWS V14.01,2013-11-09 19:26:00,
2013-11-09 14:27:00,58.1,43.4,29.77,West,278,2.0,9.0,58,0.00,,---,0.00,VWS V14.01,2013-11-09 19:27:00,
2013-11-09 14:28:00,58.1,43.0,29.77,SW,236,0.0,9.0,57,0.00,,---,0.00,VWS V14.01,2013-11-09 19:28:00,
2013-11-09 14:29:00,58.1,43.0,29.77,NW,313,2.0,9.0,57,0.00,,---,0.00,VWS V14.01,2013-11-09 19:29:00,
2013-11-09 14:30:00,58.1,43.0,29.77,WSW,253,1.0,9.0,57,0.00,,---,0.00,VWS V14.01,2013-11-09 19:30:00,
2013-11-09 14:31:00,58.1,43.0,29.77,South,186,0.0,6.0,57,0.00,,---,0.00,VWS V14.01,2013-11-09 19:31:00,
2013-11-09 14:32:00,58.1,43.0,29.77,WNW,295,1.0,6.0,57,0.00,,---,0.00,VWS V14.01,2013-11-09 19:32:00,
2013-11-09 14:33:00,58.1,43.0,29.77,WSW,250,9.0,9.0,57,0.00,,---,0.00,VWS V14.01,2013-11-09 19:33:00,
2013-11-09 14:34:00,58.1,43.0,29.77,SW,233,0.0,9.0,57,0.00,,---,0.00,VWS V14.01,2013-11-09 19:34:00,
2013-11-09 14:35:00,58.0,42.9,29.77,West,264,4.0,9.0,57,0.00,,---,0.00,VWS V14.01,2013-11-09 19:35:00,
2013-11-09 14:36:00,58.0,42.9,29.77,WSW,248,3.0,6.0,57,0.00,,---,0.00,VWS V14.01,2013-11-09 19:36:00,
2013-11-09 14:37:00,57.9,42.8,29.77,West,276,5.0,8.0,57,0.00,,---,0.00,VWS V14.01,2013-11-09 19:37:00,
2013-11-09 14:38:00,57.9,42.8,29.77,WSW,252,2.0,8.0,57,0.00,,---,0.00,VWS V14.01,2013-11-09 19:38:00,
2013-11-09 14:39:00,57.8,42.7,29.77,West,264,1.0,8.0,57,0.00,,---,0.00,VWS V14.01,2013-11-09 19:39:00,
2013-11-09 14:40:00,57.8,43.1,29.77,WSW,250,3.0,8.0,58,0.00,,---,0.00,VWS V14.01,2013-11-09 19:40:00,
2013-11-09 14:41:00,57.7,43.0,29.77,SW,226,2.0,7.0,58,0.00,,---,0.00,VWS V14.01,2013-11-09 19:41:00,
2013-11-09 14:42:00,57.6,42.5,29.77,West,276,1.0,7.0,57,0.00,,---,0.00,VWS V14.01,2013-11-09 19:42:00,
2013-11-09 14:43:00,57.5,42.4,29.77,SW,233,4.0,7.0,57,0.00,,---,0.00,VWS V14.01,2013-11-09 19:43:00,
2013-11-09 14:44:00,57.5,42.4,29.77,WSW,241,1.0,7.0,57,0.00,,---,0.00,VWS V14.01,2013-11-09 19:44:00,
2013-11-09 14:45:00,57.5,42.4,29.78,WSW,245,0.0,7.0,57,0.00,,---,0.00,VWS V14.01,2013-11-09 19:45:00,
2013-11-09 14:46:00,57.4,42.8,29.78,SW,221,1.0,1.0,58,0.00,,---,0.00,VWS V14.01,2013-11-09 19:46:00,
2013-11-09 14:47:00,57.3,42.7,29.78,SSE,165,0.0,2.0,58,0.00,,---,0.00,VWS V14.01,2013-11-09 19:47:00,
2013-11-09 14:48:00,57.3,42.7,29.78,SW,220,0.0,2.0,58,0.00,,---,0.00,VWS V14.01,2013-11-09 19:48:00,
2013-11-09 14:49:00,57.3,43.1,29.78,West,276,1.0,2.0,59,0.00,,---,0.00,VWS V14.01,2013-11-09 19:49:00,
2013-11-09 14:50:00,57.3,43.1,29.78,WNW,288,4.0,4.0,59,0.00,,---,0.00,VWS V14.01,2013-11-09 19:50:00,
2013-11-09 14:51:00,57.3,42.7,29.78,West,261,0.0,12.0,58,0.00,,---,0.00,VWS V14.01,2013-11-09 19:51:00,
2013-11-09 14:52:00,57.3,43.1,29.78,West,270,4.0,12.0,59,0.00,,---,0.00,VWS V14.01,2013-11-09 19:52:00,
2013-11-09 14:53:00,57.3,42.7,29.78,WSW,247,1.0,12.0,58,0.00,,---,0.00,VWS V14.01,2013-11-09 19:53:00,
2013-11-09 14:54:00,57.4,42.8,29.78,SW,224,0.0,12.0,58,0.00,,---,0.00,VWS V14.01,2013-11-09 19:54:00,
2013-11-09 14:55:00,57.4,42.8,29.78,West,269,1.0,12.0,58,0.00,,---,0.00,VWS V14.01,2013-11-09 19:55:00,
2013-11-09 14:56:00,57.4,42.8,29.78,SW,221,1.0,5.0,58,0.00,,---,0.00,VWS V14.01,2013-11-09 19:56:00,
2013-11-09 14:57:00,57.4,42.8,29.78,SW,226,0.0,5.0,58,0.00,,---,0.00,VWS V14.01,2013-11-09 19:57:00,
2013-11-09 14:58:00,57.5,42.8,29.78,SSW,208,2.0,5.0,58,0.00,,---,0.00,VWS V14.01,2013-11-09 19:58:00,
2013-11-09 14:59:00,57.5,42.8,29.78,SSW,208,0.0,5.0,58,0.00,,---,0.00,VWS V14.01,2013-11-09 19:59:00,
2013-11-09 15:00:00,57.6,43.0,29.77,WSW,239,2.0,5.0,58,0.00,,---,0.00,VWS V14.01,2013-11-09 20:00:00,
2013-11-09 15:01:00,57.7,42.6,29.77,SSW,210,0.0,4.0,57,0.00,,---,0.00,VWS V14.01,2013-11-09 20:01:00,
2013-11-09 15:02:00,57.7,42.6,29.77,West,269,7.0,10.0,57,0.00,,---,0.00,VWS V14.01,2013-11-09 20:02:00,
2013-11-09 15:03:00,57.8,42.7,29.77,SW,236,0.0,10.0,57,0.00,,---,0.00,VWS V14.01,2013-11-09 20:03:00,
2013-11-09 15:04:00,57.8,42.7,29.77,NNW,342,2.0,10.0,57,0.00,,---,0.00,VWS V14.01,2013-11-09 20:04:00,
2013-11-09 15:05:00,57.9,42.8,29.77,NNW,333,0.0,10.0,57,0.00,,---,0.00,VWS V14.01,2013-11-09 20:05:00,
2013-11-09 15:06:00,58.0,43.3,29.77,NW,312,2.0,2.0,58,0.00,,---,0.00,VWS V14.01,2013-11-09 20:06:00,
2013-11-09 15:07:00,58.0,43.3,29.77,West,281,5.0,5.0,58,0.00,,---,0.00,VWS V14.01,2013-11-09 20:07:00,
2013-11-09 15:08:00,58.1,43.0,29.77,WSW,256,2.0,9.0,57,0.00,,---,0.00,VWS V14.01,2013-11-09 20:08:00,
2013-11-09 15:09:00,58.1,43.0,29.77,WNW,283,1.0,9.0,57,0.00,,---,0.00,VWS V14.01,2013-11-09 20:09:00,
2013-11-09 15:10:00,58.1,43.4,29.77,WNW,283,1.0,9.0,58,0.00,,---,0.00,VWS V14.01,2013-11-09 20:10:00,
2013-11-09 15:11:00,58.2,43.5,29.77,WNW,292,1.0,4.0,58,0.00,,---,0.00,VWS V14.01,2013-11-09 20:11:00,
2013-11-09 15:12:00,58.2,43.1,29.77,WNW,295,0.0,4.0,57,0.00,,---,0.00,VWS V14.01,2013-11-09 20:12:00,
2013-11-09 15:13:00,58.2,43.1,29.77,WNW,295,0.0,4.0,57,0.00,,---,0.00,VWS V14.01,2013-11-09 20:13:00,
2013-11-09 15:14:00,58.1,43.4,29.77,NNW,329,0.0,4.0,58,0.00,,---,0.00,VWS V14.01,2013-11-09 20:14:00,
2013-11-09 15:15:00,58.1,43.0,29.78,WNW,301,0.0,5.0,57,0.00,,---,0.00,VWS V14.01,2013-11-09 20:15:00,
2013-11-09 15:16:00,58.1,43.0,29.78,WNW,283,1.0,3.0,57,0.00,,---,0.00,VWS V14.01,2013-11-09 20:16:00,
2013-11-09 15:17:00,58.1,43.0,29.78,NW,323,0.0,3.0,57,0.00,,---,0.00,VWS V14.01,2013-11-09 20:17:00,
2013-11-09 15:18:00,58.1,43.0,29.78,NW,323,0.0,3.0,57,0.00,,---,0.00,VWS V14.01,2013-11-09 20:18:00,
2013-11-09 15:19:00,58.1,42.5,29.78,WNW,291,0.0,3.0,56,0.00,,---,0.00,VWS V14.01,2013-11-09 20:19:00,
2013-11-09 15:20:00,58.1,42.5,29.78,West,280,3.0,7.0,56,0.00,,---,0.00,VWS V14.01,2013-11-09 20:20:00,
2013-11-09 15:21:00,58.1,42.5,29.78,WNW,286,1.0,3.0,56,0.00,,---,0.00,VWS V14.01,2013-11-09 20:21:00,
2013-11-09 15:22:00,58.0,42.9,29.78,WNW,285,1.0,3.0,57,0.00,,---,0.00,VWS V14.01,2013-11-09 20:22:00,
2013-11-09 15:23:00,58.0,42.9,29.78,NW,305,2.0,3.0,57,0.00,,---,0.00,VWS V14.01,2013-11-09 20:23:00,
2013-11-09 15:24:00,57.9,42.8,29.78,West,275,0.0,5.0,57,0.00,,---,0.00,VWS V14.01,2013-11-09 20:24:00,
2013-11-09 15:25:00,57.8,42.7,29.78,West,279,0.0,5.0,57,0.00,,---,0.00,VWS V14.01,2013-11-09 20:25:00,
2013-11-09 15:26:00,57.8,42.7,29.78,East,79,1.0,6.0,57,0.00,,---,0.00,VWS V14.01,2013-11-09 20:26:00,
2013-11-09 15:27:00,57.8,42.2,29.78,West,263,2.0,6.0,56,0.00,,---,0.00,VWS V14.01,2013-11-09 20:27:00,
2013-11-09 15:28:00,57.7,42.1,29.78,West,279,1.0,6.0,56,0.00,,---,0.00,VWS V14.01,2013-11-09 20:28:00,
2013-11-09 15:29:00,57.7,42.6,29.78,NNW,346,2.0,6.0,57,0.00,,---,0.00,VWS V14.01,2013-11-09 20:29:00,
2013-11-09 15:30:00,57.6,42.0,29.78,West,280,1.0,6.0,56,0.00,,---,0.00,VWS V14.01,2013-11-09 20:30:00,
2013-11-09 15:31:00,57.6,42.5,29.78,West,273,1.0,3.0,57,0.00,,---,0.00,VWS V14.01,2013-11-09 20:31:00,
2013-11-09 15:32:00,57.5,42.4,29.78,WSW,240,3.0,3.0,57,0.00,,---,0.00,VWS V14.01,2013-11-09 20:32:00,
2013-11-09 15:33:00,57.5,42.4,29.78,WSW,253,0.0,3.0,57,0.00,,---,0.00,VWS V14.01,2013-11-09 20:33:00,
2013-11-09 15:34:00,57.5,42.4,29.78,West,280,0.0,3.0,57,0.00,,---,0.00,VWS V14.01,2013-11-09 20:34:00,
2013-11-09 15:35:00,57.5,42.4,29.78,NW,314,1.0,4.0,57,0.00,,---,0.00,VWS V14.01,2013-11-09 20:35:00,
2013-11-09 15:36:00,57.5,41.9,29.78,WNW,285,2.0,2.0,56,0.00,,---,0.00,VWS V14.01,2013-11-09 20:36:00,
2013-11-09 15:37:00,57.4,42.3,29.78,West,267,6.0,6.0,57,0.00,,---,0.00,VWS V14.01,2013-11-09 20:37:00,
2013-11-09 15:38:00,57.5,41.9,29.78,WSW,252,2.0,6.0,56,0.00,,---,0.00,VWS V14.01,2013-11-09 20:38:00,
2013-11-09 15:39:00,57.4,41.8,29.78,West,278,2.0,6.0,56,0.00,,---,0.00,VWS V14.01,2013-11-09 20:39:00,
2013-11-09 15:40:00,57.4,42.3,29.78,West,267,0.0,6.0,57,0.00,,---,0.00,VWS V14.01,2013-11-09 20:40:00,
2013-11-09 15:41:00,57.4,41.8,29.78,NW,309,0.0,5.0,56,0.00,,---,0.00,VWS V14.01,2013-11-09 20:41:00,
2013-11-09 15:42:00,57.3,41.8,29.78,WNW,283,2.0,5.0,56,0.00,,---,0.00,VWS V14.01,2013-11-09 20:42:00,
2013-11-09 15:43:00,57.3,41.8,29.78,SSW,193,0.0,5.0,56,0.00,,---,0.00,VWS V14.01,2013-11-09 20:43:00,
2013-11-09 15:44:00,57.3,42.2,29.78,West,275,2.0,5.0,57,0.00,,---,0.00,VWS V14.01,2013-11-09 20:44:00,
2013-11-09 15:45:00,57.2,42.1,29.79,WSW,254,2.0,8.0,57,0.00,,---,0.00,VWS V14.01,2013-11-09 20:45:00,
2013-11-09 15:46:00,57.2,42.1,29.79,West,278,5.0,5.0,57,0.00,,---,0.00,VWS V14.01,2013-11-09 20:46:00,
2013-11-09 15:47:00,57.2,42.1,29.79,WSW,250,1.0,5.0,57,0.00,,---,0.00,VWS V14.01,2013-11-09 20:47:00,
2013-11-09 15:48:00,57.1,42.0,29.79,West,264,0.0,5.0,57,0.00,,---,0.00,VWS V14.01,2013-11-09 20:48:00,
2013-11-09 15:49:00,57.1,42.0,29.79,WNW,288,0.0,11.0,57,0.00,,---,0.00,VWS V14.01,2013-11-09 20:49:00,
2013-11-09 15:50:00,57.0,41.9,29.79,West,269,3.0,11.0,57,0.00,,---,0.00,VWS V14.01,2013-11-09 20:50:00,
2013-11-09 15:51:00,57.0,42.4,29.79,West,271,4.0,6.0,58,0.00,,---,0.00,VWS V14.01,2013-11-09 20:51:00,
2013-11-09 15:52:00,56.9,41.8,29.79,West,274,4.0,7.0,57,0.00,,---,0.00,VWS V14.01,2013-11-09 20:52:00,
2013-11-09 15:53:00,56.9,41.8,29.79,WNW,289,5.0,7.0,57,0.00,,---,0.00,VWS V14.01,2013-11-09 20:53:00,
2013-11-09 15:54:00,56.9,41.8,29.79,NW,311,2.0,7.0,57,0.00,,---,0.00,VWS V14.01,2013-11-09 20:54:00,
2013-11-09 15:55:00,56.9,41.8,29.79,WSW,258,3.0,7.0,57,0.00,,---,0.00,VWS V14.01,2013-11-09 20:55:00,
2013-11-09 15:56:00,56.8,42.2,29.79,West,275,1.0,4.0,58,0.00,,---,0.00,VWS V14.01,2013-11-09 20:56:00,
2013-11-09 15:57:00,56.8,41.8,29.79,WSW,257,0.0,10.0,57,0.00,,---,0.00,VWS V14.01,2013-11-09 20:57:00,
2013-11-09 15:58:00,56.8,41.8,29.79,WNW,283,0.0,10.0,57,0.00,,---,0.00,VWS V14.01,2013-11-09 20:58:00,
2013-11-09 15:59:00,56.8,42.2,29.79,West,281,0.0,10.0,58,0.00,,---,0.00,VWS V14.01,2013-11-09 20:59:00,
2013-11-09 16:00:00,56.7,42.1,29.80,West,271,1.0,10.0,58,0.00,,---,0.00,VWS V14.01,2013-11-09 21:00:00,
2013-11-09 16:01:00,56.7,42.1,29.80,WNW,300,6.0,9.0,58,0.00,,---,0.00,VWS V14.01,2013-11-09 21:01:00,
2013-11-09 16:02:00,56.7,42.1,29.80,WNW,290,0.0,9.0,58,0.00,,---,0.00,VWS V14.01,2013-11-09 21:02:00,
2013-11-09 16:03:00,56.7,42.1,29.80,West,266,4.0,9.0,58,0.00,,---,0.00,VWS V14.01,2013-11-09 21:03:00,
2013-11-09 16:04:00,56.7,42.1,29.80,WNW,293,4.0,11.0,58,0.00,,---,0.00,VWS V14.01,2013-11-09 21:04:00,
2013-11-09 16:05:00,56.6,42.0,29.80,WSW,241,3.0,11.0,58,0.00,,---,0.00,VWS V14.01,2013-11-09 21:05:00,
2013-11-09 16:06:00,56.6,42.0,29.80,WNW,294,0.0,3.0,58,0.00,,---,0.00,VWS V14.01,2013-11-09 21:06:00,
2013-11-09 16:07:00,56.6,42.0,29.80,NW,319,1.0,5.0,58,0.00,,---,0.00,VWS V14.01,2013-11-09 21:07:00,
2013-11-09 16:08:00,56.6,42.0,29.80,WNW,296,1.0,5.0,58,0.00,,---,0.00,VWS V14.01,2013-11-09 21:08:00,
2013-11-09 16:09:00,56.6,42.0,29.80,NE,56,0.0,5.0,58,0.00,,---,0.00,VWS V14.01,2013-11-09 21:09:00,
2013-11-09 16:10:00,56.6,42.0,29.80,SE,132,3.0,5.0,58,0.00,,---,0.00,VWS V14.01,2013-11-09 21:10:00,
2013-11-09 16:11:00,56.6,42.0,29.80,SE,132,3.0,3.0,58,0.00,,---,0.00,VWS V14.01,2013-11-09 21:11:00,
2013-11-09 16:12:00,56.5,41.9,29.80,WNW,283,0.0,5.0,58,0.00,,---,0.00,VWS V14.01,2013-11-09 21:12:00,
2013-11-09 16:13:00,56.5,42.4,29.80,West,260,1.0,5.0,59,0.00,,---,0.00,VWS V14.01,2013-11-09 21:13:00,
2013-11-09 16:14:00,56.5,42.4,29.80,SW,218,2.0,5.0,59,0.00,,---,0.00,VWS V14.01,2013-11-09 21:14:00,
2013-11-09 16:15:00,56.5,41.9,29.79,West,280,2.0,5.0,58,0.00,,---,0.00,VWS V14.01,2013-11-09 21:15:00,
2013-11-09 16:16:00,56.4,41.8,29.79,WSW,250,4.0,4.0,58,0.00,,---,0.00,VWS V14.01,2013-11-09 21:16:00,
2013-11-09 16:17:00,56.4,41.8,29.79,SW,236,0.0,4.0,58,0.00,,---,0.00,VWS V14.01,2013-11-09 21:17:00,
2013-11-09 16:18:00,56.4,41.8,29.79,West,279,5.0,5.0,58,0.00,,---,0.00,VWS V14.01,2013-11-09 21:18:00,
2013-11-09 16:19:00,56.4,41.8,29.79,WNW,287,6.0,6.0,58,0.00,,---,0.00,VWS V14.01,2013-11-09 21:19:00,
2013-11-09 16:20:00,56.4,41.8,29.79,West,279,2.0,6.0,58,0.00,,---,0.00,VWS V14.01,2013-11-09 21:20:00,
2013-11-09 16:21:00,56.4,42.3,29.79,NNW,337,2.0,3.0,59,0.00,,---,0.00,VWS V14.01,2013-11-09 21:21:00,
2013-11-09 16:22:00,56.4,42.3,29.79,WNW,289,0.0,5.0,59,0.00,,---,0.00,VWS V14.01,2013-11-09 21:22:00,
2013-11-09 16:23:00,56.4,42.3,29.79,WNW,290,0.0,5.0,59,0.00,,---,0.00,VWS V14.01,2013-11-09 21:23:00,
2013-11-09 16:24:00,56.3,42.2,29.79,WNW,285,1.0,5.0,59,0.00,,---,0.00,VWS V14.01,2013-11-09 21:24:00,
2013-11-09 16:25:00,56.3,42.2,29.79,West,273,3.0,5.0,59,0.00,,---,0.00,VWS V14.01,2013-11-09 21:25:00,
2013-11-09 16:26:00,56.3,42.2,29.79,WNW,297,5.0,6.0,59,0.00,,---,0.00,VWS V14.01,2013-11-09 21:26:00,
2013-11-09 16:27:00,56.2,42.1,29.79,West,276,2.0,6.0,59,0.00,,---,0.00,VWS V14.01,2013-11-09 21:27:00,
2013-11-09 16:28:00,56.2,42.1,29.79,West,259,2.0,6.0,59,0.00,,---,0.00,VWS V14.01,2013-11-09 21:28:00,
2013-11-09 16:29:00,56.2,42.1,29.79,West,259,0.0,6.0,59,0.00,,---,0.00,VWS V14.01,2013-11-09 21:29:00,
2013-11-09 16:30:00,56.1,42.4,29.80,West,270,4.0,6.0,60,0.00,,---,0.00,VWS V14.01,2013-11-09 21:30:00,
2013-11-09 16:31:00,56.1,42.4,29.80,NNW,328,0.0,6.0,60,0.00,,---,0.00,VWS V14.01,2013-11-09 21:31:00,
2013-11-09 16:32:00,56.0,42.3,29.80,West,274,2.0,7.0,60,0.00,,---,0.00,VWS V14.01,2013-11-09 21:32:00,
2013-11-09 16:33:00,56.0,42.3,29.80,West,271,2.0,7.0,60,0.00,,---,0.00,VWS V14.01,2013-11-09 21:33:00,
2013-11-09 16:34:00,56.0,42.3,29.80,West,271,2.0,7.0,60,0.00,,---,0.00,VWS V14.01,2013-11-09 21:34:00,
2013-11-09 16:35:00,55.9,42.2,29.80,WNW,285,4.0,7.0,60,0.00,,---,0.00,VWS V14.01,2013-11-09 21:35:00,
2013-11-09 16:36:00,55.9,42.2,29.80,West,270,1.0,5.0,60,0.00,,---,0.00,VWS V14.01,2013-11-09 21:36:00,
2013-11-09 16:37:00,55.8,42.1,29.80,West,281,3.0,5.0,60,0.00,,---,0.00,VWS V14.01,2013-11-09 21:37:00,
2013-11-09 16:38:00,55.8,42.1,29.80,West,275,1.0,5.0,60,0.00,,---,0.00,VWS V14.01,2013-11-09 21:38:00,
2013-11-09 16:39:00,55.7,42.5,29.80,SW,226,0.0,5.0,61,0.00,,---,0.00,VWS V14.01,2013-11-09 21:39:00,
2013-11-09 16:40:00,55.7,42.5,29.80,West,279,4.0,5.0,61,0.00,,---,0.00,VWS V14.01,2013-11-09 21:40:00,
2013-11-09 16:41:00,55.6,42.0,29.80,WSW,240,4.0,10.0,60,0.00,,---,0.00,VWS V14.01,2013-11-09 21:41:00,
2013-11-09 16:42:00,55.6,42.0,29.80,WSW,257,0.0,10.0,60,0.00,,---,0.00,VWS V14.01,2013-11-09 21:42:00,
2013-11-09 16:43:00,55.5,41.9,29.80,WNW,292,1.0,10.0,60,0.00,,---,0.00,VWS V14.01,2013-11-09 21:43:00,
2013-11-09 16:44:00,55.5,42.3,29.80,WNW,288,1.0,10.0,61,0.00,,---,0.00,VWS V14.01,2013-11-09 21:44:00,
2013-11-09 16:45:00,55.5,42.3,29.81,WSW,257,0.0,10.0,61,0.00,,---,0.00,VWS V14.01,2013-11-09 21:45:00,
2013-11-09 16:46:00,55.5,42.3,29.81,WSW,257,1.0,2.0,61,0.00,,---,0.00,VWS V14.01,2013-11-09 21:46:00,
2013-11-09 16:47:00,55.5,42.3,29.81,SW,218,0.0,2.0,61,0.00,,---,0.00,VWS V14.01,2013-11-09 21:47:00,
2013-11-09 16:48:00,55.5,42.3,29.81,WSW,252,0.0,2.0,61,0.00,,---,0.00,VWS V14.01,2013-11-09 21:48:00,
2013-11-09 16:49:00,55.4,42.2,29.81,West,276,1.0,2.0,61,0.00,,---,0.00,VWS V14.01,2013-11-09 21:49:00,
2013-11-09 16:50:00,55.4,42.2,29.81,SSW,195,0.0,2.0,61,0.00,,---,0.00,VWS V14.01,2013-11-09 21:50:00,
2013-11-09 16:51:00,55.4,42.2,29.81,West,263,1.0,2.0,61,0.00,,---,0.00,VWS V14.01,2013-11-09 21:51:00,
2013-11-09 16:52:00,55.4,42.2,29.81,WSW,249,2.0,5.0,61,0.00,,---,0.00,VWS V14.01,2013-11-09 21:52:00,
2013-11-09 16:53:00,55.4,42.2,29.81,West,278,1.0,5.0,61,0.00,,---,0.00,VWS V14.01,2013-11-09 21:53:00,
2013-11-09 16:54:00,55.4,42.6,29.81,West,278,0.0,5.0,62,0.00,,---,0.00,VWS V14.01,2013-11-09 21:54:00,
2013-11-09 16:55:00,55.4,42.6,29.81,West,279,1.0,5.0,62,0.00,,---,0.00,VWS V14.01,2013-11-09 21:55:00,
2013-11-09 16:56:00,55.3,42.5,29.81,West,279,0.0,1.0,62,0.00,,---,0.00,VWS V14.01,2013-11-09 21:56:00,
2013-11-09 16:57:00,55.3,42.5,29.81,West,271,0.0,1.0,62,0.00,,---,0.00,VWS V14.01,2013-11-09 21:57:00,
2013-11-09 16:58:00,55.3,42.5,29.81,West,271,0.0,1.0,62,0.00,,---,0.00,VWS V14.01,2013-11-09 21:58:00,
2013-11-09 16:59:00,55.3,42.5,29.81,West,264,0.0,3.0,62,0.00,,---,0.00,VWS V14.01,2013-11-09 21:59:00,
2013-11-09 17:00:00,55.3,42.5,29.82,West,276,2.0,3.0,62,0.00,,---,0.00,VWS V14.01,2013-11-09 22:00:00,
2013-11-09 17:01:00,55.2,42.4,29.82,WNW,293,0.0,3.0,62,0.00,,---,0.00,VWS V14.01,2013-11-09 22:01:00,
2013-11-09 17:02:00,55.2,42.4,29.82,WSW,253,1.0,4.0,62,0.00,,---,0.00,VWS V14.01,2013-11-09 22:02:00,
2013-11-09 17:03:00,55.1,42.3,29.82,West,274,1.0,5.0,62,0.00,,---,0.00,VWS V14.01,2013-11-09 22:03:00,
2013-11-09 17:04:00,55.1,42.3,29.82,WSW,257,1.0,5.0,62,0.00,,---,0.00,VWS V14.01,2013-11-09 22:04:00,
2013-11-09 17:05:00,55.1,42.8,29.82,West,268,0.0,5.0,63,0.00,,---,0.00,VWS V14.01,2013-11-09 22:05:00,
2013-11-09 17:06:00,55.0,42.7,29.82,West,268,0.0,1.0,63,0.00,,---,0.00,VWS V14.01,2013-11-09 22:06:00,
2013-11-09 17:07:00,55.0,42.7,29.82,West,273,7.0,7.0,63,0.00,,---,0.00,VWS V14.01,2013-11-09 22:07:00,
2013-11-09 17:08:00,55.0,42.2,29.82,WNW,293,1.0,7.0,62,0.00,,---,0.00,VWS V14.01,2013-11-09 22:08:00,
2013-11-09 17:09:00,54.9,42.6,29.82,SW,228,0.0,7.0,63,0.00,,---,0.00,VWS V14.01,2013-11-09 22:09:00,
2013-11-09 17:10:00,54.9,42.6,29.82,SW,228,0.0,7.0,63,0.00,,---,0.00,VWS V14.01,2013-11-09 22:10:00,
2013-11-09 17:11:00,54.9,42.6,29.82,WSW,253,0.0,1.0,63,0.00,,---,0.00,VWS V14.01,2013-11-09 22:11:00,
2013-11-09 17:12:00,54.8,42.5,29.82,West,262,1.0,1.0,63,0.00,,---,0.00,VWS V14.01,2013-11-09 22:12:00,
2013-11-09 17:13:00,54.8,42.5,29.82,SW,219,0.0,3.0,63,0.00,,---,0.00,VWS V14.01,2013-11-09 22:13:00,
2013-11-09 17:14:00,54.8,42.5,29.82,WSW,240,1.0,3.0,63,0.00,,---,0.00,VWS V14.01,2013-11-09 22:14:00,
2013-11-09 17:15:00,54.7,42.4,29.82,West,262,2.0,3.0,63,0.00,,---,0.00,VWS V14.01,2013-11-09 22:15:00,
2013-11-09 17:16:00,54.7,42.4,29.82,West,271,2.0,4.0,63,0.00,,---,0.00,VWS V14.01,2013-11-09 22:16:00,
2013-11-09 17:17:00,54.6,42.3,29.82,West,264,0.0,4.0,63,0.00,,---,0.00,VWS V14.01,2013-11-09 22:17:00,
2013-11-09 17:18:00,54.6,42.3,29.82,West,264,0.0,4.0,63,0.00,,---,0.00,VWS V14.01,2013-11-09 22:18:00,
2013-11-09 17:19:00,54.6,42.3,29.82,NW,319,0.0,4.0,63,0.00,,---,0.00,VWS V14.01,2013-11-09 22:19:00,
2013-11-09 17:20:00,54.6,42.7,29.82,West,261,1.0,4.0,64,0.00,,---,0.00,VWS V14.01,2013-11-09 22:20:00,
2013-11-09 17:21:00,54.6,42.3,29.82,West,266,0.0,6.0,63,0.00,,---,0.00,VWS V14.01,2013-11-09 22:21:00,
2013-11-09 17:22:00,54.6,42.3,29.82,NW,311,5.0,6.0,63,0.00,,---,0.00,VWS V14.01,2013-11-09 22:22:00,
2013-11-09 17:23:00,54.6,42.3,29.82,WNW,290,1.0,6.0,63,0.00,,---,0.00,VWS V14.01,2013-11-09 22:23:00,
2013-11-09 17:24:00,54.6,42.7,29.82,West,270,1.0,6.0,64,0.00,,---,0.00,VWS V14.01,2013-11-09 22:24:00,
2013-11-09 17:25:00,54.5,42.2,29.82,West,281,1.0,6.0,63,0.00,,---,0.00,VWS V14.01,2013-11-09 22:25:00,
2013-11-09 17:26:00,54.5,42.2,29.82,West,280,1.0,1.0,63,0.00,,---,0.00,VWS V14.01,2013-11-09 22:26:00,
2013-11-09 17:27:00,54.5,42.6,29.82,West,280,0.0,1.0,64,0.00,,---,0.00,VWS V14.01,2013-11-09 22:27:00,
2013-11-09 17:28:00,54.5,42.6,29.82,West,280,0.0,1.0,64,0.00,,---,0.00,VWS V14.01,2013-11-09 22:28:00,
2013-11-09 17:29:00,54.5,42.6,29.82,West,281,1.0,2.0,64,0.00,,---,0.00,VWS V14.01,2013-11-09 22:29:00,
2013-11-09 17:30:00,54.4,42.5,29.83,WNW,289,1.0,5.0,64,0.00,,---,0.00,VWS V14.01,2013-11-09 22:30:00,
2013-11-09 17:31:00,54.4,42.5,29.83,West,268,2.0,4.0,64,0.00,,---,0.00,VWS V14.01,2013-11-09 22:31:00,
2013-11-09 17:32:00,54.4,42.5,29.83,NW,317,1.0,4.0,64,0.00,,---,0.00,VWS V14.01,2013-11-09 22:32:00,
2013-11-09 17:33:00,54.3,42.4,29.83,West,267,0.0,6.0,64,0.00,,---,0.00,VWS V14.01,2013-11-09 22:33:00,
2013-11-09 17:34:00,54.3,42.4,29.83,WSW,254,2.0,6.0,64,0.00,,---,0.00,VWS V14.01,2013-11-09 22:34:00,
2013-11-09 17:35:00,54.3,42.4,29.83,WNW,288,0.0,6.0,64,0.00,,---,0.00,VWS V14.01,2013-11-09 22:35:00,
2013-11-09 17:36:00,54.3,42.4,29.83,NW,304,3.0,3.0,64,0.00,,---,0.00,VWS V14.01,2013-11-09 22:36:00,
2013-11-09 17:37:00,54.2,42.3,29.83,WNW,297,0.0,3.0,64,0.00,,---,0.00,VWS V14.01,2013-11-09 22:37:00,
2013-11-09 17:38:00,54.2,42.3,29.83,WNW,296,0.0,4.0,64,0.00,,---,0.00,VWS V14.01,2013-11-09 22:38:00,
2013-11-09 17:39:00,54.2,42.3,29.83,West,278,0.0,4.0,64,0.00,,---,0.00,VWS V14.01,2013-11-09 22:39:00,
2013-11-09 17:40:00,54.2,42.7,29.83,West,264,2.0,4.0,65,0.00,,---,0.00,VWS V14.01,2013-11-09 22:40:00,
2013-11-09 17:41:00,54.1,42.2,29.83,WNW,289,1.0,9.0,64,0.00,,---,0.00,VWS V14.01,2013-11-09 22:41:00,
2013-11-09 17:42:00,54.1,42.2,29.83,SW,226,0.0,9.0,64,0.00,,---,0.00,VWS V14.01,2013-11-09 22:42:00,
2013-11-09 17:43:00,54.1,42.2,29.83,WSW,248,3.0,9.0,64,0.00,,---,0.00,VWS V14.01,2013-11-09 22:43:00,
2013-11-09 17:44:00,54.0,42.5,29.83,WSW,250,2.0,9.0,65,0.00,,---,0.00,VWS V14.01,2013-11-09 22:44:00,
2013-11-09 17:45:00,54.0,42.5,29.84,West,275,2.0,9.0,65,0.00,,---,0.00,VWS V14.01,2013-11-09 22:45:00,
2013-11-09 17:46:00,54.0,42.5,29.84,WNW,282,2.0,4.0,65,0.00,,---,0.00,VWS V14.01,2013-11-09 22:46:00,
2013-11-09 17:47:00,54.0,42.1,29.84,WNW,293,2.0,6.0,64,0.00,,---,0.00,VWS V14.01,2013-11-09 22:47:00,
2013-11-09 17:48:00,53.9,42.0,29.84,NNW,344,0.0,9.0,64,0.00,,---,0.00,VWS V14.01,2013-11-09 22:48:00,
2013-11-09 17:49:00,53.9,42.0,29.84,WNW,288,4.0,9.0,64,0.00,,---,0.00,VWS V14.01,2013-11-09 22:49:00,
2013-11-09 17:50:00,53.9,42.0,29.84,WNW,290,0.0,9.0,64,0.00,,---,0.00,VWS V14.01,2013-11-09 22:50:00,
2013-11-09 17:51:00,53.9,42.4,29.84,WSW,250,4.0,4.0,65,0.00,,---,0.00,VWS V14.01,2013-11-09 22:51:00,
2013-11-09 17:52:00,53.9,42.4,29.84,WSW,252,0.0,4.0,65,0.00,,---,0.00,VWS V14.01,2013-11-09 22:52:00,
2013-11-09 17:53:00,53.9,42.4,29.84,West,260,0.0,4.0,65,0.00,,---,0.00,VWS V14.01,2013-11-09 22:53:00,
2013-11-09 17:54:00,53.9,42.4,29.84,West,280,2.0,4.0,65,0.00,,---,0.00,VWS V14.01,2013-11-09 22:54:00,
2013-11-09 17:55:00,53.9,42.4,29.84,West,274,0.0,4.0,65,0.00,,---,0.00,VWS V14.01,2013-11-09 22:55:00,
2013-11-09 17:56:00,53.9,42.4,29.84,WNW,283,0.0,4.0,65,0.00,,---,0.00,VWS V14.01,2013-11-09 22:56:00,
2013-11-09 17:57:00,53.9,42.4,29.84,West,281,1.0,4.0,65,0.00,,---,0.00,VWS V14.01,2013-11-09 22:57:00,
2013-11-09 17:58:00,53.9,42.4,29.84,NW,326,0.0,4.0,65,0.00,,---,0.00,VWS V14.01,2013-11-09 22:58:00,
2013-11-09 17:59:00,53.9,42.4,29.84,WSW,250,2.0,4.0,65,0.00,,---,0.00,VWS V14.01,2013-11-09 22:59:00,
2013-11-09 18:00:00,53.8,42.3,29.84,NNW,344,0.0,4.0,65,0.00,,---,0.00,VWS V14.01,2013-11-09 23:00:00,
2013-11-09 18:01:00,53.8,42.3,29.84,West,277,2.0,3.0,65,0.00,,---,0.00,VWS V14.01,2013-11-09 23:01:00,
2013-11-09 18:02:00,53.8,42.3,29.84,SW,233,1.0,3.0,65,0.00,,---,0.00,VWS V14.01,2013-11-09 23:02:00,
2013-11-09 18:03:00,53.7,42.2,29.84,West,260,0.0,3.0,65,0.00,,---,0.00,VWS V14.01,2013-11-09 23:03:00,
2013-11-09 18:04:00,53.7,42.2,29.84,WSW,255,0.0,4.0,65,0.00,,---,0.00,VWS V14.01,2013-11-09 23:04:00,
2013-11-09 18:05:00,53.7,42.2,29.84,WSW,255,0.0,4.0,65,0.00,,---,0.00,VWS V14.01,2013-11-09 23:05:00,
2013-11-09 18:06:00,53.7,42.2,29.84,SSW,210,0.0,1.0,65,0.00,,---,0.00,VWS V14.01,2013-11-09 23:06:00,
2013-11-09 18:07:00,53.7,42.2,29.84,SW,225,0.0,2.0,65,0.00,,---,0.00,VWS V14.01,2013-11-09 23:07:00,
2013-11-09 18:08:00,53.6,42.1,29.84,West,269,0.0,3.0,65,0.00,,---,0.00,VWS V14.01,2013-11-09 23:08:00,
2013-11-09 18:09:00,53.6,42.1,29.84,WSW,248,3.0,3.0,65,0.00,,---,0.00,VWS V14.01,2013-11-09 23:09:00,
2013-11-09 18:10:00,53.6,42.1,29.84,WSW,245,0.0,3.0,65,0.00,,---,0.00,VWS V14.01,2013-11-09 23:10:00,
2013-11-09 18:11:00,53.6,42.1,29.84,WNW,289,4.0,5.0,65,0.00,,---,0.00,VWS V14.01,2013-11-09 23:11:00,
2013-11-09 18:12:00,53.6,42.1,29.84,West,260,4.0,5.0,65,0.00,,---,0.00,VWS V14.01,2013-11-09 23:12:00,
2013-11-09 18:13:00,53.5,42.0,29.84,SW,215,3.0,5.0,65,0.00,,---,0.00,VWS V14.01,2013-11-09 23:13:00,
2013-11-09 18:14:00,53.5,42.0,29.84,NNW,330,5.0,7.0,65,0.00,,---,0.00,VWS V14.01,2013-11-09 23:14:00,
2013-11-09 18:15:00,53.5,42.0,29.84,WNW,282,1.0,7.0,65,0.00,,---,0.00,VWS V14.01,2013-11-09 23:15:00,
2013-11-09 18:16:00,53.5,42.0,29.84,WNW,285,0.0,2.0,65,0.00,,---,0.00,VWS V14.01,2013-11-09 23:16:00,
2013-11-09 18:17:00,53.5,42.0,29.84,ESE,108,1.0,2.0,65,0.00,,---,0.00,VWS V14.01,2013-11-09 23:17:00,
2013-11-09 18:18:00,53.5,42.0,29.84,West,266,1.0,2.0,65,0.00,,---,0.00,VWS V14.01,2013-11-09 23:18:00,
2013-11-09 18:19:00,53.5,42.0,29.84,WSW,238,0.0,5.0,65,0.00,,---,0.00,VWS V14.01,2013-11-09 23:19:00,
2013-11-09 18:20:00,53.5,42.0,29.84,WSW,238,0.0,5.0,65,0.00,,---,0.00,VWS V14.01,2013-11-09 23:20:00,
2013-11-09 18:21:00,53.4,41.9,29.84,WSW,245,0.0,1.0,65,0.00,,---,0.00,VWS V14.01,2013-11-09 23:21:00,
2013-11-09 18:22:00,53.4,41.9,29.84,SE,143,1.0,1.0,65,0.00,,---,0.00,VWS V14.01,2013-11-09 23:22:00,
2013-11-09 18:23:00,53.4,41.9,29.84,WSW,243,0.0,4.0,65,0.00,,---,0.00,VWS V14.01,2013-11-09 23:23:00,
2013-11-09 18:24:00,53.4,41.9,29.84,West,267,3.0,10.0,65,0.00,,---,0.00,VWS V14.01,2013-11-09 23:24:00,
2013-11-09 18:25:00,53.3,41.8,29.84,WNW,296,4.0,10.0,65,0.00,,---,0.00,VWS V14.01,2013-11-09 23:25:00,
2013-11-09 18:26:00,53.3,41.8,29.84,WNW,295,4.0,5.0,65,0.00,,---,0.00,VWS V14.01,2013-11-09 23:26:00,
2013-11-09 18:27:00,53.3,41.8,29.84,West,277,0.0,5.0,65,0.00,,---,0.00,VWS V14.01,2013-11-09 23:27:00,
2013-11-09 18:28:00,53.3,41.8,29.84,West,260,4.0,5.0,65,0.00,,---,0.00,VWS V14.01,2013-11-09 23:28:00,
2013-11-09 18:29:00,53.3,41.8,29.84,WSW,252,0.0,5.0,65,0.00,,---,0.00,VWS V14.01,2013-11-09 23:29:00,
2013-11-09 18:30:00,53.2,41.8,29.85,West,267,5.0,5.0,65,0.00,,---,0.00,VWS V14.01,2013-11-09 23:30:00,
2013-11-09 18:31:00,53.2,41.8,29.85,WSW,237,1.0,5.0,65,0.00,,---,0.00,VWS V14.01,2013-11-09 23:31:00,
2013-11-09 18:32:00,53.2,41.8,29.85,WSW,255,1.0,5.0,65,0.00,,---,0.00,VWS V14.01,2013-11-09 23:32:00,
2013-11-09 18:33:00,53.2,41.8,29.85,West,274,0.0,5.0,65,0.00,,---,0.00,VWS V14.01,2013-11-09 23:33:00,
2013-11-09 18:34:00,53.1,41.7,29.85,WSW,252,1.0,5.0,65,0.00,,---,0.00,VWS V14.01,2013-11-09 23:34:00,
2013-11-09 18:35:00,53.1,41.7,29.85,West,276,2.0,5.0,65,0.00,,---,0.00,VWS V14.01,2013-11-09 23:35:00,
2013-11-09 18:36:00,53.1,41.7,29.85,ESE,110,1.0,1.0,65,0.00,,---,0.00,VWS V14.01,2013-11-09 23:36:00,
2013-11-09 18:37:00,53.0,41.6,29.85,SW,217,1.0,3.0,65,0.00,,---,0.00,VWS V14.01,2013-11-09 23:37:00,
2013-11-09 18:38:00,53.0,41.6,29.85,SW,231,1.0,3.0,65,0.00,,---,0.00,VWS V14.01,2013-11-09 23:38:00,
2013-11-09 18:39:00,53.0,41.6,29.85,WNW,290,0.0,3.0,65,0.00,,---,0.00,VWS V14.01,2013-11-09 23:39:00,
2013-11-09 18:40:00,53.0,41.6,29.85,West,277,3.0,5.0,65,0.00,,---,0.00,VWS V14.01,2013-11-09 23:40:00,
2013-11-09 18:41:00,53.0,41.6,29.85,West,278,0.0,2.0,65,0.00,,---,0.00,VWS V14.01,2013-11-09 23:41:00,
2013-11-09 18:42:00,52.9,41.5,29.85,West,266,0.0,2.0,65,0.00,,---,0.00,VWS V14.01,2013-11-09 23:42:00,
2013-11-09 18:43:00,52.9,41.5,29.85,WSW,251,0.0,2.0,65,0.00,,---,0.00,VWS V14.01,2013-11-09 23:43:00,
2013-11-09 18:44:00,52.9,41.5,29.85,WSW,251,0.0,2.0,65,0.00,,---,0.00,VWS V14.01,2013-11-09 23:44:00,
2013-11-09 18:45:00,52.9,41.5,29.85,West,268,3.0,3.0,65,0.00,,---,0.00,VWS V14.01,2013-11-09 23:45:00,
2013-11-09 18:46:00,52.8,41.8,29.85,ENE,78,0.0,2.0,66,0.00,,---,0.00,VWS V14.01,2013-11-09 23:46:00,
2013-11-09 18:47:00,52.8,41.4,29.85,West,277,4.0,4.0,65,0.00,,---,0.00,VWS V14.01,2013-11-09 23:47:00,
2013-11-09 18:48:00,52.7,41.3,29.85,West,266,6.0,6.0,65,0.00,,---,0.00,VWS V14.01,2013-11-09 23:48:00,
2013-11-09 18:49:00,52.7,41.7,29.85,WSW,258,0.0,6.0,66,0.00,,---,0.00,VWS V14.01,2013-11-09 23:49:00,
2013-11-09 18:50:00,52.7,41.7,29.85,WSW,258,0.0,6.0,66,0.00,,---,0.00,VWS V14.01,2013-11-09 23:50:00,
2013-11-09 18:51:00,52.6,41.6,29.85,West,259,0.0,1.0,66,0.00,,---,0.00,VWS V14.01,2013-11-09 23:51:00,
2013-11-09 18:52:00,52.6,41.6,29.85,West,259,0.0,1.0,66,0.00,,---,0.00,VWS V14.01,2013-11-09 23:52:00,
2013-11-09 18:53:00,52.6,41.6,29.85,WSW,253,0.0,4.0,66,0.00,,---,0.00,VWS V14.01,2013-11-09 23:53:00,
2013-11-09 18:54:00,52.5,41.5,29.85,NW,305,0.0,4.0,66,0.00,,---,0.00,VWS V14.01,2013-11-09 23:54:00,
2013-11-09 18:55:00,52.5,41.5,29.85,WNW,287,0.0,4.0,66,0.00,,---,0.00,VWS V14.01,2013-11-09 23:55:00,
2013-11-09 18:56:00,52.5,41.5,29.85,WNW,287,0.0,1.0,66,0.00,,---,0.00,VWS V14.01,2013-11-09 23:56:00,
2013-11-09 18:57:00,52.5,41.1,29.85,WNW,283,0.0,2.0,65,0.00,,---,0.00,VWS V14.01,2013-11-09 23:57:00,
2013-11-09 18:58:00,52.4,41.4,29.85,WNW,283,0.0,2.0,66,0.00,,---,0.00,VWS V14.01,2013-11-09 23:58:00,
2013-11-09 18:59:00,52.4,41.4,29.85,WNW,283,1.0,2.0,66,0.00,,---,0.00,VWS V14.01,2013-11-09 23:59:00,
2013-11-09 19:00:00,52.4,41.4,29.86,West,280,2.0,5.0,66,0.00,,---,0.00,VWS V14.01,2013-11-10 00:00:00,
2013-11-09 19:01:00,52.4,41.4,29.86,West,264,5.0,5.0,66,0.00,,---,0.00,VWS V14.01,2013-11-10 00:01:00,
2013-11-09 19:02:00,52.3,41.3,29.86,West,264,0.0,5.0,66,0.00,,---,0.00,VWS V14.01,2013-11-10 00:02:00,
2013-11-09 19:03:00,52.3,41.3,29.86,WNW,293,1.0,5.0,66,0.00,,---,0.00,VWS V14.01,2013-11-10 00:03:00,
2013-11-09 19:04:00,52.3,41.3,29.86,West,279,0.0,5.0,66,0.00,,---,0.00,VWS V14.01,2013-11-10 00:04:00,
2013-11-09 19:05:00,52.2,41.2,29.86,SSW,213,0.0,5.0,66,0.00,,---,0.00,VWS V14.01,2013-11-10 00:05:00,
2013-11-09 19:06:00,52.2,41.2,29.86,WSW,245,1.0,1.0,66,0.00,,---,0.00,VWS V14.01,2013-11-10 00:06:00,
2013-11-09 19:07:00,52.2,41.2,29.86,WSW,245,0.0,1.0,66,0.00,,---,0.00,VWS V14.01,2013-11-10 00:07:00,
2013-11-09 19:08:00,52.2,41.6,29.86,WSW,245,0.0,1.0,67,0.00,,---,0.00,VWS V14.01,2013-11-10 00:08:00,
2013-11-09 19:09:00,52.1,41.1,29.86,WSW,242,0.0,1.0,66,0.00,,---,0.00,VWS V14.01,2013-11-10 00:09:00,
2013-11-09 19:10:00,52.1,41.1,29.86,WSW,257,0.0,2.0,66,0.00,,---,0.00,VWS V14.01,2013-11-10 00:10:00,
2013-11-09 19:11:00,52.1,41.1,29.86,WSW,257,2.0,2.0,66,0.00,,---,0.00,VWS V14.01,2013-11-10 00:11:00,
2013-11-09 19:12:00,52.1,41.5,29.86,West,262,0.0,2.0,67,0.00,,---,0.00,VWS V14.01,2013-11-10 00:12:00,
2013-11-09 19:13:00,52.0,41.4,29.86,West,262,0.0,2.0,67,0.00,,---,0.00,VWS V14.01,2013-11-10 00:13:00,
2013-11-09 19:14:00,52.0,41.4,29.86,SSW,198,0.0,2.0,67,0.00,,---,0.00,VWS V14.01,2013-11-10 00:14:00,
2013-11-09 19:15:00,52.0,41.4,29.86,SSW,211,0.0,2.0,67,0.00,,---,0.00,VWS V14.01,2013-11-10 00:15:00,
2013-11-09 19:16:00,51.9,41.3,29.86,West,261,0.0,4.0,67,0.00,,---,0.00,VWS V14.01,2013-11-10 00:16:00,
2013-11-09 19:17:00,51.9,41.3,29.86,WNW,303,0.0,4.0,67,0.00,,---,0.00,VWS V14.01,2013-11-10 00:17:00,
2013-11-09 19:18:00,51.9,41.3,29.86,WNW,296,0.0,4.0,67,0.00,,---,0.00,VWS V14.01,2013-11-10 00:18:00,
2013-11-09 19:19:00,51.9,41.3,29.86,WNW,292,0.0,4.0,67,0.00,,---,0.00,VWS V14.01,2013-11-10 00:19:00,
2013-11-09 19:20:00,51.9,41.3,29.86,West,264,0.0,4.0,67,0.00,,---,0.00,VWS V14.01,2013-11-10 00:20:00,
2013-11-09 19:21:00,51.9,41.3,29.86,West,277,2.0,5.0,67,0.00,,---,0.00,VWS V14.01,2013-11-10 00:21:00,
2013-11-09 19:22:00,51.9,41.3,29.86,WSW,258,1.0,5.0,67,0.00,,---,0.00,VWS V14.01,2013-11-10 00:22:00,
2013-11-09 19:23:00,51.9,41.3,29.86,WNW,282,1.0,5.0,67,0.00,,---,0.00,VWS V14.01,2013-11-10 00:23:00,
2013-11-09 19:24:00,51.9,41.3,29.86,WNW,282,0.0,5.0,67,0.00,,---,0.00,VWS V14.01,2013-11-10 00:24:00,
2013-11-09 19:25:00,51.8,41.2,29.86,WSW,257,1.0,5.0,67,0.00,,---,0.00,VWS V14.01,2013-11-10 00:25:00,
2013-11-09 19:26:00,51.8,41.2,29.86,West,259,0.0,2.0,67,0.00,,---,0.00,VWS V14.01,2013-11-10 00:26:00,
2013-11-09 19:27:00,51.8,41.2,29.86,West,259,0.0,2.0,67,0.00,,---,0.00,VWS V14.01,2013-11-10 00:27:00,
2013-11-09 19:28:00,51.9,41.3,29.86,West,259,0.0,3.0,67,0.00,,---,0.00,VWS V14.01,2013-11-10 00:28:00,
2013-11-09 19:29:00,51.8,41.2,29.86,West,269,0.0,3.0,67,0.00,,---,0.00,VWS V14.01,2013-11-10 00:29:00,
2013-11-09 19:30:00,51.8,41.6,29.86,West,269,0.0,3.0,68,0.00,,---,0.00,VWS V14.01,2013-11-10 00:30:00,
2013-11-09 19:31:00,51.8,41.2,29.86,WNW,295,0.0,4.0,67,0.00,,---,0.00,VWS V14.01,2013-11-10 00:31:00,
2013-11-09 19:32:00,51.8,41.2,29.86,West,262,0.0,4.0,67,0.00,,---,0.00,VWS V14.01,2013-11-10 00:32:00,
2013-11-09 19:33:00,51.8,41.2,29.86,West,262,1.0,4.0,67,0.00,,---,0.00,VWS V14.01,2013-11-10 00:33:00,
2013-11-09 19:34:00,51.8,41.2,29.86,West,259,1.0,4.0,67,0.00,,---,0.00,VWS V14.01,2013-11-10 00:34:00,
2013-11-09 19:35:00,51.8,41.2,29.86,West,278,3.0,4.0,67,0.00,,---,0.00,VWS V14.01,2013-11-10 00:35:00,
2013-11-09 19:36:00,51.8,41.2,29.86,WNW,284,1.0,2.0,67,0.00,,---,0.00,VWS V14.01,2013-11-10 00:36:00,
2013-11-09 19:37:00,51.8,41.2,29.86,WNW,284,0.0,2.0,67,0.00,,---,0.00,VWS V14.01,2013-11-10 00:37:00,
2013-11-09 19:38:00,51.8,41.6,29.86,WNW,284,0.0,2.0,68,0.00,,---,0.00,VWS V14.01,2013-11-10 00:38:00,
2013-11-09 19:39:00,51.8,41.6,29.86,WNW,284,1.0,2.0,68,0.00,,---,0.00,VWS V14.01,2013-11-10 00:39:00,
2013-11-09 19:40:00,51.7,41.5,29.86,West,265,0.0,2.0,68,0.00,,---,0.00,VWS V14.01,2013-11-10 00:40:00,
2013-11-09 19:41:00,51.7,41.5,29.86,West,265,0.0,1.0,68,0.00,,---,0.00,VWS V14.01,2013-11-10 00:41:00,
2013-11-09 19:42:00,51.6,41.4,29.86,West,265,0.0,2.0,68,0.00,,---,0.00,VWS V14.01,2013-11-10 00:42:00,
2013-11-09 19:43:00,51.6,41.4,29.86,West,262,1.0,3.0,68,0.00,,---,0.00,VWS V14.01,2013-11-10 00:43:00,
2013-11-09 19:44:00,51.6,41.4,29.86,West,267,0.0,3.0,68,0.00,,---,0.00,VWS V14.01,2013-11-10 00:44:00,
2013-11-09 19:45:00,51.5,41.3,29.87,West,267,0.0,3.0,68,0.00,,---,0.00,VWS V14.01,2013-11-10 00:45:00,
2013-11-09 19:46:00,51.5,41.3,29.87,West,267,0.0,1.0,68,0.00,,---,0.00,VWS V14.01,2013-11-10 00:46:00,
2013-11-09 19:47:00,51.4,41.2,29.87,West,267,0.0,1.0,68,0.00,,---,0.00,VWS V14.01,2013-11-10 00:47:00,
2013-11-09 19:48:00,51.4,41.6,29.87,West,267,0.0,1.0,69,0.00,,---,0.00,VWS V14.01,2013-11-10 00:48:00,
2013-11-09 19:49:00,51.4,41.6,29.87,West,267,0.0,1.0,69,0.00,,---,0.00,VWS V14.01,2013-11-10 00:49:00,
2013-11-09 19:50:00,51.3,41.5,29.87,West,267,0.0,1.0,69,0.00,,---,0.00,VWS V14.01,2013-11-10 00:50:00,
2013-11-09 19:51:00,51.3,41.5,29.87,West,267,0.0,1.0,69,0.00,,---,0.00,VWS V14.01,2013-11-10 00:51:00,
2013-11-09 19:52:00,51.3,41.5,29.87,West,267,0.0,1.0,69,0.00,,---,0.00,VWS V14.01,2013-11-10 00:52:00,
2013-11-09 19:53:00,51.2,41.4,29.87,West,267,1.0,1.0,69,0.00,,---,0.00,VWS V14.01,2013-11-10 00:53:00,
2013-11-09 19:54:00,51.2,41.4,29.87,West,267,1.0,1.0,69,0.00,,---,0.00,VWS V14.01,2013-11-10 00:54:00,
2013-11-09 19:55:00,51.1,41.7,29.87,West,268,1.0,3.0,70,0.00,,---,0.00,VWS V14.01,2013-11-10 00:55:00,
2013-11-09 19:56:00,51.1,41.7,29.87,West,268,0.0,0.0,70,0.00,,---,0.00,VWS V14.01,2013-11-10 00:56:00,
2013-11-09 19:57:00,51.0,41.6,29.87,West,268,0.0,1.0,70,0.00,,---,0.00,VWS V14.01,2013-11-10 00:57:00,
2013-11-09 19:58:00,51.0,41.6,29.87,West,268,0.0,1.0,70,0.00,,---,0.00,VWS V14.01,2013-11-10 00:58:00,
2013-11-09 19:59:00,51.0,41.6,29.87,West,264,0.0,4.0,70,0.00,,---,0.00,VWS V14.01,2013-11-10 00:59:00,
2013-11-09 20:00:00,50.9,41.5,29.87,West,264,0.0,4.0,70,0.00,,---,0.00,VWS V14.01,2013-11-10 01:00:00,
2013-11-09 20:01:00,50.9,41.5,29.87,West,276,0.0,5.0,70,0.00,,---,0.00,VWS V14.01,2013-11-10 01:01:00,
2013-11-09 20:02:00,50.9,41.5,29.87,West,271,0.0,5.0,70,0.00,,---,0.00,VWS V14.01,2013-11-10 01:02:00,
2013-11-09 20:03:00,50.9,41.5,29.87,West,259,3.0,7.0,70,0.00,,---,0.00,VWS V14.01,2013-11-10 01:03:00,
2013-11-09 20:04:00,50.8,41.4,29.87,WNW,285,3.0,7.0,70,0.00,,---,0.00,VWS V14.01,2013-11-10 01:04:00,
2013-11-09 20:05:00,50.8,41.4,29.87,West,278,0.0,7.0,70,0.00,,---,0.00,VWS V14.01,2013-11-10 01:05:00,
2013-11-09 20:06:00,50.8,41.4,29.87,NW,309,0.0,3.0,70,0.00,,---,0.00,VWS V14.01,2013-11-10 01:06:00,
2013-11-09 20:07:00,50.8,41.4,29.87,West,280,0.0,6.0,70,0.00,,---,0.00,VWS V14.01,2013-11-10 01:07:00,
2013-11-09 20:08:00,50.8,41.4,29.87,West,263,2.0,6.0,70,0.00,,---,0.00,VWS V14.01,2013-11-10 01:08:00,
2013-11-09 20:09:00,50.8,41.4,29.87,West,263,1.0,6.0,70,0.00,,---,0.00,VWS V14.01,2013-11-10 01:09:00,
2013-11-09 20:10:00,50.8,41.4,29.87,NW,308,2.0,6.0,70,0.00,,---,0.00,VWS V14.01,2013-11-10 01:10:00,
2013-11-09 20:11:00,50.8,41.4,29.87,WNW,288,0.0,2.0,70,0.00,,---,0.00,VWS V14.01,2013-11-10 01:11:00,
2013-11-09 20:12:00,50.8,41.4,29.87,NW,306,0.0,6.0,70,0.00,,---,0.00,VWS V14.01,2013-11-10 01:12:00,
2013-11-09 20:13:00,50.8,41.4,29.87,ESE,103,3.0,6.0,70,0.00,,---,0.00,VWS V14.01,2013-11-10 01:13:00,
2013-11-09 20:14:00,50.8,41.4,29.87,SW,230,1.0,6.0,70,0.00,,---,0.00,VWS V14.01,2013-11-10 01:14:00,
2013-11-09 20:15:00,50.9,41.5,29.87,West,278,3.0,6.0,70,0.00,,---,0.00,VWS V14.01,2013-11-10 01:15:00,
2013-11-09 20:16:00,50.9,41.5,29.87,West,267,2.0,5.0,70,0.00,,---,0.00,VWS V14.01,2013-11-10 01:16:00,
2013-11-09 20:17:00,50.9,41.5,29.87,North,359,3.0,5.0,70,0.00,,---,0.00,VWS V14.01,2013-11-10 01:17:00,
2013-11-09 20:18:00,50.9,41.5,29.87,West,272,0.0,5.0,70,0.00,,---,0.00,VWS V14.01,2013-11-10 01:18:00,
2013-11-09 20:19:00,50.8,41.4,29.87,West,272,2.0,5.0,70,0.00,,---,0.00,VWS V14.01,2013-11-10 01:19:00,
2013-11-09 20:20:00,50.9,41.5,29.87,West,276,1.0,5.0,70,0.00,,---,0.00,VWS V14.01,2013-11-10 01:20:00,
2013-11-09 20:21:00,50.9,41.5,29.87,West,271,2.0,12.0,70,0.00,,---,0.00,VWS V14.01,2013-11-10 01:21:00,
2013-11-09 20:22:00,50.9,41.5,29.87,West,279,0.0,12.0,70,0.00,,---,0.00,VWS V14.01,2013-11-10 01:22:00,
2013-11-09 20:23:00,50.9,41.5,29.87,WNW,296,8.0,12.0,70,0.00,,---,0.00,VWS V14.01,2013-11-10 01:23:00,
2013-11-09 20:24:00,50.9,41.5,29.87,West,264,1.0,12.0,70,0.00,,---,0.00,VWS V14.01,2013-11-10 01:24:00,
2013-11-09 20:25:00,50.9,41.5,29.87,WNW,283,4.0,12.0,70,0.00,,---,0.00,VWS V14.01,2013-11-10 01:25:00,
2013-11-09 20:26:00,50.9,41.5,29.87,WSW,253,3.0,9.0,70,0.00,,---,0.00,VWS V14.01,2013-11-10 01:26:00,
2013-11-09 20:27:00,50.9,41.5,29.87,West,260,2.0,9.0,70,0.00,,---,0.00,VWS V14.01,2013-11-10 01:27:00,
2013-11-09 20:28:00,50.9,41.5,29.87,West,260,2.0,9.0,70,0.00,,---,0.00,VWS V14.01,2013-11-10 01:28:00,
2013-11-09 20:29:00,50.9,41.5,29.87,West,270,5.0,9.0,70,0.00,,---,0.00,VWS V14.01,2013-11-10 01:29:00,
2013-11-09 20:30:00,51.0,41.2,29.88,West,277,1.0,9.0,69,0.00,,---,0.00,VWS V14.01,2013-11-10 01:30:00,
2013-11-09 20:31:00,51.0,41.2,29.88,NW,317,1.0,6.0,69,0.00,,---,0.00,VWS V14.01,2013-11-10 01:31:00,
2013-11-09 20:32:00,51.0,41.2,29.88,West,262,0.0,6.0,69,0.00,,---,0.00,VWS V14.01,2013-11-10 01:32:00,
2013-11-09 20:33:00,51.0,41.2,29.88,WSW,244,0.0,6.0,69,0.00,,---,0.00,VWS V14.01,2013-11-10 01:33:00,
2013-11-09 20:34:00,51.0,41.2,29.88,WSW,244,0.0,6.0,69,0.00,,---,0.00,VWS V14.01,2013-11-10 01:34:00,
2013-11-09 20:35:00,51.0,41.6,29.88,SSE,154,2.0,6.0,70,0.00,,---,0.00,VWS V14.01,2013-11-10 01:35:00,
2013-11-09 20:36:00,50.9,41.5,29.88,West,270,2.0,2.0,70,0.00,,---,0.00,VWS V14.01,2013-11-10 01:36:00,
2013-11-09 20:37:00,50.9,41.5,29.88,WNW,283,0.0,4.0,70,0.00,,---,0.00,VWS V14.01,2013-11-10 01:37:00,
2013-11-09 20:38:00,50.9,41.5,29.88,West,278,2.0,4.0,70,0.00,,---,0.00,VWS V14.01,2013-11-10 01:38:00,
2013-11-09 20:39:00,50.8,41.4,29.88,West,271,2.0,4.0,70,0.00,,---,0.00,VWS V14.01,2013-11-10 01:39:00,
2013-11-09 20:40:00,50.8,41.4,29.88,West,262,0.0,4.0,70,0.00,,---,0.00,VWS V14.01,2013-11-10 01:40:00,
2013-11-09 20:41:00,50.8,41.4,29.88,WSW,251,1.0,3.0,70,0.00,,---,0.00,VWS V14.01,2013-11-10 01:41:00,
2013-11-09 20:42:00,50.8,41.4,29.88,WSW,251,1.0,3.0,70,0.00,,---,0.00,VWS V14.01,2013-11-10 01:42:00,
2013-11-09 20:43:00,50.8,41.4,29.88,WSW,251,1.0,3.0,70,0.00,,---,0.00,VWS V14.01,2013-11-10 01:43:00,
2013-11-09 20:44:00,50.8,41.4,29.88,WSW,251,1.0,3.0,70,0.00,,---,0.00,VWS V14.01,2013-11-10 01:44:00,
2013-11-09 20:45:00,50.7,41.3,29.88,WSW,251,0.0,3.0,70,0.00,,---,0.00,VWS V14.01,2013-11-10 01:45:00,
2013-11-09 20:46:00,50.7,41.7,29.88,WSW,251,1.0,1.0,71,0.00,,---,0.00,VWS V14.01,2013-11-10 01:46:00,
2013-11-09 20:47:00,50.6,41.6,29.88,WSW,252,1.0,3.0,71,0.00,,---,0.00,VWS V14.01,2013-11-10 01:47:00,
2013-11-09 20:48:00,50.6,41.6,29.88,West,279,0.0,8.0,71,0.00,,---,0.00,VWS V14.01,2013-11-10 01:48:00,
2013-11-09 20:49:00,50.6,41.6,29.88,West,276,0.0,8.0,71,0.00,,---,0.00,VWS V14.01,2013-11-10 01:49:00,
2013-11-09 20:50:00,50.5,41.5,29.88,WNW,302,0.0,8.0,71,0.00,,---,0.00,VWS V14.01,2013-11-10 01:50:00,
2013-11-09 20:51:00,50.5,41.5,29.88,SSW,206,0.0,2.0,71,0.00,,---,0.00,VWS V14.01,2013-11-10 01:51:00,
2013-11-09 20:52:00,50.5,41.5,29.88,SW,236,0.0,5.0,71,0.00,,---,0.00,VWS V14.01,2013-11-10 01:52:00,
2013-11-09 20:53:00,50.5,41.5,29.88,WSW,237,1.0,5.0,71,0.00,,---,0.00,VWS V14.01,2013-11-10 01:53:00,
2013-11-09 20:54:00,50.5,41.5,29.88,NW,320,3.0,8.0,71,0.00,,---,0.00,VWS V14.01,2013-11-10 01:54:00,
2013-11-09 20:55:00,50.5,41.5,29.88,WSW,258,0.0,8.0,71,0.00,,---,0.00,VWS V14.01,2013-11-10 01:55:00,
2013-11-09 20:56:00,50.5,41.8,29.88,West,263,0.0,2.0,72,0.00,,---,0.00,VWS V14.01,2013-11-10 01:56:00,
2013-11-09 20:57:00,50.4,41.7,29.88,West,266,2.0,5.0,72,0.00,,---,0.00,VWS V14.01,2013-11-10 01:57:00,
2013-11-09 20:58:00,50.4,41.7,29.88,SSW,199,0.0,5.0,72,0.00,,---,0.00,VWS V14.01,2013-11-10 01:58:00,
2013-11-09 20:59:00,50.4,41.7,29.88,SSW,212,1.0,5.0,72,0.00,,---,0.00,VWS V14.01,2013-11-10 01:59:00,
2013-11-09 21:00:00,50.4,41.7,29.88,SW,233,1.0,5.0,72,0.00,,---,0.00,VWS V14.01,2013-11-10 02:00:00,
2013-11-09 21:01:00,50.4,41.7,29.88,West,276,0.0,2.0,72,0.00,,---,0.00,VWS V14.01,2013-11-10 02:01:00,
2013-11-09 21:02:00,50.4,41.7,29.88,WNW,282,3.0,9.0,72,0.00,,---,0.00,VWS V14.01,2013-11-10 02:02:00,
2013-11-09 21:03:00,50.4,41.7,29.88,WSW,248,2.0,9.0,72,0.00,,---,0.00,VWS V14.01,2013-11-10 02:03:00,
2013-11-09 21:04:00,50.4,41.7,29.88,WSW,252,6.0,9.0,72,0.00,,---,0.00,VWS V14.01,2013-11-10 02:04:00,
2013-11-09 21:05:00,50.4,41.7,29.88,WSW,252,2.0,9.0,72,0.00,,---,0.00,VWS V14.01,2013-11-10 02:05:00,
2013-11-09 21:06:00,50.4,41.7,29.88,WSW,252,2.0,2.0,72,0.00,,---,0.00,VWS V14.01,2013-11-10 02:06:00,
2013-11-09 21:07:00,50.4,41.7,29.88,WSW,252,2.0,2.0,72,0.00,,---,0.00,VWS V14.01,2013-11-10 02:07:00,
2013-11-09 21:08:00,50.3,41.6,29.88,West,267,3.0,4.0,72,0.00,,---,0.00,VWS V14.01,2013-11-10 02:08:00,
2013-11-09 21:09:00,50.3,41.6,29.88,West,278,3.0,4.0,72,0.00,,---,0.00,VWS V14.01,2013-11-10 02:09:00,
2013-11-09 21:10:00,50.3,41.6,29.88,West,269,1.0,5.0,72,0.00,,---,0.00,VWS V14.01,2013-11-10 02:10:00,
2013-11-09 21:11:00,50.3,41.6,29.88,NW,321,1.0,4.0,72,0.00,,---,0.00,VWS V14.01,2013-11-10 02:11:00,
2013-11-09 21:12:00,50.3,41.6,29.88,West,264,0.0,4.0,72,0.00,,---,0.00,VWS V14.01,2013-11-10 02:12:00,
2013-11-09 21:13:00,50.2,41.5,29.88,West,274,2.0,4.0,72,0.00,,---,0.00,VWS V14.01,2013-11-10 02:13:00,
2013-11-09 21:14:00,50.2,41.5,29.88,West,276,2.0,4.0,72,0.00,,---,0.00,VWS V14.01,2013-11-10 02:14:00,
2013-11-09 21:15:00,50.2,41.5,29.89,West,266,0.0,4.0,72,0.00,,---,0.00,VWS V14.01,2013-11-10 02:15:00,
2013-11-09 21:16:00,50.2,41.5,29.89,West,280,1.0,5.0,72,0.00,,---,0.00,VWS V14.01,2013-11-10 02:16:00,
2013-11-09 21:17:00,50.1,41.4,29.89,WNW,295,2.0,7.0,72,0.00,,---,0.00,VWS V14.01,2013-11-10 02:17:00,
2013-11-09 21:18:00,50.1,41.4,29.89,West,280,3.0,8.0,72,0.00,,---,0.00,VWS V14.01,2013-11-10 02:18:00,
2013-11-09 21:19:00,50.1,41.1,29.89,West,276,0.0,8.0,71,0.00,,---,0.00,VWS V14.01,2013-11-10 02:19:00,
2013-11-09 21:20:00,50.1,41.4,29.89,SE,134,3.0,12.0,72,0.00,,---,0.00,VWS V14.01,2013-11-10 02:20:00,
2013-11-09 21:21:00,50.1,41.1,29.89,West,268,6.0,15.0,71,0.00,,---,0.00,VWS V14.01,2013-11-10 02:21:00,
2013-11-09 21:22:00,50.1,40.7,29.89,West,267,3.0,15.0,70,0.00,,---,0.00,VWS V14.01,2013-11-10 02:22:00,
2013-11-09 21:23:00,50.1,40.7,29.89,NW,318,7.0,15.0,70,0.00,,---,0.00,VWS V14.01,2013-11-10 02:23:00,
2013-11-09 21:24:00,50.1,40.3,29.89,North,6,3.0,15.0,69,0.00,,---,0.00,VWS V14.01,2013-11-10 02:24:00,
2013-11-09 21:25:00,50.1,40.0,29.89,West,269,5.0,15.0,68,0.00,,---,0.00,VWS V14.01,2013-11-10 02:25:00,
2013-11-09 21:26:00,50.1,40.0,29.89,West,271,0.0,11.0,68,0.00,,---,0.00,VWS V14.01,2013-11-10 02:26:00,
2013-11-09 21:27:00,50.2,40.1,29.89,West,272,3.0,12.0,68,0.00,,---,0.00,VWS V14.01,2013-11-10 02:27:00,
2013-11-09 21:28:00,50.2,39.7,29.89,WSW,245,5.0,12.0,67,0.00,,---,0.00,VWS V14.01,2013-11-10 02:28:00,
2013-11-09 21:29:00,50.2,39.7,29.89,NNW,334,3.0,12.0,67,0.00,,---,0.00,VWS V14.01,2013-11-10 02:29:00,
2013-11-09 21:30:00,50.3,39.8,29.89,West,278,6.0,12.0,67,0.00,,---,0.00,VWS V14.01,2013-11-10 02:30:00,
2013-11-09 21:31:00,50.3,40.2,29.89,WSW,249,3.0,10.0,68,0.00,,---,0.00,VWS V14.01,2013-11-10 02:31:00,
2013-11-09 21:32:00,50.2,39.7,29.89,NW,321,4.0,10.0,67,0.00,,---,0.00,VWS V14.01,2013-11-10 02:32:00,
2013-11-09 21:33:00,50.3,39.8,29.89,WNW,289,2.0,10.0,67,0.00,,---,0.00,VWS V14.01,2013-11-10 02:33:00,
2013-11-09 21:34:00,50.3,39.8,29.89,West,261,3.0,10.0,67,0.00,,---,0.00,VWS V14.01,2013-11-10 02:34:00,
2013-11-09 21:35:00,50.3,40.2,29.89,WSW,249,1.0,10.0,68,0.00,,---,0.00,VWS V14.01,2013-11-10 02:35:00,
2013-11-09 21:36:00,50.2,40.1,29.89,West,272,3.0,3.0,68,0.00,,---,0.00,VWS V14.01,2013-11-10 02:36:00,
2013-11-09 21:37:00,50.2,40.1,29.89,West,272,1.0,4.0,68,0.00,,---,0.00,VWS V14.01,2013-11-10 02:37:00,
2013-11-09 21:38:00,50.2,40.1,29.89,West,278,0.0,6.0,68,0.00,,---,0.00,VWS V14.01,2013-11-10 02:38:00,
2013-11-09 21:39:00,50.2,40.1,29.89,West,268,0.0,9.0,68,0.00,,---,0.00,VWS V14.01,2013-11-10 02:39:00,
2013-11-09 21:40:00,50.1,40.0,29.89,WNW,286,0.0,9.0,68,0.00,,---,0.00,VWS V14.01,2013-11-10 02:40:00,
2013-11-09 21:41:00,50.1,40.0,29.89,WNW,286,0.0,1.0,68,0.00,,---,0.00,VWS V14.01,2013-11-10 02:41:00,
2013-11-09 21:42:00,50.1,40.0,29.89,WNW,297,0.0,3.0,68,0.00,,---,0.00,VWS V14.01,2013-11-10 02:42:00,
2013-11-09 21:43:00,50.1,40.3,29.89,WSW,258,3.0,3.0,69,0.00,,---,0.00,VWS V14.01,2013-11-10 02:43:00,
2013-11-09 21:44:00,50.1,40.3,29.89,West,280,0.0,3.0,69,0.00,,---,0.00,VWS V14.01,2013-11-10 02:44:00,
2013-11-09 21:45:00,50.0,40.2,29.90,West,276,0.0,4.0,69,0.00,,---,0.00,VWS V14.01,2013-11-10 02:45:00,
2013-11-09 21:46:00,50.0,40.2,29.90,SE,145,3.0,6.0,69,0.00,,---,0.00,VWS V14.01,2013-11-10 02:46:00,
2013-11-09 21:47:00,49.9,39.8,29.90,West,260,2.0,6.0,68,0.00,,---,0.00,VWS V14.01,2013-11-10 02:47:00,
2013-11-09 21:48:00,49.9,40.2,29.90,NNW,328,6.0,9.0,69,0.00,,---,0.00,VWS V14.01,2013-11-10 02:48:00,
2013-11-09 21:49:00,49.9,40.2,29.90,West,274,4.0,9.0,69,0.00,,---,0.00,VWS V14.01,2013-11-10 02:49:00,
2013-11-09 21:50:00,49.9,40.2,29.90,SSW,207,0.0,9.0,69,0.00,,---,0.00,VWS V14.01,2013-11-10 02:50:00,
2013-11-09 21:51:00,49.9,39.8,29.90,WNW,290,2.0,4.0,68,0.00,,---,0.00,VWS V14.01,2013-11-10 02:51:00,
2013-11-09 21:52:00,49.9,40.2,29.90,WNW,297,2.0,5.0,69,0.00,,---,0.00,VWS V14.01,2013-11-10 02:52:00,
2013-11-09 21:53:00,49.9,40.2,29.90,SSE,160,2.0,7.0,69,0.00,,---,0.00,VWS V14.01,2013-11-10 02:53:00,
2013-11-09 21:54:00,49.9,40.2,29.90,WNW,293,6.0,9.0,69,0.00,,---,0.00,VWS V14.01,2013-11-10 02:54:00,
2013-11-09 21:55:00,49.9,40.2,29.90,West,276,6.0,9.0,69,0.00,,---,0.00,VWS V14.01,2013-11-10 02:55:00,
2013-11-09 21:56:00,49.9,40.2,29.90,West,276,3.0,6.0,69,0.00,,---,0.00,VWS V14.01,2013-11-10 02:56:00,
2013-11-09 21:57:00,49.9,40.2,29.90,WSW,254,5.0,6.0,69,0.00,,---,0.00,VWS V14.01,2013-11-10 02:57:00,
2013-11-09 21:58:00,49.9,40.2,29.90,West,279,0.0,6.0,69,0.00,,---,0.00,VWS V14.01,2013-11-10 02:58:00,
2013-11-09 21:59:00,49.9,40.2,29.90,West,272,1.0,6.0,69,0.00,,---,0.00,VWS V14.01,2013-11-10 02:59:00,
2013-11-09 22:00:00,49.8,40.0,29.90,West,276,2.0,9.0,69,0.00,,---,0.00,VWS V14.01,2013-11-10 03:00:00,
2013-11-09 22:01:00,49.8,40.0,29.90,WNW,286,0.0,3.0,69,0.00,,---,0.00,VWS V14.01,2013-11-10 03:01:00,
2013-11-09 22:02:00,49.8,40.0,29.90,North,1,6.0,6.0,69,0.00,,---,0.00,VWS V14.01,2013-11-10 03:02:00,
2013-11-09 22:03:00,49.7,40.0,29.90,West,264,0.0,6.0,69,0.00,,---,0.00,VWS V14.01,2013-11-10 03:03:00,
2013-11-09 22:04:00,49.7,40.0,29.90,WSW,237,6.0,11.0,69,0.00,,---,0.00,VWS V14.01,2013-11-10 03:04:00,
2013-11-09 22:05:00,49.7,39.6,29.90,West,267,5.0,11.0,68,0.00,,---,0.00,VWS V14.01,2013-11-10 03:05:00,
2013-11-09 22:06:00,49.6,39.5,29.90,WNW,300,6.0,6.0,68,0.00,,---,0.00,VWS V14.01,2013-11-10 03:06:00,
2013-11-09 22:07:00,49.6,39.5,29.90,WNW,286,5.0,10.0,68,0.00,,---,0.00,VWS V14.01,2013-11-10 03:07:00,
2013-11-09 22:08:00,49.6,39.5,29.90,West,269,4.0,10.0,68,0.00,,---,0.00,VWS V14.01,2013-11-10 03:08:00,
2013-11-09 22:09:00,49.6,39.5,29.90,SSE,160,0.0,10.0,68,0.00,,---,0.00,VWS V14.01,2013-11-10 03:09:00,
2013-11-09 22:10:00,49.5,39.4,29.90,West,266,1.0,10.0,68,0.00,,---,0.00,VWS V14.01,2013-11-10 03:10:00,
2013-11-09 22:11:00,49.5,39.4,29.90,West,273,3.0,9.0,68,0.00,,---,0.00,VWS V14.01,2013-11-10 03:11:00,
2013-11-09 22:12:00,49.5,39.4,29.90,SW,228,0.0,9.0,68,0.00,,---,0.00,VWS V14.01,2013-11-10 03:12:00,
2013-11-09 22:13:00,49.4,39.3,29.90,West,263,0.0,9.0,68,0.00,,---,0.00,VWS V14.01,2013-11-10 03:13:00,
2013-11-09 22:14:00,49.4,39.3,29.90,West,274,8.0,9.0,68,0.00,,---,0.00,VWS V14.01,2013-11-10 03:14:00,
2013-11-09 22:15:00,49.4,39.3,29.90,West,264,2.0,9.0,68,0.00,,---,0.00,VWS V14.01,2013-11-10 03:15:00,
2013-11-09 22:16:00,49.3,39.6,29.90,WSW,254,2.0,6.0,69,0.00,,---,0.00,VWS V14.01,2013-11-10 03:16:00,
2013-11-09 22:17:00,49.3,39.6,29.90,WNW,301,7.0,7.0,69,0.00,,---,0.00,VWS V14.01,2013-11-10 03:17:00,
2013-11-09 22:18:00,49.3,39.6,29.90,WNW,282,6.0,7.0,69,0.00,,---,0.00,VWS V14.01,2013-11-10 03:18:00,
2013-11-09 22:19:00,49.2,39.5,29.90,SE,139,0.0,7.0,69,0.00,,---,0.00,VWS V14.01,2013-11-10 03:19:00,
2013-11-09 22:20:00,49.2,39.5,29.90,WSW,257,7.0,7.0,69,0.00,,---,0.00,VWS V14.01,2013-11-10 03:20:00,
2013-11-09 22:21:00,49.2,39.5,29.90,West,262,0.0,7.0,69,0.00,,---,0.00,VWS V14.01,2013-11-10 03:21:00,
2013-11-09 22:22:00,49.1,39.4,29.90,West,271,8.0,8.0,69,0.00,,---,0.00,VWS V14.01,2013-11-10 03:22:00,
2013-11-09 22:23:00,49.1,39.4,29.90,NW,309,6.0,11.0,69,0.00,,---,0.00,VWS V14.01,2013-11-10 03:23:00,
2013-11-09 22:24:00,49.1,39.4,29.90,North,1,0.0,11.0,69,0.00,,---,0.00,VWS V14.01,2013-11-10 03:24:00,
2013-11-09 22:25:00,49.1,39.4,29.90,WSW,249,0.0,11.0,69,0.00,,---,0.00,VWS V14.01,2013-11-10 03:25:00,
2013-11-09 22:26:00,49.1,39.8,29.90,West,275,2.0,3.0,70,0.00,,---,0.00,VWS V14.01,2013-11-10 03:26:00,
2013-11-09 22:27:00,49.1,39.8,29.90,NNW,340,6.0,6.0,70,0.00,,---,0.00,VWS V14.01,2013-11-10 03:27:00,
2013-11-09 22:28:00,49.0,39.7,29.90,WSW,240,2.0,6.0,70,0.00,,---,0.00,VWS V14.01,2013-11-10 03:28:00,
2013-11-09 22:29:00,49.0,39.7,29.90,West,276,0.0,6.0,70,0.00,,---,0.00,VWS V14.01,2013-11-10 03:29:00,
2013-11-09 22:30:00,49.0,39.3,29.90,WNW,284,5.0,7.0,69,0.00,,---,0.00,VWS V14.01,2013-11-10 03:30:00,
2013-11-09 22:31:00,49.0,39.7,29.90,WNW,288,0.0,4.0,70,0.00,,---,0.00,VWS V14.01,2013-11-10 03:31:00,
2013-11-09 22:32:00,49.0,39.3,29.90,WNW,283,1.0,11.0,69,0.00,,---,0.00,VWS V14.01,2013-11-10 03:32:00,
2013-11-09 22:33:00,49.0,39.7,29.90,West,265,1.0,11.0,70,0.00,,---,0.00,VWS V14.01,2013-11-10 03:33:00,
2013-11-09 22:34:00,48.9,39.6,29.90,West,279,0.0,11.0,70,0.00,,---,0.00,VWS V14.01,2013-11-10 03:34:00,
2013-11-09 22:35:00,48.9,39.6,29.90,NW,323,1.0,11.0,70,0.00,,---,0.00,VWS V14.01,2013-11-10 03:35:00,
2013-11-09 22:36:00,48.8,39.1,29.90,West,270,1.0,7.0,69,0.00,,---,0.00,VWS V14.01,2013-11-10 03:36:00,
2013-11-09 22:37:00,48.8,39.5,29.90,West,276,3.0,7.0,70,0.00,,---,0.00,VWS V14.01,2013-11-10 03:37:00,
2013-11-09 22:38:00,48.8,39.1,29.90,WNW,300,4.0,7.0,69,0.00,,---,0.00,VWS V14.01,2013-11-10 03:38:00,
2013-11-09 22:39:00,48.8,39.1,29.90,West,271,3.0,12.0,69,0.00,,---,0.00,VWS V14.01,2013-11-10 03:39:00,
2013-11-09 22:40:00,48.7,39.0,29.90,West,266,7.0,12.0,69,0.00,,---,0.00,VWS V14.01,2013-11-10 03:40:00,
2013-11-09 22:41:00,48.7,38.6,29.90,West,278,5.0,7.0,68,0.00,,---,0.00,VWS V14.01,2013-11-10 03:41:00,
2013-11-09 22:42:00,48.7,39.0,29.90,SW,223,11.0,11.0,69,0.00,,---,0.00,VWS V14.01,2013-11-10 03:42:00,
2013-11-09 22:43:00,48.7,39.0,29.90,WNW,286,3.0,11.0,69,0.00,,---,0.00,VWS V14.01,2013-11-10 03:43:00,
2013-11-09 22:44:00,48.7,39.0,29.90,West,281,5.0,11.0,69,0.00,,---,0.00,VWS V14.01,2013-11-10 03:44:00,
2013-11-09 22:45:00,48.6,38.9,29.91,West,263,1.0,11.0,69,0.00,,---,0.00,VWS V14.01,2013-11-10 03:45:00,
2013-11-09 22:46:00,48.6,38.5,29.91,West,280,0.0,11.0,68,0.00,,---,0.00,VWS V14.01,2013-11-10 03:46:00,
2013-11-09 22:47:00,48.5,38.8,29.91,West,266,6.0,11.0,69,0.00,,---,0.00,VWS V14.01,2013-11-10 03:47:00,
2013-11-09 22:48:00,48.5,38.4,29.91,West,278,6.0,11.0,68,0.00,,---,0.00,VWS V14.01,2013-11-10 03:48:00,
2013-11-09 22:49:00,48.5,38.8,29.91,West,270,3.0,11.0,69,0.00,,---,0.00,VWS V14.01,2013-11-10 03:49:00,
2013-11-09 22:50:00,48.4,38.7,29.91,WNW,290,4.0,11.0,69,0.00,,---,0.00,VWS V14.01,2013-11-10 03:50:00,
2013-11-09 22:51:00,48.4,38.3,29.91,WNW,282,0.0,9.0,68,0.00,,---,0.00,VWS V14.01,2013-11-10 03:51:00,
2013-11-09 22:52:00,48.4,38.3,29.91,West,269,3.0,9.0,68,0.00,,---,0.00,VWS V14.01,2013-11-10 03:52:00,
2013-11-09 22:53:00,48.3,38.2,29.91,WNW,297,0.0,9.0,68,0.00,,---,0.00,VWS V14.01,2013-11-10 03:53:00,
2013-11-09 22:54:00,48.3,38.6,29.91,WNW,297,1.0,9.0,69,0.00,,---,0.00,VWS V14.01,2013-11-10 03:54:00,
2013-11-09 22:55:00,48.3,38.6,29.91,West,273,3.0,9.0,69,0.00,,---,0.00,VWS V14.01,2013-11-10 03:55:00,
2013-11-09 22:56:00,48.2,38.2,29.91,WSW,251,3.0,6.0,68,0.00,,---,0.00,VWS V14.01,2013-11-10 03:56:00,
2013-11-09 22:57:00,48.1,38.0,29.91,WNW,303,2.0,6.0,68,0.00,,---,0.00,VWS V14.01,2013-11-10 03:57:00,
2013-11-09 22:58:00,48.1,38.0,29.91,WSW,254,0.0,6.0,68,0.00,,---,0.00,VWS V14.01,2013-11-10 03:58:00,
2013-11-09 22:59:00,48.1,38.4,29.91,West,264,1.0,6.0,69,0.00,,---,0.00,VWS V14.01,2013-11-10 03:59:00,
2013-11-09 23:00:00,48.0,38.3,29.91,West,262,1.0,6.0,69,0.00,,---,0.00,VWS V14.01,2013-11-10 04:00:00,
2013-11-09 23:01:00,48.0,38.3,29.91,WNW,286,6.0,6.0,69,0.00,,---,0.00,VWS V14.01,2013-11-10 04:01:00,
2013-11-09 23:02:00,47.9,38.2,29.91,SSW,209,1.0,6.0,69,0.00,,---,0.00,VWS V14.01,2013-11-10 04:02:00,
2013-11-09 23:03:00,47.9,38.2,29.91,WNW,303,3.0,6.0,69,0.00,,---,0.00,VWS V14.01,2013-11-10 04:03:00,
2013-11-09 23:04:00,47.8,38.1,29.91,WSW,237,6.0,6.0,69,0.00,,---,0.00,VWS V14.01,2013-11-10 04:04:00,
2013-11-09 23:05:00,47.8,38.1,29.91,WNW,289,1.0,6.0,69,0.00,,---,0.00,VWS V14.01,2013-11-10 04:05:00,
2013-11-09 23:06:00,47.8,38.1,29.91,WNW,294,3.0,3.0,69,0.00,,---,0.00,VWS V14.01,2013-11-10 04:06:00,
2013-11-09 23:07:00,47.7,38.4,29.91,West,280,4.0,4.0,70,0.00,,---,0.00,VWS V14.01,2013-11-10 04:07:00,
2013-11-09 23:08:00,47.7,38.4,29.91,West,273,0.0,4.0,70,0.00,,---,0.00,VWS V14.01,2013-11-10 04:08:00,
2013-11-09 23:09:00,47.7,38.4,29.91,West,273,0.0,4.0,70,0.00,,---,0.00,VWS V14.01,2013-11-10 04:09:00,
2013-11-09 23:10:00,47.6,38.3,29.91,WSW,249,0.0,4.0,70,0.00,,---,0.00,VWS V14.01,2013-11-10 04:10:00,
2013-11-09 23:11:00,47.6,38.3,29.91,WSW,251,0.0,1.0,70,0.00,,---,0.00,VWS V14.01,2013-11-10 04:11:00,
2013-11-09 23:12:00,47.5,38.2,29.91,WSW,257,0.0,9.0,70,0.00,,---,0.00,VWS V14.01,2013-11-10 04:12:00,
2013-11-09 23:13:00,47.5,38.2,29.91,West,265,0.0,9.0,70,0.00,,---,0.00,VWS V14.01,2013-11-10 04:13:00,
2013-11-09 23:14:00,47.5,38.2,29.91,West,274,1.0,9.0,70,0.00,,---,0.00,VWS V14.01,2013-11-10 04:14:00,
2013-11-09 23:15:00,47.5,38.2,29.91,West,271,0.0,9.0,70,0.00,,---,0.00,VWS V14.01,2013-11-10 04:15:00,
2013-11-09 23:16:00,47.5,38.2,29.91,WSW,240,4.0,4.0,70,0.00,,---,0.00,VWS V14.01,2013-11-10 04:16:00,
2013-11-09 23:17:00,47.5,38.2,29.91,West,279,2.0,10.0,70,0.00,,---,0.00,VWS V14.01,2013-11-10 04:17:00,
2013-11-09 23:18:00,47.5,38.2,29.91,NW,319,3.0,10.0,70,0.00,,---,0.00,VWS V14.01,2013-11-10 04:18:00,
2013-11-09 23:19:00,47.5,38.2,29.91,West,281,1.0,10.0,70,0.00,,---,0.00,VWS V14.01,2013-11-10 04:19:00,
2013-11-09 23:20:00,47.5,38.2,29.91,West,261,6.0,10.0,70,0.00,,---,0.00,VWS V14.01,2013-11-10 04:20:00,
2013-11-09 23:21:00,47.5,37.8,29.91,WNW,291,5.0,11.0,69,0.00,,---,0.00,VWS V14.01,2013-11-10 04:21:00,
2013-11-09 23:22:00,47.5,37.5,29.91,West,270,3.0,11.0,68,0.00,,---,0.00,VWS V14.01,2013-11-10 04:22:00,
2013-11-09 23:23:00,47.5,37.5,29.91,WSW,245,5.0,11.0,68,0.00,,---,0.00,VWS V14.01,2013-11-10 04:23:00,
2013-11-09 23:24:00,47.5,37.5,29.91,WNW,290,0.0,11.0,68,0.00,,---,0.00,VWS V14.01,2013-11-10 04:24:00,
2013-11-09 23:25:00,47.5,37.5,29.91,WSW,245,6.0,11.0,68,0.00,,---,0.00,VWS V14.01,2013-11-10 04:25:00,
2013-11-09 23:26:00,47.5,37.5,29.91,WNW,285,3.0,6.0,68,0.00,,---,0.00,VWS V14.01,2013-11-10 04:26:00,
2013-11-09 23:27:00,47.6,37.6,29.91,WNW,296,2.0,6.0,68,0.00,,---,0.00,VWS V14.01,2013-11-10 04:27:00,
2013-11-09 23:28:00,47.6,37.6,29.91,SE,135,1.0,6.0,68,0.00,,---,0.00,VWS V14.01,2013-11-10 04:28:00,
2013-11-09 23:29:00,47.6,37.2,29.91,WSW,245,0.0,6.0,67,0.00,,---,0.00,VWS V14.01,2013-11-10 04:29:00,
2013-11-09 23:30:00,47.5,37.5,29.91,WSW,257,0.0,6.0,68,0.00,,---,0.00,VWS V14.01,2013-11-10 04:30:00,
2013-11-09 23:31:00,47.5,37.5,29.91,WSW,246,1.0,6.0,68,0.00,,---,0.00,VWS V14.01,2013-11-10 04:31:00,
2013-11-09 23:32:00,47.6,37.2,29.91,WNW,290,2.0,8.0,67,0.00,,---,0.00,VWS V14.01,2013-11-10 04:32:00,
2013-11-09 23:33:00,47.6,37.2,29.91,West,280,5.0,8.0,67,0.00,,---,0.00,VWS V14.01,2013-11-10 04:33:00,
2013-11-09 23:34:00,47.6,37.2,29.91,SW,229,7.0,8.0,67,0.00,,---,0.00,VWS V14.01,2013-11-10 04:34:00,
2013-11-09 23:35:00,47.5,37.1,29.91,SSW,195,2.0,12.0,67,0.00,,---,0.00,VWS V14.01,2013-11-10 04:35:00,
2013-11-09 23:36:00,47.5,36.7,29.91,SSW,213,5.0,6.0,66,0.00,,---,0.00,VWS V14.01,2013-11-10 04:36:00,
2013-11-09 23:37:00,47.5,36.7,29.91,West,260,6.0,7.0,66,0.00,,---,0.00,VWS V14.01,2013-11-10 04:37:00,
2013-11-09 23:38:00,47.5,36.3,29.91,West,259,0.0,7.0,65,0.00,,---,0.00,VWS V14.01,2013-11-10 04:38:00,
2013-11-09 23:39:00,47.4,36.2,29.91,WSW,252,3.0,7.0,65,0.00,,---,0.00,VWS V14.01,2013-11-10 04:39:00,
2013-11-09 23:40:00,47.4,36.2,29.91,WSW,248,7.0,7.0,65,0.00,,---,0.00,VWS V14.01,2013-11-10 04:40:00,
2013-11-09 23:41:00,47.4,36.2,29.91,West,280,6.0,9.0,65,0.00,,---,0.00,VWS V14.01,2013-11-10 04:41:00,
2013-11-09 23:42:00,47.4,36.2,29.91,West,278,2.0,9.0,65,0.00,,---,0.00,VWS V14.01,2013-11-10 04:42:00,
2013-11-09 23:43:00,47.3,35.8,29.91,West,276,2.0,9.0,64,0.00,,---,0.00,VWS V14.01,2013-11-10 04:43:00,
2013-11-09 23:44:00,47.3,35.8,29.91,West,276,5.0,9.0,64,0.00,,---,0.00,VWS V14.01,2013-11-10 04:44:00,
2013-11-09 23:45:00,47.3,35.8,29.91,West,278,3.0,9.0,64,0.00,,---,0.00,VWS V14.01,2013-11-10 04:45:00,
2013-11-09 23:46:00,47.3,35.8,29.91,WNW,284,1.0,3.0,64,0.00,,---,0.00,VWS V14.01,2013-11-10 04:46:00,
2013-11-09 23:47:00,47.2,35.7,29.91,NW,308,9.0,10.0,64,0.00,,---,0.00,VWS V14.01,2013-11-10 04:47:00,
2013-11-09 23:48:00,47.2,35.3,29.91,West,264,4.0,12.0,63,0.00,,---,0.00,VWS V14.01,2013-11-10 04:48:00,
2013-11-09 23:49:00,47.2,35.3,29.91,WNW,283,0.0,12.0,63,0.00,,---,0.00,VWS V14.01,2013-11-10 04:49:00,
2013-11-09 23:50:00,47.2,35.3,29.91,West,265,2.0,12.0,63,0.00,,---,0.00,VWS V14.01,2013-11-10 04:50:00,
2013-11-09 23:51:00,47.2,35.3,29.91,NW,307,1.0,13.0,63,0.00,,---,0.00,VWS V14.01,2013-11-10 04:51:00,
2013-11-09 23:52:00,47.1,35.2,29.91,WNW,287,0.0,13.0,63,0.00,,---,0.00,VWS V14.01,2013-11-10 04:52:00,
2013-11-09 23:53:00,47.1,35.2,29.91,West,269,6.0,13.0,63,0.00,,---,0.00,VWS V14.01,2013-11-10 04:53:00,
2013-11-09 23:54:00,47.0,34.7,29.91,WNW,292,6.0,13.0,62,0.00,,---,0.00,VWS V14.01,2013-11-10 04:54:00,
2013-11-09 23:55:00,47.0,34.3,29.91,WSW,257,2.0,13.0,61,0.00,,---,0.00,VWS V14.01,2013-11-10 04:55:00,
2013-11-09 23:56:00,47.0,34.3,29.91,WNW,288,3.0,6.0,61,0.00,,---,0.00,VWS V14.01,2013-11-10 04:56:00,
2013-11-09 23:57:00,47.0,34.3,29.91,WNW,293,4.0,8.0,61,0.00,,---,0.00,VWS V14.01,2013-11-10 04:57:00,
2013-11-09 23:58:00,46.9,34.2,29.91,WSW,238,5.0,8.0,61,0.00,,---,0.00,VWS V14.01,2013-11-10 04:58:00,
2013-11-09 23:59:00,46.9,34.2,29.91,NW,322,7.0,8.0,61,0.00,,---,0.00,VWS V14.01,2013-11-10 04:59:00,